[[{"header":{"parameterUnit":"m.s-1","parameterCategory":1,"la1":31.0,"la2":29.5877,"lo1":-88.7671,"lo2":-86.6584,"dy":0.0162,"dx":0.0185,"nx":115,"ny":88,"refTime":"2024-07-25T06:00:00:Z","depth":0,"parameterNumber":2,"parameterNumberName":"U-component_of_WINDS"},"data":[0.0,0.0,0.0,0.0,0.0,0.0,0.0,0.0,0.0,0.0,0.0,0.0,0.0,0.0,0.0,0.0,0.0,0.0,0.0,0.0,0.0,0.0,0.0,0.0,0.0,0.0,0.0,0.0,0.0,0.0,0.0,0.0,0.0,0.0,0.0,0.0,0.0,0.0,0.0,0.0,0.0,0.0,0.0,0.0,0.0,0.0,0.0,0.0,0.0,0.0,0.0,0.0,0.0,0.0,0.0,0.0,0.0,0.0,0.0,0.0,0.0,0.0,0.0,0.0,0.0,0.0,0.0,0.0,0.0,0.0,0.0,0.0,0.0,0.0,0.0,0.0,0.0,0.0,0.0,0.0,0.0,0.0,0.0,0.0,0.0,0.0,0.0,0.0,0.0,0.0,0.0,0.0,0.0,0.0,0.0,0.0,0.0,0.0,0.0,0.0,0.0,0.0,0.0,0.0,0.0,0.0,0.0,0.0,0.0,0.0,0.0,0.0,0.0,0.0,0.0,0.0,0.0,0.0,0.0,0.0,0.0,0.0,0.0,0.0,0.0,0.0,0.0,0.0,0.0,0.0,0.0,0.0,0.0,0.0,0.0,0.0,0.0,0.0,0.0,0.0,0.0,0.0,0.0,0.0,0.0,0.0,0.0,0.0,0.0,0.0,0.0,0.0,0.0,0.0,0.0,0.0,0.0,0.0,0.0,0.0,0.0,0.0,0.0,0.0,0.0,0.0,0.0,0.0,0.0,0.0,0.0,0.0,0.0,0.0,0.0,0.0,0.0,0.0,0.0,0.0,0.0,0.0,0.0,0.0,0.0,0.0,0.0,0.0,0.0,0.0,0.0,0.0,0.0,0.0,0.0,0.0,0.0,0.0,0.0,0.0,0.0,0.0,0.0,0.0,0.0,0.0,0.0,0.0,0.0,0.0,0.0,0.0,0.0,0.0,0.0,0.0,0.0,0.0,0.0,0.0,0.0,0.0,0.0,0.0,0.0,0.0,0.0,0.0,0.0,0.0,0.0,0.0,0.0,0.0,0.0,0.0,0.0,0.0,0.0,0.0,0.0,0.0,0.0,0.0,0.0,0.0,0.0,0.0,0.0,0.0,0.0,0.0,0.0,0.0,0.0,0.0,0.0,0.0,0.0,0.0,0.0,0.0,0.0,0.0,0.0,0.0,0.0,0.0,0.0,0.0,0.0,0.0,0.0,0.0,0.0,0.0,0.0,0.0,0.0,0.0,0.0,0.0,0.0,0.0,0.0,0.0,0.0,0.0,0.0,0.0,0.0,0.0,0.0,0.0,0.0,0.0,0.0,0.0,0.0,0.0,0.0,0.0,0.0,0.0,0.0,0.0,0.0,0.0,0.0,0.0,0.0,0.0,0.0,0.0,0.0,0.0,0.0,0.0,0.0,0.0,0.0,0.0,0.0,0.0,0.0,0.0,0.0,0.0,0.0,0.0,0.0,0.0,0.0,0.0,0.0,0.0,0.0,0.0,0.0,0.0,0.0,0.0,0.0,0.0,0.0,0.0,0.0,0.0,0.0,0.0,0.0,0.0,0.0,0.0,0.0,0.0,0.0,0.0,0.0,0.0,0.0,0.0,0.0,0.0,0.0,0.0,0.0,0.0,0.0,0.0,0.0,0.0,0.0,0.0,0.0,0.0,0.0,0.0,0.0,0.0,0.0,0.0,0.0,0.0,0.0,0.0,0.0,0.0,0.0,0.0,0.0,0.0,0.0,0.0,0.0,0.0,0.0,0.0,0.0,0.0,0.0,0.0,0.0,0.0,0.0,0.0,0.0,0.0,0.0,0.0,0.0,0.0,0.0,0.0,0.0,0.0,0.0,0.0,0.0,0.0,0.0,0.0,0.0,0.0,0.0,0.0,0.0,0.0,0.0,0.0,0.0,0.0,0.0,0.0,0.0,0.0,0.0,0.0,0.0,0.0,0.0,0.0,0.0,0.0,0.0,0.0,0.0,0.0,0.0,0.0,0.0,0.0,0.0,0.0,0.0,0.0,0.0,0.0,0.0,0.0,0.0,0.0,0.0,0.0,0.0,0.0,0.0,0.0,0.0,0.0,0.0,0.0,0.0,0.0,0.0,0.0,0.0,0.0,0.0,0.0,0.0,0.0,0.0,0.0,0.0,0.0,0.0,0.0,0.0,0.0,0.0,0.0,0.0,0.0,0.0,0.0,0.0,0.0,0.0,0.0,0.0,0.0,0.0,0.0,0.0,0.0,0.0,0.0,0.0,0.0,0.0,0.0,0.0,0.0,0.0,0.0,0.0,0.0,0.0,0.0,0.0,0.0,0.0,0.0,0.0,0.0,0.0,0.0,0.0,0.0,0.0,0.0,0.0,0.0,0.0,0.0,0.0,0.0,0.0,0.0,0.0,0.0,0.0,0.0,0.0,0.0,0.0,0.0,0.0,0.0,0.0,0.0,0.0,0.0,0.0,0.0,0.0,0.0,0.0,0.0,0.0,0.0,0.0,0.0,0.0,0.0,0.0,0.0,0.0,0.0,0.0,0.0,0.0,0.0,0.0,0.0,0.0,0.0,0.0,0.0,0.0,0.0,0.0,0.0,0.0,0.0,0.0,0.0,0.0,0.0,0.0,0.0,0.0,0.0,0.0,0.0,0.0,0.0,0.0,0.0,0.0,0.0,0.0,0.0,0.0,0.0,0.0,0.0,0.0,0.0,0.0,0.0,0.0,0.0,0.0,0.0,0.0,0.0,0.0,0.0,0.0,0.0,0.0,0.0,0.0,0.0,0.0,0.0,0.0,0.0,0.0,0.0,0.0,0.0,0.0,0.0,0.0,0.0,0.0,0.0,0.0,0.0,0.0,0.0,0.0,0.0,0.0,0.0,0.0,0.0,0.0,0.0,0.0,0.0,0.0,0.0,0.0,0.0,0.0,0.0,0.0,0.0,0.0,0.0,0.0,0.0,0.0,0.0,0.0,0.0,0.0,0.0,0.0,0.0,0.0,0.0,0.0,0.0,0.0,0.0,0.0,0.0,0.0,0.0,0.0,0.0,0.0,0.0,0.0,0.0,0.0,0.0,0.0,0.0,0.0,0.0,0.0,0.0,0.0,0.0,0.0,0.0,0.0,0.0,0.0,0.0,0.0,0.0,0.0,0.0,0.0,0.0,0.0,0.0,0.0,0.0,0.0,0.0,0.0,0.0,0.0,0.0,0.0,0.0,0.0,0.0,0.0,0.0,0.0,0.0,0.0,0.0,0.0,0.0,0.0,0.0,0.0,0.0,0.0,0.0,0.0,0.0,0.0,0.0,0.0,0.0,0.0,0.0,0.0,0.0,0.0,0.0,0.0,0.0,0.0,0.0,0.0,0.0,0.0,0.0,0.0,0.0,0.0,0.0,0.0,0.0,0.0,0.0,0.0,0.0,0.0,0.0,0.0,0.0,0.0,0.0,0.0,0.0,0.0,0.0,0.0,0.0,0.0,0.0,0.0,0.0,0.0,0.0,0.0,0.0,0.0,0.0,0.0,0.0,0.0,0.0,0.0,0.0,0.0,0.0,0.0,0.0,0.0,0.0,0.0,0.0,0.0,0.0,0.0,0.0,0.0,0.0,0.0,0.0,0.0,0.0,0.0,0.0,0.0,0.0,0.0,0.0,0.0,0.0,0.0,0.0,0.0,0.0,0.0,0.0,0.0,0.0,0.0,0.0,0.0,0.0,0.0,0.0,0.0,0.0,0.0,0.0,0.0,0.0,0.0,0.0,0.0,0.0,0.0,0.0,0.0,0.0,0.0,0.0,0.0,0.0,0.0,0.0,0.0,0.0,0.0,0.0,0.0,0.0,0.0,0.0,0.0,0.0,0.0,0.0,0.0,0.0,0.0,0.0,0.0,0.0,0.0,0.0,0.0,0.0,0.0,0.0,0.0,0.0,0.0,0.0,0.0,0.0,0.0,0.0,0.0,0.0,0.0,0.0,0.0,0.0,0.0,0.0,0.0,0.0,0.0,0.0,0.0,0.0,0.0,0.0,0.0,0.0,0.0,0.0,0.0,0.0,0.0,0.0,0.0,0.0,0.0,0.0,0.0,0.0,0.0,0.0,0.0,0.0,0.0,0.0,0.0,0.0,0.0,0.0,0.0,0.0,0.0,0.0,0.0,0.0,0.0,0.0,0.0,0.0,0.0,0.0,0.0,0.0,0.0,0.0,0.0,0.0,0.0,0.0,0.0,0.0,0.0,0.0,0.0,0.0,0.0,0.0,0.0,0.0,0.0,0.0,0.0,0.0,0.0,0.0,0.465,0.0,0.0,0.0,0.0,0.0,0.0,0.0,0.0,0.0,0.0,0.0,0.0,0.0,0.0,0.0,0.0,0.0,0.0,0.0,0.0,0.0,0.0,0.0,0.0,0.0,0.0,0.0,0.0,0.0,0.0,0.0,0.0,0.0,0.0,0.0,0.0,0.0,0.0,0.0,0.0,0.0,0.0,0.0,0.0,0.0,0.0,0.0,0.0,0.0,0.0,0.0,0.0,0.0,0.0,0.0,0.0,0.0,0.0,0.0,0.0,0.0,0.0,0.0,0.0,0.0,0.0,0.0,0.0,0.0,0.0,0.0,0.0,0.0,0.0,0.0,0.0,0.0,0.0,0.0,0.0,0.0,0.0,0.0,0.0,0.0,0.0,0.0,0.0,0.0,0.0,0.0,0.0,0.0,0.0,0.0,0.0,0.0,0.0,0.0,0.0,0.0,0.0,0.0,0.0,0.0,0.0,0.0,0.0,0.0,0.0,0.626,0.6189,0.5993,0.5523,0.47,0.0,0.0,0.0,0.0,0.0,0.0,0.0,0.0,0.0,0.0,0.0,0.0,0.0,0.0,0.0,0.0,0.0,0.0,0.0,0.0,0.0,0.0,0.0,0.0,0.0,0.0,0.0,0.0,0.0,0.0,0.0,0.0,0.0,0.0,0.0,0.0,0.0,0.0,0.0,0.0,0.0,0.0,0.0,0.0,0.0,0.0,0.0,0.0,0.0,0.0,0.0,0.0,0.0,0.0,0.0,0.0,0.0,0.0,0.0,0.0,0.0,0.0,0.0,0.0,0.0,0.0,0.0,0.0,0.0,0.0,0.0,0.0,0.0,0.0,0.0,0.0,0.0,0.0,0.0,0.0,0.0,0.0,0.0,0.0,0.0,0.0,0.0,0.0,0.0,0.0,0.0,0.0,0.0,0.0,0.0,0.0,0.0,0.0,0.0,0.0,0.0,0.0,0.0,0.0,0.0,0.0,0.0,0.0,0.0,0.0,0.0,0.0,0.6612,0.6104,0.5087,0.0,0.0,0.0,0.0,0.0,0.0,0.0,0.0,0.0,0.0,0.0,0.0,0.0,0.0,0.0,0.0,0.0,0.0,0.0,0.0,0.0,0.0,0.0,0.0,0.0,0.0,0.0,0.0,0.0,0.0,0.0,0.0,0.0,0.0,0.0,0.0,0.0,0.0,0.0,0.0,0.0,0.0,0.0,0.0,0.0,0.0,0.0,0.0,0.0,0.0,0.0,0.0,0.0,0.0,0.0,0.0,0.0,0.0,0.0,0.0,0.0,0.0,0.0,0.0,0.0,0.0,0.0,0.0,0.0,0.0,0.0,0.0,0.0,0.0,0.0,0.0,0.0,0.0,0.0,0.0,0.0,0.0,0.0,0.0,0.0,0.0,0.0,0.0,0.0,0.0,0.0,0.0,0.0,0.0,0.0,0.0,0.0,0.0,0.0,0.0,0.0,0.0,0.0,0.0,0.0,0.0,0.0,0.0,0.0,0.0,0.6845,0.8068,0.7864,0.0,0.6182,0.0,0.0,0.0,0.0,0.0,0.0,0.0,0.0,0.0,0.0,0.0,0.0,0.0,0.0,0.0,0.0,0.0,0.0,0.0,0.0,0.0,0.0,0.0,0.0,0.0,0.0,0.0,0.0,0.0,0.0,0.0,0.0,0.0,0.0,0.0,0.0,0.0,0.0,0.0,0.0,0.0,0.0,0.0,0.0,0.0,0.0,0.0,0.0,0.0,0.0,0.0,0.0,0.0,0.0,0.0,0.0,0.0,0.0,0.0,0.0,0.0,0.0,0.0,0.0,0.0,0.0,0.0,0.0,0.0,0.0,0.0,0.0,0.0,0.0,0.0,0.0,0.0,0.0,0.0,0.0,0.0,0.0,0.0,0.0,0.0,0.0,0.0,0.0,0.0,0.0,0.0,0.0,0.0,0.0,0.0,0.0,0.0,0.0,0.0,0.0,0.0,0.0,0.0,0.0,0.0,0.0,0.0,0.0,0.0,0.0,0.0,0.8286,0.7733,0.6995,0.0,0.0,0.0,0.0,0.0,0.0,0.0,0.0,0.0,0.0,0.0,0.0,0.0,0.0,0.0,0.0,0.0,0.0,0.0,0.0,0.0,0.0,0.0,0.0,0.0,0.0,0.0,0.0,0.0,0.0,0.0,0.0,0.0,0.0,0.0,0.0,0.0,0.0,0.0,0.0,0.0,0.0,0.0,0.0,0.0,0.0,0.0,0.0,0.0,0.0,0.0,0.0,0.0,0.0,0.0,0.0,0.0,0.0,0.0,0.0,0.0,0.0,0.0,0.0,0.0,0.0,0.0,0.0,0.0,0.0,0.0,0.0,0.0,0.0,0.0,0.0,0.0,0.0,0.0,0.0,0.0,0.0,0.0,0.0,0.0,0.0,0.0,0.0,0.0,0.0,0.0,0.0,0.0,0.0,0.0,0.0,0.0,0.0,0.0,0.0,0.0,0.0,0.0,0.0,0.0,0.0,0.0,0.0,0.0,0.0,0.8001,0.0,0.8611,0.773,0.6884,0.6129,0.0,0.0,0.0,0.0,0.0,0.0,0.0,0.0,0.0,0.0,0.0,0.0,0.0,0.0,0.0,0.0,0.0,0.0,0.0,0.0,0.0,0.0,0.0,0.0,0.0,0.0,0.0,0.0,0.0,0.0,0.0,0.0,0.0,0.0,0.0,0.0,0.0,0.0,0.0,0.0,0.0,0.0,0.0,0.0,0.0,0.0,0.0,0.0,0.0,0.0,0.0,0.0,0.0,0.0,0.0,0.0,0.0,0.0,0.0,0.0,0.0,0.0,0.0,0.0,0.0,0.0,0.0,0.0,0.0,0.0,0.0,0.0,0.0,0.0,0.0,0.0,0.0,0.0,0.0,0.0,0.0,0.0,0.0,0.0,0.0,0.0,0.0,0.0,0.0,0.0,0.0,0.0,0.0,0.0,0.0,0.0,0.0,0.0,0.0,0.0,0.0,0.0,0.0,0.0,0.0,0.0,0.0,0.0,0.0,0.8979,0.8686,0.947,0.8282,0.7205,0.0,0.0,0.0,0.0,0.0,0.0,0.0,0.0,0.0,0.0,0.0,0.0,0.0,0.0,0.0,0.0,0.0,0.0,0.0,0.0,0.0,0.0,0.0,0.0,0.0,0.0,0.0,0.0,0.0,0.0,0.0,0.0,0.0,0.0,0.0,0.0,0.0,0.0,0.0,0.0,0.0,0.0,0.0,0.0,0.0,0.0,0.0,0.0,0.0,0.0,0.0,0.0,0.0,0.0,0.0,0.0,0.0,0.0,0.0,0.0,0.0,0.0,0.0,0.0,0.0,0.0,0.0,0.0,0.0,0.0,0.0,0.0,0.0,0.0,0.0,0.0,0.0,0.0,0.0,0.0,0.0,0.0,0.0,0.0,0.0,0.0,0.0,0.0,0.0,0.0,0.0,0.0,0.0,0.0,0.0,0.0,0.0,0.0,0.0,0.0,0.0,0.0,0.0,0.0,0.0,0.0,0.0,0.0,0.0,0.7958,0.8022,0.8644,0.9814,0.8084,0.696,0.0,0.0,0.0,0.0,0.0,0.0,0.0,0.0,0.0,0.0,0.0,0.0,0.0,0.0,0.0,0.0,0.0,0.0,0.0,0.0,0.0,0.0,0.0,0.0,0.0,0.0,0.0,0.0,0.0,0.0,0.0,0.0,0.0,0.0,0.0,0.0,0.0,0.0,0.0,0.0,0.0,0.0,0.0,0.0,0.0,0.0,0.0,0.0,0.0,0.0,0.0,0.0,0.0,0.0,0.0,0.0,0.0,0.0,0.0,0.0,0.0,0.0,0.0,0.0,0.0,0.0,0.0,0.0,0.0,0.0,0.0,0.0,0.0,0.0,0.0,0.0,0.0,0.0,0.0,0.0,0.0,0.0,0.0,0.0,0.0,0.0,0.0,0.0,0.0,0.0,0.0,0.0,0.0,0.0,0.0,0.0,0.0,0.0,0.0,0.0,0.0,0.0,0.0,0.0,0.0,0.0,0.0,0.0,0.0,0.7449,0.0,0.9204,0.0,0.7763,0.6548,0.0,0.0,0.0,0.0,0.0,0.0,0.0,0.0,0.0,0.0,0.0,0.0,0.0,0.0,0.0,0.0,0.0,0.0,0.0,0.0,0.0,0.0,0.0,0.0,0.0,0.0,0.0,0.0,0.0,0.0,0.0,0.0,0.0,0.0,0.0,0.0,0.0,0.0,0.0,0.0,0.0,0.0,0.0,0.0,0.0,0.0,0.0,0.0,0.0,0.0,0.0,0.0,0.0,0.0,0.0,0.0,0.0,0.0,0.0,0.0,0.0,0.0,0.0,0.0,0.0,0.0,0.0,0.0,0.0,0.0,0.0,0.0,0.0,0.0,0.0,0.0,0.0,0.0,0.0,0.0,0.0,0.0,0.0,0.0,0.0,0.0,0.0,0.0,0.0,0.0,0.0,0.0,0.0,0.0,0.0,0.0,0.0,0.0,0.0,0.0,0.0,0.0,0.0,0.0,0.0,0.0,0.0,0.0,0.7408,0.9095,1.0567,1.0214,0.8138,0.7308,0.5957,0.0,0.0,0.0,0.0,0.0,0.0,0.0,0.0,0.0,0.0,0.0,0.0,0.0,0.0,0.0,0.0,0.0,0.0,0.0,0.0,0.0,0.0,0.0,0.0,0.0,0.0,0.0,0.0,0.0,0.0,0.0,0.0,0.0,0.0,0.0,0.0,0.0,0.0,0.0,0.0,0.0,0.0,0.0,0.0,0.0,0.0,0.0,0.0,0.0,0.0,0.0,0.0,0.0,0.0,0.0,0.0,0.0,0.0,0.0,0.0,0.0,0.0,0.0,0.0,0.0,0.0,0.0,0.0,0.0,0.0,0.0,0.0,0.0,0.0,0.0,0.0,0.0,0.0,0.0,0.0,0.0,0.0,0.0,0.0,0.0,0.0,0.0,0.0,0.0,0.0,0.0,0.0,0.0,0.0,0.0,0.0,0.0,0.0,0.0,0.0,0.0,0.0,0.0,0.0,0.0,0.0,0.0,0.0,0.0,0.8037,0.8749,0.9228,0.9284,0.7175,0.6132,0.0,0.0,0.0,0.0,0.0,0.0,0.0,0.0,0.0,0.0,0.0,0.0,0.0,0.0,0.0,0.0,0.0,0.0,0.0,0.0,0.0,0.0,0.0,0.0,0.0,0.0,0.0,0.0,0.0,0.0,0.0,0.0,0.0,0.0,0.0,0.0,0.0,0.0,0.0,0.0,0.0,0.0,0.0,0.0,0.0,0.0,0.0,0.0,0.0,0.0,0.0,0.0,0.0,0.0,0.0,0.0,0.0,0.0,0.0,0.0,0.0,0.0,0.0,0.0,0.0,0.0,0.0,0.0,0.0,0.0,0.0,0.0,0.0,0.0,0.0,0.0,0.0,0.0,0.0,0.0,0.0,0.0,0.0,0.0,0.0,0.0,0.0,0.0,0.0,0.0,0.0,0.0,0.0,0.0,0.0,0.0,0.0,0.0,0.0,0.0,0.0,0.0,0.0,0.0,0.0,0.0,0.0,0.0,0.0,0.7798,0.8408,0.8841,0.905,0.7291,0.6349,0.6277,0.0,0.0,0.0,0.0,0.0,0.0,0.0,0.0,0.0,0.0,0.0,0.0,0.0,0.0,0.0,0.0,0.0,0.0,0.0,0.0,0.0,0.0,0.0,0.0,0.0,0.0,0.0,0.0,0.0,0.0,0.0,0.0,0.0,0.0,0.0,0.0,0.0,0.0,0.0,0.0,0.0,0.0,0.0,0.0,0.0,0.0,0.0,0.0,0.0,0.0,0.0,0.0,0.0,0.0,0.0,0.0,0.0,0.0,0.0,0.0,0.0,0.0,0.0,0.0,0.0,0.0,0.0,0.0,0.0,0.0,0.0,0.0,0.0,0.0,0.0,0.0,0.0,0.0,0.0,0.0,0.0,0.0,0.0,0.0,0.0,0.0,0.0,0.0,0.0,0.0,0.0,0.0,0.0,0.0,0.0,0.0,0.0,0.0,0.0,0.0,0.0,0.0,0.0,0.0,0.0,0.0,0.0,0.0,0.8144,0.9161,0.9056,0.7686,0.756,0.6631,0.0,0.0,0.0,0.0,0.0,0.0,0.0,0.0,0.0,0.0,0.0,0.0,0.0,0.0,0.0,0.0,0.0,0.0,0.0,0.0,0.0,0.0,0.0,0.0,0.0,0.0,0.0,0.0,0.0,0.0,0.0,0.0,0.0,0.0,0.0,0.0,0.0,0.0,0.0,0.0,0.0,0.0,0.0,0.0,0.0,0.0,0.0,0.0,0.0,0.0,0.0,0.0,0.0,0.0,0.0,0.0,0.0,0.0,0.0,0.0,0.0,0.0,0.0,0.0,0.0,0.0,0.0,0.0,0.0,0.0,0.0,0.0,0.0,0.0,0.0,0.0,0.0,0.0,0.0,0.0,0.0,0.0,0.0,0.0,0.0,0.0,0.0,0.0,0.0,0.0,0.0,0.0,0.0,0.0,0.0,0.0,0.0,0.0,0.0,0.0,0.0,0.0,0.0,0.0,0.0,0.0,0.0,0.0,0.0,0.7339,0.8239,0.8984,0.9418,0.7976,0.6951,0.0,0.0,0.0,0.0,0.0,0.0,0.0,0.0,0.0,0.0,0.0,0.0,0.0,0.0,0.0,0.0,0.0,0.0,0.0,0.0,0.0,0.0,0.0,0.0,0.0,0.0,0.0,0.0,0.0,0.0,0.0,0.0,0.0,0.0,0.0,0.0,0.0,0.0,0.0,0.0,0.0,0.0,0.0,0.0,0.0,0.0,0.0,0.0,0.0,0.0,0.0,0.0,0.0,0.0,0.0,0.0,0.0,0.0,0.0,0.0,0.0,0.0,0.0,0.0,0.0,0.0,0.0,0.0,0.0,0.0,0.0,0.0,0.0,0.0,0.0,0.0,0.0,0.0,0.0,0.0,0.0,0.0,0.0,0.0,0.0,0.0,0.0,0.0,0.0,0.0,0.0,0.0,0.0,0.0,0.0,0.0,0.0,0.0,0.0,0.0,0.0,0.0,0.0,0.0,0.0,0.0,0.0,0.0,0.6833,0.7395,0.8163,0.8901,0.9587,0.8341,0.7351,0.0,0.0,0.0,0.0,0.0,0.0,0.0,0.0,0.0,0.0,0.0,0.0,0.0,0.0,0.0,0.0,0.0,0.0,0.0,0.0,0.0,0.0,0.0,0.0,0.0,0.0,0.0,0.0,0.0,0.0,0.0,0.0,0.0,0.0,0.0,0.0,0.0,0.0,0.0,0.0,0.0,0.0,0.0,0.0,0.0,0.0,0.0,0.0,0.0,0.0,0.0,0.0,0.0,0.0,0.0,0.0,0.0,0.0,0.0,0.0,0.0,0.0,0.0,0.0,0.0,0.0,0.0,0.0,0.0,0.0,0.0,0.0,0.0,0.0,0.0,0.0,0.0,0.0,0.0,0.0,0.0,0.0,0.0,0.0,0.0,0.0,0.0,0.0,0.0,0.0,0.0,0.0,0.0,0.0,0.0,0.0,0.0,0.0,0.0,0.0,0.0,0.0,0.0,0.0,0.0,0.0,0.0,0.0,0.7088,0.7868,0.8504,0.8804,0.8791,0.8567,0.772,0.0,0.0,0.0,0.0,0.0,0.0,0.0,0.0,0.0,0.0,0.0,0.0,0.0,0.0,0.0,0.0,0.0,0.0,0.0,0.0,0.0,0.0,0.0,0.0,0.0,0.0,0.0,0.0,0.0,0.0,0.0,0.0,0.0,0.0,0.0,0.0,0.0,0.0,0.0,0.0,0.0,0.0,0.0,0.0,0.0,0.0,0.0,0.0,0.0,0.0,0.0,0.0,0.0,0.0,0.0,0.0,0.0,0.0,0.0,0.0,0.0,0.0,0.0,0.0,0.0,0.0,0.0,0.0,0.0,0.0,0.0,0.0,0.0,0.0,0.0,0.0,0.0,0.0,0.0,0.0,0.0,0.0,0.0,0.0,0.0,0.0,0.0,0.0,0.0,0.0,0.0,0.0,0.0,0.0,0.0,0.0,0.0,0.0,0.0,0.0,0.0,0.0,0.0,0.0,0.0,0.0,0.0,0.0,0.7488,0.7875,0.8504,0.8804,0.8804,0.8279,0.7565,0.0,0.0,0.0,0.0,0.0,0.0,0.0,0.0,0.0,0.0,0.0,0.0,0.0,0.0,0.0,0.0,0.0,0.0,0.0,0.0,0.0,0.0,0.0,0.0,0.0,0.0,0.0,0.0,0.0,0.0,0.0,0.0,0.0,0.0,0.0,0.0,0.0,0.0,0.0,0.0,0.0,0.0,0.0,0.0,0.0,0.0,0.0,0.0,0.9478,0.0,0.0,0.0,0.0,0.0,0.0,0.0,0.0,0.0,0.0,0.0,0.0,0.0,0.0,0.0,0.0,0.0,0.0,0.0,0.0,0.0,0.0,0.0,0.0,0.0,0.0,0.0,0.0,0.0,0.0,0.0,0.0,0.0,0.0,0.0,0.0,0.0,0.0,0.0,0.0,0.0,0.0,0.0,0.0,0.0,0.0,0.0,0.0,0.0,0.0,0.0,0.0,0.0,0.0,0.0,0.0,0.0,0.0,0.0,0.7859,0.8545,0.8724,0.8962,0.9249,0.865,0.7856,0.0,0.0,0.0,0.0,0.0,0.0,0.0,0.0,0.0,0.0,0.0,0.0,0.0,0.0,0.0,0.0,0.0,0.0,0.0,0.0,0.0,0.0,0.0,0.0,0.0,0.0,0.0,0.0,0.0,0.0,0.0,0.0,0.0,0.0,0.0,0.0,0.0,0.0,0.0,0.0,0.0,0.0,0.0,0.0,0.0,0.0,0.0,0.0,0.0,0.0,0.0,0.0,0.0,0.0,0.0,0.0,0.0,0.0,0.0,0.0,0.0,0.0,0.0,0.0,0.0,0.0,0.0,0.0,0.0,0.0,0.0,0.0,0.0,0.0,0.0,0.0,0.0,0.0,0.0,0.0,0.0,0.0,0.0,0.0,0.0,0.0,0.0,0.0,0.0,0.0,0.0,0.0,0.0,0.0,0.0,0.0,0.0,0.0,0.0,0.0,0.0,0.0,0.0,0.0,0.0,0.0,0.0,0.7183,0.8233,0.938,0.9123,0.9211,0.9762,0.9159,0.8243,0.7074,0.0,0.0,0.0,0.0,0.0,0.0,0.0,0.0,0.0,0.0,0.0,0.0,0.0,0.0,0.0,0.0,0.0,0.0,0.0,0.0,0.0,0.0,0.0,0.0,0.0,0.0,0.0,0.0,0.0,0.0,0.0,0.0,0.0,0.0,0.0,0.0,0.0,0.0,1.1197,1.2265,0.0,0.0,0.0,0.0,0.0,0.0,0.0,0.0,0.6886,0.0,0.0,0.0,0.0,0.0,0.0,0.0,0.0,0.0,0.0,0.0,0.0,0.0,0.0,0.0,0.0,0.0,0.0,0.0,0.0,0.0,0.0,0.0,0.0,0.0,0.0,0.0,0.0,0.0,0.0,0.0,0.0,0.0,0.0,0.0,0.0,0.0,0.0,0.0,0.0,0.0,0.0,0.0,0.0,0.0,0.0,0.0,0.0,0.0,0.0,0.0,0.0,0.0,0.0,0.0,0.0,0.6828,0.7845,0.8805,0.9709,0.9688,0.9658,0.9762,0.9159,0.8243,0.7081,0.0,0.0,0.0,0.0,0.0,0.0,0.0,0.0,0.0,0.0,0.0,0.0,0.0,0.0,0.0,0.0,0.0,0.0,0.0,0.0,0.0,0.0,0.0,0.0,0.0,0.0,0.0,0.0,0.0,0.0,0.0,0.0,0.0,0.0,0.0,0.0,0.0,0.0,0.0,1.2787,1.3355,0.0,0.0,0.0,0.0,0.0,0.0,0.0,0.0,0.4573,0.0,0.0,0.0,0.0,0.0,0.0,0.0,0.0,0.0,0.0,0.0,0.0,0.0,0.0,0.0,0.0,0.0,0.0,0.0,0.0,0.0,0.0,0.0,0.0,0.0,0.0,0.0,0.0,0.0,0.0,0.0,0.0,0.0,0.0,0.0,0.0,0.0,0.0,0.0,0.0,0.0,0.0,0.0,0.0,0.0,0.0,0.0,0.0,0.0,0.0,0.0,0.0,0.0,0.0,0.0,0.7277,0.7873,0.8721,0.9732,0.9458,0.9465,0.9762,0.8853,0.7936,0.0,0.0,0.0,0.0,0.0,0.0,0.0,0.0,0.0,0.0,0.0,0.0,0.0,0.0,0.0,0.0,0.0,0.0,0.0,0.0,0.0,0.0,0.0,0.0,0.0,0.0,0.0,0.0,0.0,0.0,0.0,0.0,0.0,0.0,0.0,0.0,0.0,0.0,0.0,0.0,1.3001,1.3159,1.2422,0.0,0.0,0.0,0.0,0.0,0.0,0.2689,0.2332,0.0,0.0,0.0,0.0,0.0,0.0,0.0,0.0,0.0,0.0,0.0,0.0,0.0,0.0,0.0,0.0,0.0,0.0,0.0,0.0,0.0,0.0,0.0,0.0,0.0,0.0,0.0,0.0,0.0,0.0,0.0,0.0,0.0,0.0,0.0,0.0,0.0,0.0,0.0,0.0,0.0,0.0,0.0,0.0,0.0,0.0,0.0,0.0,0.0,0.0,0.0,0.0,0.0,0.0,0.0,0.7471,0.785,0.8622,0.9725,0.9263,0.9263,0.9755,0.863,0.7709,0.0,0.0,0.0,0.0,0.0,0.0,0.0,0.0,0.0,0.0,0.0,0.0,0.0,0.0,0.0,0.0,0.0,0.0,0.0,0.0,0.0,0.0,0.0,0.0,0.0,0.0,0.0,0.0,0.0,0.0,0.0,0.0,0.0,0.0,0.0,0.0,0.0,0.0,0.0,0.0,0.0,1.2937,1.1544,1.0147,0.0,0.0,0.0,0.0,0.0881,0.021,0.0,0.0,0.0,0.0,0.0,0.0,0.0,0.0,0.0,0.0,0.0,0.0,0.0,0.0,0.0,0.0,0.0,0.0,0.0,0.0,0.0,0.0,0.0,0.0,0.0,0.0,0.0,0.0,0.0,0.0,0.0,0.0,0.0,0.0,0.0,0.0,0.0,0.0,0.0,0.0,0.0,0.0,0.0,0.0,0.0,0.0,0.0,0.0,0.0,0.0,0.0,0.0,0.0,0.0,0.0,0.0,0.724,0.8007,0.8872,0.9761,0.971,0.9718,0.9762,0.8832,0.8058,0.0,0.0,0.0,0.0,0.0,0.0,0.0,0.0,0.0,0.0,0.0,0.0,0.0,0.0,0.0,0.0,0.0,0.0,0.0,0.0,0.0,0.0,0.0,0.0,0.0,0.0,0.0,0.0,0.0,0.0,0.0,0.0,0.0,0.0,0.0,0.0,0.0,0.0,0.0,0.0,0.0,1.2659,1.0117,0.8261,0.6072,0.0,0.0,-0.168,-0.2591,-0.1813,0.0,0.0,0.0,0.0,0.0,0.0,0.0,0.0,0.0,0.0,0.0,0.0,0.0,0.0,0.0,0.0,0.0,0.0,0.0,0.0,0.0,0.0,0.0,0.0,0.0,0.0,0.0,0.0,0.0,0.0,0.0,0.0,0.0,0.0,0.0,0.0,0.0,0.0,0.0,0.0,0.0,0.0,0.0,0.0,0.0,0.0,0.0,0.0,0.0,0.0,0.0,0.0,0.0,0.0,0.0,0.6877,0.7809,0.834,0.8831,0.9228,0.9211,0.9211,0.9256,0.8386,0.7702,0.0,0.0,0.0,0.0,0.0,0.0,0.0,0.0,0.0,0.0,0.0,0.0,0.0,0.0,0.0,0.0,0.0,0.0,0.0,0.0,0.0,0.0,0.0,0.0,0.0,0.0,0.0,0.0,0.0,0.0,0.0,0.0,0.0,0.0,0.0,0.0,0.0,0.0,0.0,0.0,0.0,0.0,0.8068,0.6658,0.0,0.0,0.0,-0.3131,-0.4139,0.0,0.0,0.0,0.0,0.0,0.0,0.0,0.0,0.0,0.0,0.0,0.0,0.0,0.0,0.0,0.0,0.0,0.0,0.0,0.0,0.0,0.0,0.0,0.0,0.0,0.0,0.0,0.0,0.0,0.0,0.0,0.0,0.0,0.0,0.0,0.0,0.0,0.0,0.0,0.0,0.0,0.0,0.0,0.0,0.0,0.0,0.0,0.0,0.0,0.0,0.0,0.0,0.0,0.0,0.0,0.0,0.0,0.8085,0.8513,0.8734,0.8778,0.8804,0.8857,0.9047,0.8242,0.0,0.0,0.0,0.0,0.0,0.0,0.0,0.0,0.0,0.0,0.0,0.0,0.0,0.0,0.0,0.0,0.0,0.0,0.0,0.0,0.0,0.0,0.0,0.0,0.0,0.0,0.0,0.7173,0.0,0.0,0.0,0.0,0.0,0.0,0.0,0.0,0.0,0.0,0.0,0.0,0.0,0.0,0.9559,0.5858,0.4836,0.3409,0.0,0.0,-0.3554,-0.4758,-0.3229,-0.1229,0.0,0.0,0.0,0.0,0.0,0.0,0.0,0.0,0.0,0.0,0.0,0.0,0.0,0.0,0.0,0.0,0.0,0.0,0.0,0.0,0.0,0.0,0.0,0.0,0.0,0.0,0.0,0.0,0.0,0.0,0.0,0.0,0.0,0.0,0.0,0.0,0.0,0.0,0.0,0.0,0.0,0.0,0.0,0.0,0.0,0.0,0.0,0.0,0.0,0.0,0.0,0.0,0.0,0.0,0.0,0.7625,0.8356,0.8727,0.8778,0.8804,0.9106,0.9703,0.9011,0.8568,0.0,0.0,0.0,0.0,0.0,0.0,0.0,0.0,0.0,0.0,0.0,0.0,0.0,0.0,0.0,0.0,0.0,0.0,0.0,0.0,0.0,0.0,0.0,0.0,0.0,0.0,0.0,0.0,0.0,0.0,0.0,0.0,0.0,0.0,0.0,0.0,0.0,0.0,0.0,0.0,0.0,0.7607,0.366,0.27,0.1593,0.0,0.0,-0.2802,-0.4203,-0.2062,0.0159,0.1169,0.0,0.0,0.0,0.0,0.0,0.0,0.0,0.0,0.0,0.0,0.0,0.0,0.0,0.0,0.0,0.0,0.0,0.0,0.0,0.0,0.0,0.0,0.0,0.0,0.0,0.0,0.0,0.0,0.0,0.0,0.0,0.0,0.0,0.0,0.0,0.0,0.0,0.0,0.0,0.0,0.0,0.0,0.0,0.0,0.0,0.0,0.0,0.0,0.0,0.0,0.0,0.0,0.0,0.6794,0.7347,0.8625,0.9149,0.883,0.9211,0.9361,0.9152,0.8895,0.8459,0.0,0.0,0.0,0.0,0.0,0.0,0.0,0.0,0.0,0.0,0.0,0.0,0.0,0.0,0.0,0.0,0.0,0.0,0.0,0.0,0.0,0.0,0.0,0.0,0.0,0.0,0.0,0.0,0.8229,0.8463,0.8681,0.0,0.0,0.0,0.0,0.0,0.0,0.0,0.0,0.0,0.0,0.6667,0.4224,0.2923,0.0,0.0,-0.116,-0.2373,-0.2966,-0.148,0.0253,0.1742,0.4122,0.0,0.0,0.0,0.0,0.0,0.0,0.0,0.0,0.0,0.0,0.0,0.0,0.0,0.0,0.0,0.0,0.0,0.0,0.0,0.0,0.0,0.0,0.0,0.0,0.0,0.0,0.0,0.0,0.0,0.0,0.0,0.0,0.0,0.0,0.0,0.0,0.0,0.0,0.0,0.0,0.0,0.0,0.0,0.0,0.0,0.0,0.0,0.0,0.0,0.0,0.0,0.0,0.6628,0.7146,0.8625,0.9197,0.8798,0.9465,0.9666,0.9392,0.9323,0.8981,0.0,0.0,0.0,0.0,0.0,0.0,0.0,0.0,0.0,0.0,0.0,0.0,0.0,0.0,0.0,0.0,0.0,0.0,0.0,0.0,0.0,0.0,0.0,0.0,0.0,0.0,0.0,0.0,0.8121,0.8306,0.8563,0.0,0.0,0.0,0.0,0.0,0.0,0.0,0.0,0.0,0.0,0.6135,0.4416,0.3224,0.2112,0.0943,-0.0333,-0.1384,-0.1822,-0.0794,0.0406,0.138,0.0,0.0,0.0,0.0,0.0,0.0,0.0,0.0,0.0,0.0,0.0,0.0,0.0,0.0,0.0,0.0,0.0,0.0,0.0,0.0,0.0,0.0,0.0,0.0,0.0,0.0,0.0,0.5774,0.0,0.0,0.5522,0.0,0.0,0.0,0.0,0.0,0.0,0.0,0.0,0.0,0.0,0.0,0.0,0.0,0.0,0.0,0.0,0.0,0.0,0.0,0.0,0.0,0.0,0.6394,0.6998,0.8158,0.8734,0.8837,0.9458,1.0072,1.0653,1.0599,1.0453,1.0186,0.0,0.0,0.0,0.0,0.0,0.0,0.0,0.0,0.0,0.0,0.0,0.0,0.0,0.0,0.0,0.0,0.0,0.0,0.0,0.0,0.0,0.0,0.0,0.0,0.0,0.0,0.8061,0.7924,0.7951,0.0,0.0,0.0,0.0,0.0,0.0,0.0,0.0,0.0,0.0,0.8124,0.6088,0.3736,0.3319,0.2434,0.0333,0.0557,0.0447,-0.0949,0.0056,0.0713,0.0,0.0,0.0,0.0,0.0,0.0,0.0,0.0,0.0,0.0,0.0,0.0,0.0,0.0,0.0,0.0,0.0,0.0,0.0,0.0,0.0,0.0,0.0,0.0,0.0,0.0,0.0,0.7334,0.74,0.0,0.0,0.0,0.0,0.0,0.0,0.0,0.0,0.0,0.0,0.0,1.0642,1.0909,0.0,0.0,0.0,0.0,0.0,0.0,0.0,0.0,0.0,0.0,0.0,0.0,0.5949,0.6772,0.8129,0.8825,0.8778,0.9465,0.971,0.9458,1.0019,1.0162,0.9845,0.0,0.0,0.0,0.0,0.0,0.0,0.0,0.0,0.0,0.0,0.0,0.0,0.0,0.0,0.0,0.0,0.0,0.0,0.0,0.0,0.0,0.0,0.0,0.0,0.0,0.8189,0.0,0.0,0.0,0.0,0.0,0.0,0.0,0.0,0.0,0.0,0.0,1.2449,1.0664,0.8306,0.626,0.4969,0.3471,0.198,0.0,0.0,0.0,0.0,0.0,0.0,0.0,0.0,0.0,0.0,0.0,0.0,0.0,0.0,0.6549,0.7209,0.7488,0.7085,0.5351,0.0,0.0,0.0,0.0,0.0,0.0,0.0,0.0,0.0,0.0,0.0,0.0,0.0,0.0,0.9021,0.0,0.8847,0.0,0.0,0.0,0.0,0.0,0.0,0.0,0.0,1.1459,1.1744,1.1703,1.2047,1.1768,0.0,1.0644,0.9557,0.0,0.0,0.0,0.0,0.0,0.0,0.0,0.0,0.5721,0.674,0.7804,0.8488,0.883,0.9458,0.9562,0.9211,0.9841,0.9981,0.9526,0.881,0.801,0.0,0.0,0.0,0.0,0.0,0.0,0.0,0.0,0.0,0.0,0.0,0.0,0.0,0.0,0.0,0.0,0.0,0.0,0.0,0.0,0.0,0.0,0.0,0.8378,0.0,0.0,0.0,0.0,0.0,0.0,0.0,0.0,0.0,1.5972,1.4837,1.3656,1.2012,0.9235,0.694,0.6,0.0,0.0,0.0,0.0,0.0,0.0,0.0,-0.4872,-0.5526,-0.5233,-0.4468,-0.3311,0.0255,0.3403,0.4888,0.0,0.0,0.6368,0.6157,0.5405,0.4188,0.3852,0.322,0.1557,0.1063,0.108,0.0,0.0,0.0,0.0,0.0,0.0,0.0,0.0,1.0812,1.081,0.0,1.1023,0.0,0.0,0.0,0.0,0.0,1.1406,0.0,0.0,1.2798,1.3211,1.22,1.218,1.1846,1.1255,1.1798,1.1003,0.8931,0.7627,0.0,0.0,0.0,0.0,0.0,0.0,0.5751,0.691,0.7169,0.7723,0.8685,0.9354,0.9762,0.9806,1.0032,0.9889,0.9354,0.9091,0.8586,0.7723,0.71,0.0,0.0,0.0,0.0,0.0,0.0,0.0,0.0,0.0,0.0,0.0,0.0,0.0,0.0,0.0,0.0,0.0,0.0,0.0,0.0,0.7827,0.0,0.0,0.0,0.0,0.0,0.0,0.0,0.0,0.0,0.0,1.7447,1.6765,1.5899,1.3954,0.0,0.0,0.0,0.0,0.2617,-0.1948,-0.2799,-0.4071,-0.7228,-0.8415,-0.9238,-1.0157,0.0,0.0,-0.3203,-0.0429,0.2139,0.479,0.4915,0.4963,0.6308,0.4295,0.2534,0.2916,0.2345,0.11,-0.074,-0.1128,-0.11,1.117,0.0,0.0,0.0,0.0,1.0714,1.1148,1.2191,1.237,1.2152,1.1674,1.185,0.0,0.0,0.0,0.0,0.0,0.0,1.1943,1.2348,1.2569,1.2386,1.1905,1.1905,1.1563,1.0954,1.0845,1.0423,0.9815,0.8719,0.7725,0.6815,0.0,0.0,0.0,0.0,0.5895,0.6127,0.6386,0.6722,0.723,0.7925,0.8771,0.9762,0.96,0.9627,0.9914,0.9106,0.837,0.7792,0.693,0.0,0.0,0.0,0.0,0.0,0.0,0.0,0.0,0.0,0.0,0.0,0.0,0.0,0.0,0.0,0.0,0.0,0.0,0.0,0.856,0.8432,0.8931,0.0,0.0,0.0,0.0,0.0,0.0,0.0,0.0,0.0,1.8988,1.7969,1.6526,0.0,0.0,0.8143,0.6694,0.3896,0.0629,-0.283,-0.537,0.0,0.0,-1.1354,-1.2289,-1.3652,-1.0814,-0.7181,-0.3575,0.0228,0.3244,0.4643,0.547,0.6018,0.5845,0.3956,0.2182,0.1744,0.1037,0.0,-0.1537,-0.2323,-0.2504,1.1436,1.1172,1.0325,1.0643,1.1628,1.1549,1.2026,1.2935,1.3596,1.3674,1.332,1.3595,1.3116,1.2149,1.1911,0.0,0.0,0.0,1.2187,1.2676,1.1996,1.1695,1.1805,1.1516,1.1065,1.0407,1.0449,1.0154,0.9665,0.932,0.8309,0.6809,0.0,0.0,0.5826,0.5856,0.5884,0.5868,0.588,0.6125,0.6583,0.7015,0.7658,0.8495,0.8281,0.8538,0.9298,0.8558,0.8146,0.8095,0.7201,0.6634,0.0,0.0,0.0,0.0,0.0,0.0,0.0,0.0,0.0,0.0,0.0,0.7614,0.7306,0.0,0.0,0.0,0.7946,0.8688,0.9937,0.9961,0.0,0.0,0.0,0.0,0.0,0.0,0.0,2.0122,2.1534,2.1697,1.9977,1.8594,1.6752,1.4019,1.0821,0.8105,0.6328,0.0,0.0297,-0.3299,-0.5743,-0.8038,-1.043,-1.2329,-1.3408,-1.3027,-0.9658,-0.5458,-0.1404,0.2056,0.4581,0.5897,0.6446,0.6571,0.6401,0.4262,0.2023,0.0864,-0.0171,-0.1363,-0.2899,-0.3583,-0.375,1.144,1.1671,1.1639,1.1688,1.1783,1.252,1.2859,1.3023,1.4473,1.5091,1.5081,1.5669,1.5367,1.4323,1.3799,0.0,1.2342,1.2404,1.2377,1.2211,1.1242,1.1108,1.166,1.1032,1.0364,0.9658,1.0261,0.9902,0.8692,0.9242,0.8579,0.6844,0.7232,0.7251,0.6781,0.6118,0.5812,0.5784,0.5556,0.576,0.648,0.6421,0.6475,0.6588,0.6568,0.7034,0.7967,0.7708,0.777,0.8379,0.773,0.7176,0.688,0.0,0.0,0.0,0.0,0.0,0.0,0.0,0.0,0.0,0.0,0.0,0.0,0.0,0.0,0.0,0.9449,0.0,1.148,1.1934,0.0,0.0,0.0,1.3857,1.5553,1.7639,1.9588,2.1207,0.0,0.0,2.0512,1.8775,1.669,1.4025,1.0892,0.8098,0.5858,0.3771,0.1054,-0.2787,-0.4222,-0.567,-0.7968,-1.0603,-1.1328,-0.8778,-0.6234,-0.2276,0.2363,0.4841,0.6679,0.8246,0.7687,0.6911,0.726,0.4901,0.2347,0.0552,-0.1019,-0.253,-0.3882,-0.4354,-0.4465,1.1386,1.1435,1.1262,1.1359,1.1727,1.2006,1.241,1.3032,1.4493,1.4829,1.4397,1.5018,1.4572,1.3255,1.3115,1.2618,1.1847,1.1894,1.1889,1.1809,1.1399,1.0971,1.0653,1.0239,0.9392,0.8249,0.8343,0.7972,0.7182,0.7283,0.7116,0.6691,0.6738,0.6297,0.5306,0.5479,0.5321,0.4834,0.4765,0.5058,0.5706,0.5202,0.5479,0.6588,0.6528,0.6772,0.7431,0.708,0.7135,0.7699,0.7125,0.6757,0.6672,0.5801,0.0,0.0,0.0,0.0,0.0,0.0,0.0,0.0,0.0,0.9372,0.8371,0.0,1.0144,0.0,1.092,1.161,1.2155,1.2015,0.0,0.0,1.3435,1.3976,1.6476,1.768,1.9132,2.1288,2.1756,2.1475,2.0368,1.8711,1.6541,1.3636,1.0732,0.8409,0.6928,0.4288,0.1968,0.0321,-0.0696,-0.1845,-0.349,-0.4426,-0.4187,-0.1468,0.1374,0.426,0.6952,0.9225,1.0501,0.9854,0.9336,0.8607,0.766,0.5966,0.3908,0.156,-0.0252,-0.1642,-0.2613,-0.3339,-0.3887,1.143,1.1416,1.1256,1.1337,1.1569,1.1755,1.2265,1.3041,1.4166,1.4678,1.4687,1.4884,1.4295,1.3238,1.3191,1.2547,1.1456,1.1514,1.1514,1.1383,1.0834,1.0324,0.9795,0.9308,0.8416,0.7187,0.6886,0.6504,0.6122,0.5792,0.5625,0.5588,0.5303,0.479,0.4151,0.5014,0.5164,0.4515,0.4125,0.4174,0.4498,0.4161,0.4326,0.5156,0.5445,0.5829,0.6411,0.6072,0.6209,0.7006,0.6354,0.6102,0.6433,0.5504,0.5178,0.0,0.0,0.0,0.0,0.0,0.0,0.0,0.0,0.0,0.0,0.0,1.1445,1.1445,1.2329,1.2966,1.3082,1.3338,1.3678,1.4086,1.3853,1.4411,1.6191,1.7505,1.8988,2.074,2.114,2.1006,2.0237,1.85,1.6426,1.3967,1.1477,0.908,0.7115,0.5234,0.3895,0.2694,0.2383,0.1974,0.0976,0.1627,0.2794,0.4728,0.6923,0.902,1.0667,1.1835,1.2217,1.1088,1.0424,0.9575,0.8043,0.6448,0.474,0.299,0.1499,-0.0064,-0.1885,-0.244,-0.2806,1.1536,1.153,1.1496,1.1483,1.1512,1.1646,1.2243,1.3075,1.3863,1.4569,1.5206,1.4792,1.4109,1.3411,1.3353,1.2522,1.1046,1.1166,1.1166,1.0972,1.0155,0.9522,0.9125,0.8496,0.7583,0.6334,0.5727,0.5206,0.4925,0.4293,0.3966,0.3926,0.3319,0.3051,0.3231,0.444,0.4776,0.4236,0.34,0.3065,0.3234,0.3176,0.3231,0.3398,0.4091,0.4663,0.5199,0.5014,0.5371,0.6378,0.5647,0.546,0.6132,0.5154,0.4923,0.0,0.532,0.0,0.0,0.0,0.0,0.0,0.0,0.0,0.0,1.2391,1.2735,1.2498,1.3649,1.4336,1.4217,1.4986,1.505,1.405,1.4236,1.4709,1.5377,1.7075,1.8761,2.0149,2.0698,2.0811,2.0437,1.8505,1.6515,1.4616,1.262,1.022,0.7379,0.663,0.6017,0.4815,0.5754,0.6838,0.682,0.8106,0.9655,1.0773,1.2044,1.3111,1.427,1.3974,1.3202,1.2189,1.143,1.0283,0.8366,0.6601,0.5156,0.4015,0.3336,0.1917,-0.0908,-0.1545,-0.2239,1.2138,1.2111,1.1884,1.1784,1.175,1.1608,1.216,1.3359,1.3978,1.4273,1.4382,1.3656,1.2901,1.2165,1.2165,1.1628,1.0718,1.0718,1.0711,1.0711,1.0228,0.9627,0.8878,0.8498,0.7193,0.5144,0.4901,0.3855,0.1899,0.1793,0.1715,0.1717,0.1605,0.1831,0.2397,0.0,0.0,0.0,0.1896,0.1842,0.2397,0.2454,0.2732,0.3398,0.3859,0.0,0.4952,0.483,0.5041,0.5641,0.5515,0.0,0.0,0.0,0.0,0.0,0.0,0.0,0.0,0.0,0.0,0.0,1.1399,1.213,1.2282,1.3986,1.4497,1.3177,1.4851,1.5865,1.5417,1.5057,1.4789,1.4571,1.3752,1.3652,1.4729,1.5997,1.7777,2.0573,2.0845,2.099,2.1316,1.9633,1.7255,1.476,1.3392,1.1637,0.9035,0.7762,0.7613,0.8986,1.1193,1.3584,1.4883,1.5987,1.7093,1.8719,1.8819,1.8621,1.8152,1.7224,1.5591,1.3339,1.2653,1.1423,0.8608,0.6567,0.5186,0.4212,0.4486,0.4008,0.1196,-0.0397,-0.1717,1.2305,0.0,1.2144,1.2084,0.0,1.2249,1.2976,1.3901,1.3424,1.3342,1.3554,1.3183,1.2765,1.2389,1.2389,1.1965,1.1163,1.1163,1.0989,1.0618,1.0408,0.9618,0.8231,0.7674,0.628,0.416,0.2883,0.1714,0.0583,-0.0287,-0.0451,0.0,-0.0333,0.0,0.1058,0.1117,0.1452,0.2176,0.1452,0.1284,0.1675,0.2007,0.2399,0.2841,0.0,0.0,0.0,0.0,0.0,0.0,0.0,0.0,0.0,0.0,0.0,0.4219,0.4027,0.4582,0.6137,0.7325,0.8911,1.0995,1.2992,1.4114,1.4037,1.5053,1.5567,1.5254,1.6032,1.6396,1.6053,1.5269,1.4649,1.454,1.3746,1.3799,1.5311,1.6846,1.8733,2.0999,2.1729,2.1898,2.1744,1.9508,1.7054,1.4619,1.2794,1.119,0.9703,0.9046,0.957,1.1464,1.4028,1.6297,1.7844,1.9737,2.1104,2.1825,2.1732,2.0941,1.9674,1.7787,1.5618,1.3391,1.1926,1.0314,0.9064,0.7353,0.6048,0.5529,0.5738,0.514,0.2608,0.0934,-0.0995,1.2305,1.2305,1.2445,1.2519,1.2572,1.3319,1.3994,1.444,0.0,0.0,0.0,1.3199,1.3096,1.2854,1.3038,1.2691,1.202,1.1826,1.1469,1.0807,1.0491,0.9466,0.7741,0.6715,0.5133,0.3115,0.0929,-0.0304,-0.0708,-0.2055,-0.2303,-0.1615,-0.2115,-0.167,-0.0278,-0.0056,0.0615,0.173,0.134,0.1174,0.1284,0.1896,0.2176,0.2176,0.2828,0.3059,0.2922,0.2711,0.2583,0.2564,0.2583,0.2576,0.2546,0.1955,0.2156,0.3331,0.3602,0.4492,0.6396,0.7726,0.9444,1.1645,1.4205,1.5666,1.5666,1.5749,1.6214,1.7053,1.6752,1.6497,1.6519,1.5626,1.4931,1.479,1.4295,1.4683,1.639,1.8183,2.0125,2.1944,2.2796,2.286,2.1964,1.937,1.6647,1.435,1.2112,1.0186,0.9588,0.9913,1.0982,1.2842,1.4713,1.6643,1.8448,2.0384,2.2144,2.2457,2.2415,2.1657,1.9674,1.7201,1.4994,1.3287,1.0912,0.9728,0.9274,0.8226,0.7316,0.6981,0.678,0.5986,0.3535,0.1933,-0.0463,1.2305,1.2378,1.3164,1.3528,1.3593,1.4546,1.4837,1.4722,1.4898,1.4616,1.3933,1.4063,1.3429,1.2375,1.3139,1.3227,1.2765,1.2143,1.1772,1.1531,1.0155,0.8918,0.7911,0.627,0.4153,0.1709,0.0514,-0.1064,-0.2926,-0.3325,-0.3342,-0.3132,-0.3176,-0.2452,-0.1004,-0.0334,0.0112,0.0336,0.0839,0.1396,0.2007,0.212,0.2176,0.2173,0.2226,0.219,0.2126,0.2126,0.2116,0.2094,0.2084,0.2082,0.2089,0.1866,0.1887,0.2107,0.2661,0.3749,0.5442,0.6812,0.9238,1.3006,1.4766,1.5612,1.5612,1.6083,1.6409,1.6519,1.6527,1.671,1.7034,1.6552,1.608,1.6115,1.6026,1.6546,1.782,1.9067,2.0927,2.3685,2.3648,2.3274,2.2662,2.0054,1.6937,1.4415,1.1751,1.0123,0.953,0.9983,1.138,1.3266,1.4669,1.6269,1.8177,1.975,2.1138,2.2357,2.2006,2.1152,1.9548,1.7441,1.5321,1.3347,1.1981,1.0926,0.9716,0.893,0.8345,0.7892,0.7307,0.6117,0.3992,0.1658,-0.0992,1.2592,1.3098,1.3528,1.4027,1.4593,1.5579,1.62,1.651,1.674,1.5858,1.4353,1.4768,1.4903,1.4764,1.5284,1.5219,1.4647,1.3519,1.2334,1.0996,0.9342,0.7807,0.6441,0.4719,0.2727,0.0599,-0.079,-0.2259,-0.3643,-0.4088,-0.4203,-0.4074,-0.3602,-0.3005,-0.2277,-0.1169,-0.0223,0.0615,0.1284,0.1675,0.1619,0.2007,0.2176,0.2174,0.1759,0.1529,0.153,0.1148,0.0922,0.0905,0.0371,0.0318,0.085,0.047,0.0574,0.1331,0.1758,0.2777,0.4691,0.7572,1.0368,1.3012,1.4687,1.5576,1.5576,1.6139,1.674,1.7231,1.6854,1.6837,1.7598,1.6936,1.6526,1.6777,1.7032,1.7831,1.9279,2.0757,2.2515,2.4556,2.434,2.3477,2.2562,1.9326,1.604,1.3212,1.0705,0.9046,0.8689,0.9338,1.0688,1.2907,1.4141,1.5595,1.7673,1.9172,2.0215,2.0903,2.0735,2.0002,1.857,1.6618,1.4742,1.3218,1.1779,1.0667,0.9913,0.9454,0.9,0.8742,0.8027,0.6498,0.3767,-0.059,-0.5127,1.3171,1.4027,1.4235,1.4879,1.5869,1.6576,1.7354,1.8008,1.7998,1.6938,1.5371,1.5863,1.6443,1.6868,1.7052,1.6736,1.5939,1.4336,1.234,1.0134,0.8217,0.6481,0.492,0.299,0.1198,-0.0334,-0.2138,-0.3364,-0.4102,-0.464,-0.4931,-0.4865,-0.4023,-0.3558,-0.3484,-0.1946,-0.0558,0.0559,0.1675,0.1896,0.1396,0.1786,0.1952,0.1896,0.1228,0.0839,0.0839,0.028,-0.0055,-0.027,-0.0968,-0.1128,-0.0591,-0.1021,-0.0814,0.0222,0.0502,0.1666,0.4078,0.7918,1.0831,1.2231,1.4207,1.5454,1.5632,1.6151,1.6879,1.7666,1.7034,1.6931,1.7771,1.7371,1.7002,1.7484,1.8128,1.9207,2.0777,2.2275,2.3744,2.5019,2.4312,2.2755,2.0667,1.7548,1.4057,1.0993,0.9018,0.8086,0.8086,0.8877,1.0485,1.232,1.3518,1.4735,1.6892,1.8197,1.8919,1.9141,1.9052,1.8319,1.7049,1.5234,1.3707,1.2679,1.1087,1.0288,1.0611,1.0415,1.0028,0.9831,0.8907,0.6371,0.1298,-0.4182,-0.9313,1.4171,1.5163,1.593,1.6862,1.7657,1.7794,1.793,1.8008,1.8008,1.792,1.7562,1.7746,1.7512,1.7139,1.6914,1.6562,1.5858,1.3172,1.0967,0.9058,0.6664,0.5051,0.3855,0.1465,-0.0267,-0.1333,-0.2939,-0.4093,-0.4826,-0.4985,-0.5269,-0.5558,-0.4811,-0.4398,-0.4094,-0.2213,-0.1056,-0.0838,0.1171,0.2176,0.2065,0.1507,0.1174,0.1174,0.0503,0.0112,0.0,0.0056,-0.028,-0.0947,-0.1112,-0.1445,-0.1887,-0.2054,-0.2057,-0.184,-0.1223,0.0331,0.3289,0.6797,0.9424,1.0872,1.3324,1.5005,1.5543,1.6151,1.671,1.7146,1.6837,1.7012,1.8047,1.8015,1.8124,1.8733,1.9757,2.1019,2.2115,2.2966,2.3834,2.4738,2.2723,2.0487,1.8056,1.4884,1.1443,0.8217,0.8006,0.8021,0.8125,0.9464,1.092,1.2477,1.3135,1.4168,1.6136,1.6652,1.7291,1.7677,1.7181,1.6536,1.5561,1.4282,1.2813,1.2443,1.1351,1.0856,1.1406,1.1586,1.1524,1.0718,0.8771,0.5152,-0.2214,-0.7861,-1.1783,1.4593,1.6,1.6428,1.7139,1.794,1.8008,1.8008,1.8008,1.8008,1.8008,1.8008,1.8008,1.814,1.84,1.8228,1.7298,1.5566,1.2842,1.0122,0.7447,0.4888,0.299,0.1599,0.0602,-0.0737,-0.2071,-0.2876,-0.3659,-0.4401,-0.4916,-0.5521,-0.6257,-0.5636,-0.5202,-0.4973,-0.3698,-0.2662,-0.173,-0.0891,-0.039,-0.0278,0.0613,0.1118,0.1006,0.0392,0.0,0.0,-0.0392,-0.0783,-0.1118,-0.1896,-0.2341,-0.2232,-0.2674,-0.2674,-0.2174,-0.1057,0.0662,0.3167,0.585,0.8365,1.0596,1.2821,1.4378,1.505,1.592,1.6595,1.6752,1.6637,1.6952,1.8009,1.8175,1.8561,1.9516,2.062,2.1777,2.2966,2.2908,2.2964,2.2877,2.04,1.7811,1.5648,1.2206,0.9143,0.7154,0.7437,0.7957,0.8135,0.9832,1.1581,1.2744,1.3408,1.4461,1.6042,1.6492,1.6652,1.6687,1.6296,1.5533,1.4681,1.3313,1.2243,1.2389,1.1841,1.1663,1.2397,1.2451,1.2381,1.0856,0.5682,0.0123,-0.7795,-1.1264,-1.3569,1.5226,1.6853,1.7001,1.7217,1.7647,1.794,1.7725,1.7364,1.7794,1.7872,1.7647,1.7872,1.8182,1.8491,1.8229,1.6887,1.4628,1.1826,0.8697,0.5452,0.2981,0.12,0.0067,-0.0537,-0.1276,-0.2277,-0.2878,-0.3547,-0.4331,-0.4769,-0.5624,-0.6388,-0.5861,-0.545,-0.542,-0.459,-0.3608,-0.2619,-0.2343,-0.2176,-0.1952,-0.0613,0.0279,0.0447,0.0,-0.0224,-0.0056,-0.0727,-0.1173,-0.1453,-0.2619,-0.3176,-0.2901,-0.34,-0.3345,-0.2508,-0.1112,0.0663,0.2893,0.5374,0.785,1.0308,1.2628,1.4239,1.4982,1.6039,1.6667,1.6765,1.6863,1.7367,1.8022,1.8325,1.8872,1.9869,2.0885,2.1824,2.2462,2.1868,2.0844,2.0047,1.6888,1.3988,1.176,0.8782,0.6485,0.6048,0.7107,0.8027,0.8339,1.0097,1.1981,1.2626,1.3322,1.444,1.5881,1.614,1.6197,1.6016,1.5525,1.4749,1.4076,1.2749,1.1958,1.2328,1.2143,1.2451,1.3061,1.3183,1.1343,0.8299,0.3119,-0.392,-1.0806,-1.3642,-1.5278,1.6228,1.7794,1.794,1.7432,1.6775,1.7647,1.701,1.5807,1.7285,1.751,1.7001,1.7579,1.7501,1.6789,1.6001,1.4637,1.2729,0.9442,0.6133,0.2852,0.0999,0.0067,-0.0135,-0.1743,-0.2143,-0.1675,-0.2878,-0.4151,-0.5143,-0.5024,-0.5282,-0.5963,-0.5152,-0.4919,-0.5265,-0.4278,-0.3398,-0.3234,-0.2676,-0.2287,-0.2232,-0.2119,-0.1618,-0.1005,-0.1006,-0.0671,-0.0168,-0.0728,-0.1396,-0.212,-0.2841,-0.3622,-0.4236,-0.4405,-0.407,-0.3231,-0.1832,0.0,0.2409,0.5517,0.8138,0.9906,1.2763,1.4846,1.5384,1.6506,1.7188,1.7271,1.784,1.82,1.8354,1.8687,1.917,1.9813,2.0458,2.0752,2.0603,1.9208,1.7604,1.5743,1.2564,0.9223,0.5427,0.4386,0.4469,0.4803,0.6379,0.7957,0.8345,1.0179,1.164,1.202,1.2679,1.3606,1.504,1.5216,1.5274,1.5274,1.4728,1.4025,1.3485,1.2879,1.2512,1.2328,1.2573,1.3,1.3666,1.219,0.9084,0.5328,0.0239,-0.6379,-1.1534,-1.5742,-1.6743,1.5939,1.707,1.7139,1.7217,1.7501,1.7862,1.7579,1.7079,1.7725,1.7794,1.7501,1.7207,1.6922,1.6453,1.3393,1.1444,1.0092,0.6837,0.3731,0.0998,-0.0267,-0.1138,-0.1677,-0.1276,-0.1141,-0.1407,-0.1941,-0.3078,-0.4478,-0.498,-0.5475,-0.5892,-0.5632,-0.5514,-0.5419,-0.4992,-0.4556,-0.4067,-0.379,-0.3677,-0.3566,-0.3234,-0.2621,-0.1842,-0.134,-0.0727,0.0,-0.0727,-0.1452,-0.2176,-0.2896,-0.368,-0.4405,-0.4463,-0.3895,-0.2662,-0.1214,0.0768,0.3441,0.6072,0.8378,1.03,1.2628,1.455,1.546,1.6579,1.7518,1.8176,1.8892,1.9377,1.9551,1.9334,1.9383,2.023,2.0219,1.9737,1.8666,1.6788,1.4359,1.1946,0.8577,0.5291,0.3904,0.3609,0.4013,0.4212,0.6318,0.7762,0.8404,1.0186,1.1772,1.1896,1.2512,1.3373,1.4392,1.4094,1.3914,1.4213,1.4034,1.3545,1.3009,1.2573,1.2143,1.252,1.2887,1.3425,1.3965,1.2651,0.9053,0.3264,-0.2024,-0.5262,-1.0938,-1.2919,-1.3596,1.5579,1.607,1.614,1.6507,1.7088,1.7432,1.7364,1.7226,1.7725,1.7862,1.7432,1.6853,1.6271,1.5085,1.1507,0.8882,0.7289,0.4414,0.1659,-0.0801,-0.1738,-0.221,-0.2076,-0.1276,-0.0873,-0.0939,-0.1207,-0.221,-0.3875,-0.4575,-0.5172,-0.5666,-0.5615,-0.5498,-0.5278,-0.5195,-0.4948,-0.457,-0.4239,-0.4181,-0.4346,-0.3514,-0.2732,-0.2174,-0.1507,-0.0727,-0.0056,-0.0727,-0.1284,-0.184,-0.2563,-0.3176,-0.368,-0.3735,-0.3113,-0.155,-0.011,0.1965,0.4793,0.7056,0.9085,1.099,1.2888,1.4528,1.57,1.7059,1.8201,1.9037,1.9951,2.0621,2.0415,1.998,1.9909,2.0468,1.9698,1.8389,1.676,1.3699,1.0164,0.6604,0.362,0.1855,0.167,0.2471,0.3074,0.3544,0.6113,0.7892,0.8275,0.9812,1.1413,1.1406,1.1779,1.2205,1.2687,1.2451,1.3243,1.3666,1.3545,1.3061,1.2696,1.2266,1.2205,1.265,1.3199,1.3795,1.352,1.244,0.8326,0.2538,-0.0239,-0.2803,-0.6287,-0.8598,-0.9427,1.5163,1.5163,1.5234,1.5376,1.5728,1.6507,1.6219,1.6018,1.7295,1.7569,1.6853,1.6567,1.5466,1.3329,1.0335,0.7385,0.4773,0.2464,0.0068,-0.2354,-0.3349,-0.2945,-0.1742,-0.2076,-0.1476,-0.0269,-0.0939,-0.221,-0.3811,-0.4186,-0.4629,-0.5074,-0.5164,-0.5203,-0.48,-0.4882,-0.4636,-0.446,-0.3901,-0.3846,-0.4236,-0.3123,-0.2341,-0.2174,-0.1507,-0.0727,-0.0056,-0.0671,-0.1062,-0.1228,-0.1729,-0.212,-0.2173,-0.2171,-0.1503,-0.0055,0.1377,0.3553,0.6153,0.8397,1.0191,1.1589,1.349,1.505,1.6198,1.7879,1.9176,1.9903,2.0842,2.1506,2.1005,2.0694,2.0617,2.0521,1.8859,1.6534,1.3777,1.0073,0.5357,0.0654,-0.1398,-0.2074,-0.1138,0.0534,0.1934,0.3203,0.5778,0.8027,0.8156,0.964,1.0491,1.0681,1.0926,1.1358,1.1052,1.0807,1.2205,1.3304,1.3061,1.2704,1.2389,1.202,1.2158,1.2597,1.3354,1.383,1.2931,1.1682,0.9254,0.4629,0.2369,0.0302,-0.2013,-0.4317,-0.5734,1.3593,1.4243,1.495,1.5579,1.6219,1.7148,1.7373,1.7157,1.7803,1.7491,1.6567,1.593,1.4546,1.2317,0.9411,0.6477,0.3634,0.1514,-0.0634,-0.2547,-0.3578,-0.3747,-0.3078,-0.2142,-0.1141,-0.0404,-0.1543,-0.2544,-0.3336,-0.4885,-0.5932,-0.6061,-0.6507,-0.6602,-0.6306,-0.5823,-0.5462,-0.512,-0.4512,-0.4291,-0.4405,-0.3511,-0.2785,-0.2174,-0.1507,-0.0783,-0.0056,-0.0224,-0.0615,-0.1006,-0.0836,-0.0667,-0.0665,-0.0664,0.0,0.1437,0.2911,0.4443,0.6479,0.8912,1.0594,1.1449,1.3338,1.5071,1.6253,1.7924,1.9594,2.0938,2.1843,2.2248,2.2644,2.1485,2.0539,2.008,1.7506,1.4525,1.1055,0.6065,0.1438,-0.1461,-0.2542,-0.2277,-0.1272,0.02,0.16,0.2806,0.5709,0.7892,0.8221,0.9384,1.0555,1.0618,1.0624,1.0764,1.0841,1.0828,1.1413,1.2266,1.2274,1.2151,1.1903,1.1841,1.1981,1.2421,1.318,1.3294,1.2336,1.1029,0.8957,0.7549,0.5564,0.359,0.1704,0.0,-0.1632,1.2131,1.2778,1.4083,1.5163,1.614,1.7079,1.7716,1.7872,1.7647,1.7157,1.6385,1.4783,1.3172,1.1243,0.8468,0.5977,0.3699,0.1333,-0.0435,-0.1761,-0.3398,-0.3951,-0.3747,-0.2142,-0.1074,-0.0739,-0.1609,-0.2344,-0.2811,-0.4992,-0.6266,-0.6621,-0.7591,-0.7799,-0.7223,-0.6696,-0.6164,-0.5513,-0.456,-0.4181,-0.4181,-0.3231,-0.2452,-0.2063,-0.1228,-0.0504,0.0,0.0,-0.0056,-0.0112,0.039,0.0778,0.0831,0.0886,0.1494,0.287,0.4178,0.5541,0.7304,0.9511,1.0914,1.1499,1.3338,1.5016,1.6138,1.7742,1.9812,2.1428,2.2236,2.2817,2.3219,2.1883,2.0075,1.8453,1.5563,1.183,0.7466,0.2613,-0.0666,-0.2207,-0.2678,-0.221,-0.1272,0.02,0.1601,0.2871,0.545,0.7762,0.8081,0.9093,0.9742,1.0338,1.0624,1.0835,1.1129,1.1045,1.087,1.117,1.1358,1.1358,1.1233,1.1233,1.1365,1.1732,1.2367,1.2728,1.202,1.1633,1.0312,0.9328,0.8292,0.694,0.5145,0.3779,0.2268,1.0789,1.1081,1.2851,1.4227,1.5217,1.621,1.7139,1.7647,1.707,1.6455,1.5621,1.3389,1.1458,0.9963,0.7255,0.5348,0.4112,0.1744,0.0148,-0.0789,-0.2414,-0.3699,-0.3682,-0.2476,-0.1675,-0.1475,-0.1608,-0.2076,-0.3009,-0.4926,-0.592,-0.6941,-0.8414,-0.8612,-0.7898,-0.7406,-0.6809,-0.5716,-0.4291,-0.3904,-0.4405,-0.2674,-0.1675,-0.2176,-0.1062,-0.028,0.0,0.0,0.0559,0.1117,0.1785,0.2228,0.2397,0.2397,0.3109,0.4423,0.5233,0.663,0.8456,0.9931,1.1107,1.1953,1.3538,1.4949,1.5874,1.7687,1.9522,2.1013,2.1926,2.2649,2.2591,2.1226,1.8865,1.5729,1.2488,0.8229,0.2425,-0.0133,-0.1471,-0.241,-0.2611,-0.2344,-0.1407,0.02,0.1534,0.2871,0.5061,0.6846,0.7692,0.8506,0.9249,0.9705,0.9983,1.0268,1.0408,1.0905,1.0674,1.08,1.0926,1.0863,1.08,1.08,1.0611,1.0982,1.1288,1.1655,1.1717,1.1205,1.1135,1.0517,0.9825,0.9539,0.8109,0.6021,0.4638,1.0789,1.0932,1.2098,1.3165,1.4229,1.5826,1.6706,1.6922,1.6706,1.5271,1.3389,1.1786,0.9628,0.7331,0.58,0.4119,0.2563,0.1604,0.0298,-0.087,-0.1544,-0.2797,-0.3761,-0.3544,-0.2878,-0.2477,-0.2878,-0.3413,-0.3811,-0.5917,-0.7237,-0.7762,-0.9643,-1.035,-0.9494,-0.8451,-0.7755,-0.6599,-0.5001,-0.4239,-0.4349,-0.3901,-0.3121,-0.2176,-0.1786,-0.1006,0.0,0.1062,0.1675,0.1953,0.2676,0.3616,0.4381,0.4546,0.4929,0.5855,0.6671,0.7522,0.8678,1.0084,1.1299,1.2473,1.3878,1.5129,1.6108,1.7424,1.8893,2.0038,2.0857,2.1414,2.1499,1.9671,1.5722,1.0053,0.8028,0.5392,0.1453,-0.0601,-0.1675,-0.2476,-0.2611,-0.2076,-0.1205,0.02,0.1601,0.2871,0.4731,0.6719,0.7233,0.7802,0.8553,0.8615,0.8868,0.9283,0.9699,1.0268,1.0548,1.0618,1.0618,1.0618,1.0555,1.0555,1.0231,1.004,1.0199,1.0501,1.0458,1.0218,1.0514,1.0656,0.9775,0.8628,0.7852,0.6286,0.538,0.9246,0.902,1.0324,1.1481,1.2639,1.4923,1.5957,1.5948,1.5449,1.3973,1.1495,0.9011,0.6965,0.4865,0.3793,0.2721,0.1714,0.162,0.0978,0.0,-0.0977,-0.2312,-0.3623,-0.4013,-0.3747,-0.3347,-0.3747,-0.3946,-0.4345,-0.6384,-0.7307,-0.7752,-0.9654,-0.9861,-0.8315,-0.7963,-0.7143,-0.5901,-0.4643,-0.4132,-0.4467,-0.4184,-0.3622,-0.2621,-0.212,-0.1061,0.0392,0.1619,0.2343,0.2785,0.3671,0.4663,0.5374,0.5814,0.6308,0.7015,0.7711,0.8442,0.9311,1.0687,1.1935,1.2908,1.4147,1.5252,1.599,1.6847,1.7828,1.9013,1.9628,2.0041,1.9687,1.7144,1.2513,0.7802,0.512,0.3045,0.0268,-0.0403,-0.094,-0.1409,-0.1543,-0.141,-0.0739,0.0535,0.1605,0.2741,0.4138,0.5595,0.6584,0.7223,0.7663,0.7812,0.7639,0.7787,0.8345,0.8971,0.9302,0.9436,0.9582,0.9709,0.9843,0.9843,0.946,0.9069,0.918,0.9163,0.9093,0.9082,0.911,0.8897,0.8276,0.7307,0.627,0.5956,0.5183,0.6471,0.5549,0.7397,0.8936,1.0317,1.3228,1.4654,1.482,1.419,1.2357,0.9712,0.6162,0.4,0.2543,0.1394,0.1088,0.1089,0.0936,0.1213,0.0508,-0.0485,-0.2079,-0.3009,-0.3547,-0.3616,-0.3613,-0.3816,-0.368,-0.3872,-0.5318,-0.5898,-0.5986,-0.7374,-0.7308,-0.5948,-0.5666,-0.5277,-0.4613,-0.39,-0.3903,-0.4342,-0.4082,-0.3666,-0.3156,-0.1845,-0.0447,0.0894,0.1898,0.2565,0.34,0.4772,0.5378,0.5651,0.6312,0.7122,0.7871,0.8541,0.9214,1.0195,1.1787,1.2908,1.347,1.4778,1.5531,1.5596,1.5966,1.6504,1.7142,1.8189,1.8176,1.7237,1.3809,0.9984,0.639,0.3974,0.1941,0.0605,0.0135,0.0135,0.0269,0.0269,0.0269,0.0471,0.1007,0.1876,0.2609,0.3941,0.5074,0.5734,0.6052,0.6706,0.7228,0.6802,0.6185,0.6928,0.7678,0.7807,0.7936,0.8081,0.828,0.8608,0.8613,0.8355,0.8221,0.8409,0.8109,0.7678,0.7663,0.7314,0.6454,0.5356,0.4602,0.3972,0.4246,0.3929,0.2568,0.0299,0.143,0.3497,0.6292,0.9884,1.2442,1.3988,1.3712,1.1303,0.7346,0.4533,0.2005,-0.0542,-0.1245,-0.1717,-0.0624,-0.0468,-0.0534,0.0145,-0.0688,-0.0939,-0.1335,-0.2071,-0.2876,-0.2874,-0.2943,-0.2604,-0.2395,-0.2642,-0.2758,-0.1881,-0.3075,-0.3427,-0.2601,-0.2931,-0.352,-0.3732,-0.3603,-0.3873,-0.4545,-0.4452,-0.3938,-0.329,-0.1922,-0.0112,0.1562,0.212,0.2843,0.4064,0.505,0.5819,0.6308,0.7069,0.8031,0.8974,0.9488,1.034,1.1828,1.257,1.348,1.4699,1.4993,1.5374,1.4835,1.4722,1.4616,1.466,1.5202,1.5112,1.3561,1.0555,0.7182,0.4375,0.252,0.1338,0.1073,0.1006,0.1208,0.181,0.2011,0.2078,0.2078,0.2611,0.3011,0.3078,0.3611,0.4683,0.4945,0.5005,0.5467,0.5994,0.5508,0.4894,0.5298,0.5905,0.6032,0.6298,0.6506,0.6715,0.7042,0.7502,0.7242,0.7377,0.7642,0.7205,0.625,0.4773,0.4116,0.3266,0.2615,0.2173,0.1989,0.2394,0.3723,-0.0375,-0.3407,-0.3419,-0.0803,0.3493,0.6954,1.0425,1.3172,1.3588,1.0791,0.6421,0.3546,0.093,-0.1561,-0.211,-0.1799,-0.0776,0.0152,0.082,0.1297,0.0894,0.1136,0.1663,0.0865,0.0,-0.1065,-0.0994,-0.0529,-0.0197,0.0326,0.0903,0.1671,0.0825,0.0702,0.084,-0.0064,-0.1327,-0.2384,-0.2955,-0.3494,-0.4111,-0.4237,-0.3497,-0.263,-0.1479,-0.0056,0.1952,0.2176,0.3229,0.4611,0.5605,0.6145,0.6794,0.7919,0.9033,0.9658,1.0517,1.1249,1.2483,1.3396,1.4111,1.5039,1.4857,1.4292,1.3403,1.2618,1.1566,1.1121,1.0893,1.0377,0.8125,0.5254,0.2589,0.0901,-0.0131,-0.0198,0.0531,0.1068,0.1675,0.2409,0.2611,0.2611,0.2878,0.3547,0.3278,0.2878,0.2878,0.3811,0.3816,0.3877,0.4013,0.4207,0.3796,0.3593,0.3862,0.413,0.4191,0.4524,0.4863,0.5067,0.5397,0.5858,0.626,0.6461,0.6662,0.545,0.4435,0.277,0.125,0.0659,0.0198,-0.0066,0.0266,0.1131,0.2985,-0.2859,-0.6599,-0.7479,-0.4168,0.1596,0.4707,0.9119,1.3693,1.357,1.0676,0.6359,0.3168,0.1241,-0.0701,-0.1014,-0.0545,0.0462,0.1788,0.2548,0.2525,0.2606,0.3076,0.3723,0.3716,0.3309,0.1387,0.1644,0.2033,0.2801,0.3675,0.462,0.4918,0.4674,0.444,0.411,0.2368,0.0521,-0.0959,-0.2189,-0.2887,-0.3388,-0.3418,-0.2679,-0.1584,-0.1149,0.0,0.1677,0.2341,0.3169,0.532,0.6204,0.6637,0.7379,0.8547,1.0012,1.0115,1.1157,1.2052,1.2918,1.369,1.4204,1.4389,1.3481,1.2462,1.1265,0.9453,0.8014,0.6714,0.5901,0.3856,0.1361,-0.1357,-0.3262,-0.4338,-0.4045,-0.2699,-0.0978,0.0264,0.1533,0.3078,0.3547,0.3682,0.3547,0.3747,0.3211,0.2743,0.2809,0.2676,0.2678,0.2947,0.3147,0.2809,0.2468,0.1264,0.1265,0.2267,0.2332,0.2732,0.3137,0.3808,0.4077,0.4674,0.5272,0.5418,0.5216,0.4204,0.2526,0.0464,-0.0797,-0.16,-0.2066,-0.2265,-0.1398,-0.0067,0.2317,-0.5391,-0.9851,-1.0007,-0.5796,0.0998,0.3655,0.9073,1.4726,1.4252,1.0725,0.6497,0.4693,0.2927,0.1386,0.1,0.1157,0.1691,0.2751,0.3121,0.3235,0.3571,0.4262,0.5183,0.5763,0.6082,0.6278,0.5528,0.5243,0.6205,0.7095,0.7886,0.9432,0.8617,0.7698,0.6077,0.4069,0.1387,-0.0328,-0.1715,-0.2568,-0.268,-0.2562,-0.2116,-0.1013,-0.0879,0.023,0.1687,0.2291,0.3224,0.5265,0.6204,0.716,0.8212,0.9325,1.0254,1.1166,1.1616,1.2355,1.3273,1.3263,1.3145,1.2703,1.1718,0.963,0.7798,0.6004,0.4023,0.1514,-0.082,-0.3157,-0.4287,-0.7445,-0.9117,-0.9385,-0.8664,-0.7071,-0.4353,-0.1789,0.092,0.3049,0.3929,0.4688,0.442,0.4082,0.348,0.2943,0.2539,0.1939,0.1405,0.2007,0.2608,0.2072,0.1336,-0.0267,-0.1603,-0.0267,0.0533,0.0933,0.1602,0.2872,0.3274,0.388,0.435,0.4755,0.4486,0.3609,0.1532,-0.0933,-0.227,-0.2671,-0.3476,-0.4217,-0.2468,-0.0466,0.1984,-0.2689,-0.5571,-0.4651,0.0064,0.63,0.837,1.2645,1.7656,1.5905,1.2458,0.902,0.6901,0.5081,0.354,0.3079,0.3172,0.3302,0.4004,0.4359,0.4514,0.4674,0.5456,0.6445,0.7084,0.813,0.8592,0.805,0.7579,0.8612,0.9479,1.0114,1.0365,0.9725,0.8493,0.675,0.4088,0.179,0.0067,-0.1271,-0.2009,-0.1939,-0.1567,-0.0949,-0.0621,-0.0061,0.0895,0.2002,0.282,0.3993,0.5776,0.6484,0.7759,0.911,0.9894,1.0415,1.1525,1.2089,1.2521,1.313,1.2928,1.255,1.1604,0.9995,0.7564,0.4745,0.2313,-0.0647,-0.4483,-0.6885,-0.962,-1.1805,-1.3999,-1.5099,-1.515,-1.4148,-1.1818,-0.8698,-0.5442,-0.1884,0.175,0.3508,0.4331,0.509,0.4619,0.3949,0.3209,0.2338,0.1337,0.0201,0.0534,0.1133,-0.0598,-0.1596,-0.1864,-0.3203,-0.2465,-0.1467,-0.1,-0.0133,0.1133,0.2136,0.2604,0.3542,0.435,0.3747,0.3411,0.1802,-0.0133,-0.1934,-0.3478,-0.3678,-0.3473,-0.2466,-0.073,0.2043,0.1762,0.028,0.1825,0.641,1.2221,1.3155,1.6213,1.975,1.7775,1.4485,1.129,0.918,0.7151,0.5466,0.4476,0.4178,0.4246,0.4871,0.5215,0.5262,0.5549,0.6461,0.7312,0.8027,0.8409,0.865,0.8586,0.9058,0.9545,0.9958,1.0329,0.9907,0.9046,0.756,0.5636,0.3171,0.1395,0.0267,-0.087,-0.1206,-0.0867,-0.0395,0.013,0.0258,0.0944,0.1672,0.2741,0.3525,0.4889,0.6392,0.7289,0.8259,1.0089,1.0249,1.0549,1.1554,1.2194,1.2433,1.2511,1.1945,1.1072,0.9797,0.762,0.4951,0.1648,-0.2119,-0.6197,-1.0628,-1.298,-1.4775,-1.7438,-1.9551,-2.0348,-2.0407,-1.9225,-1.7051,-1.3591,-0.9986,-0.6032,-0.2231,0.1614,0.3447,0.3727,0.4079,0.3209,0.2003,0.1202,0.0133,-0.0869,-0.14,-0.1661,-0.3985,-0.4923,-0.4254,-0.4458,-0.4323,-0.359,-0.3064,-0.2129,-0.0865,0.02,0.1067,0.2202,0.3338,0.4287,0.3813,0.2202,0.0933,-0.04,-0.1599,-0.2667,-0.2466,-0.1065,0.0727,0.3089,0.6015,0.4933,0.4311,0.8138,1.4181,1.3903,1.6346,2.0721,1.8645,1.5868,1.323,1.1052,0.8991,0.6528,0.3897,0.2743,0.2624,0.3291,0.3996,0.4199,0.5148,0.5847,0.6776,0.7697,0.7001,0.7044,0.6854,0.8356,0.8642,0.8286,0.8593,0.8375,0.6642,0.51,0.3868,0.1856,0.0268,0.0,-0.0805,-0.0939,0.0,0.0,0.0396,0.0909,0.1411,0.2155,0.3542,0.4466,0.5759,0.7155,0.8333,0.9255,1.0249,1.0625,1.0837,1.1146,1.125,1.1283,1.153,1.0737,0.9214,0.7499,0.4875,0.145,-0.21,-0.6038,-0.9969,-1.3141,-1.5714,-1.8235,-2.0819,-2.3118,-2.4295,-2.4178,-2.3134,-2.1254,-1.8565,-1.4683,-1.0663,-0.687,-0.3172,-0.0065,0.1589,0.2063,0.2272,0.1069,-0.0067,-0.1002,-0.1936,-0.2397,-0.4394,-0.6683,-0.6833,-0.6086,-0.5844,-0.5705,-0.5508,-0.5058,-0.4053,-0.2986,-0.2124,-0.0996,0.0799,0.1997,0.3137,0.4148,0.3274,0.22,0.1199,0.0333,-0.0665,-0.0266,0.0732,0.2576,0.4457,1.1262,0.9635,1.1532,1.4896,1.886,1.909,2.0692,2.2249,1.9939,1.76,1.5487,1.2111,0.8407,0.4295,0.1125,0.0,0.0074,0.0856,0.1469,0.1864,0.2755,0.3234,0.3551,0.4004,0.3999,0.4251,0.3861,0.3389,0.4601,0.5396,0.5671,0.5087,0.3863,0.2569,0.198,0.0668,0.0,0.0,-0.0336,-0.0337,0.0,0.0,0.0401,0.1319,0.1842,0.2994,0.4368,0.5424,0.6621,0.7859,0.8725,0.9396,1.0115,1.0409,1.0512,1.138,1.0151,1.0079,1.0818,0.975,0.8172,0.6155,0.3437,0.0062,-0.4722,-0.8537,-1.1951,-1.4993,-1.671,-1.9118,-2.1791,-2.3736,-2.499,-2.551,-2.5563,-2.4668,-2.2478,-1.9314,-1.5516,-1.1748,-0.8091,-0.4981,-0.2016,-0.0592,0.0066,0.0133,-0.0601,-0.1204,-0.2336,-0.3394,-0.6009,-0.9396,-0.8663,-0.7416,-0.733,-0.7223,-0.7219,-0.6759,-0.609,-0.5153,-0.4501,-0.3304,-0.1324,0.0266,0.1463,0.2397,0.3405,0.3473,0.2601,0.1995,0.1394,0.1859,0.2454,0.4202,0.6318,1.3767,1.1872,1.5877,1.9018,2.1336,2.2326,2.307,2.3593,2.09,1.9052,1.6573,1.1391,0.4953,0.0,-0.3229,-0.4485,-0.326,-0.243,-0.1436,-0.088,-0.0468,0.0,0.0589,0.0718,0.0586,0.0973,0.026,-0.026,-0.039,0.013,0.0847,0.1186,0.0395,0.0,-0.0133,-0.0335,0.0,0.0,0.0,0.0,0.0,0.0,0.0873,0.1674,0.2609,0.3875,0.5439,0.6398,0.7588,0.8545,0.931,0.9928,1.0335,1.0336,1.0164,1.0487,0.9389,0.8717,0.8822,0.8088,0.7179,0.4944,0.1711,-0.2814,-0.6625,-0.9629,-1.169,-1.483,-1.6388,-1.853,-2.1015,-2.2876,-2.4585,-2.5949,-2.6918,-2.6516,-2.5576,-2.2225,-1.9293,-1.6104,-1.262,-0.9829,-0.6898,-0.4218,-0.2628,-0.1461,-0.1335,-0.1472,-0.2336,-0.3392,-0.599,-0.9077,-0.9379,-0.8504,-0.9186,-0.9035,-0.8913,-0.8458,-0.7782,-0.7251,-0.659,-0.5157,-0.3247,-0.1789,-0.0133,0.1862,0.354,0.3877,0.4143,0.3926,0.3713,0.3513,0.4164,0.5837,0.7447,1.1084,0.9723,1.3461,1.6407,1.8892,1.9351,2.0419,2.1728,2.0773,1.9369,1.6196,0.7751,-0.0144,-0.5082,-0.8113,-0.9162,-0.791,-0.5873,-0.4228,-0.3049,-0.2358,-0.2222,-0.2089,-0.2283,-0.2734,-0.3195,-0.3396,-0.3929,-0.4727,-0.4841,-0.374,-0.2706,-0.2711,-0.2262,-0.1671,-0.1139,-0.0605,0.0,0.0,0.0,0.0,0.074,0.1542,0.2477,0.3478,0.474,0.6453,0.7265,0.8158,0.918,0.9894,1.0127,1.01,1.0012,0.988,0.9005,0.8554,0.7546,0.65,0.5841,0.437,0.1589,-0.1862,-0.5363,-0.7718,-1.0229,-1.215,-1.3314,-1.4946,-1.6961,-1.9333,-2.1555,-2.3569,-2.5526,-2.6844,-2.7599,-2.6692,-2.4896,-2.2039,-1.9785,-1.706,-1.4017,-1.1763,-0.9004,-0.5389,-0.3939,-0.1199,-0.1203,-0.1535,-0.2659,-0.4966,-0.7353,-0.8756,-0.9479,-1.0982,-1.0947,-1.0255,-0.9863,-0.9388,-0.9,-0.8606,-0.6845,-0.4315,-0.2652,-0.073,0.1463,0.334,0.3611,0.4276,0.5599,0.592,0.5311,0.556,0.685,0.805,0.8554,0.6378,0.6619,0.9686,1.4583,1.5952,1.7609,1.8916,1.8318,1.4805,0.9961,0.2764,-0.3361,-0.8079,-1.1263,-1.1914,-1.014,-0.9114,-0.7344,-0.6404,-0.5856,-0.5715,-0.5585,-0.5578,-0.6112,-0.6319,-0.6452,-0.685,-0.7718,-0.7926,-0.7404,-0.6282,-0.5111,-0.413,-0.3141,-0.1809,-0.0806,0.0,0.0,0.0,0.0,0.0873,0.1742,0.2678,0.3547,0.4872,0.6519,0.7502,0.842,0.9175,0.9781,0.9806,0.9593,0.9383,0.8499,0.7497,0.7062,0.5603,0.4121,0.3656,0.2859,-0.0717,-0.3881,-0.6433,-0.7827,-0.9494,-1.0885,-1.2135,-1.3357,-1.5002,-1.7252,-1.9726,-2.2134,-2.4539,-2.6327,-2.7603,-2.7548,-2.591,-2.455,-2.2172,-2.0114,-1.7681,-1.5704,-1.3835,-0.9877,-0.6322,-0.3359,-0.0867,-0.0933,-0.1531,-0.3645,-0.5814,-0.7347,-0.8954,-1.0392,-1.0864,-1.1212,-1.0871,-1.0537,-0.956,-0.8595,-0.6936,-0.4584,-0.2985,-0.1261,0.0932,0.2539,0.3278,0.4278,0.5606,0.6396,0.665,0.7228,0.7792,0.82,0.5035,0.2495,0.0152,0.3233,0.9545,1.154,1.3467,1.5172,1.48,1.0479,0.3298,-0.1006,-0.5636,-1.0284,-1.3286,-1.3372,-1.181,-1.086,-0.9783,-0.8935,-0.8393,-0.8544,-0.8544,-0.8533,-0.8575,-0.8742,-0.8807,-0.9064,-0.9,-0.9268,-0.828,-0.7163,-0.6384,-0.52,-0.3678,-0.2277,-0.0873,0.0,0.0,0.0,0.0,0.1141,0.1942,0.2878,0.3816,0.514,0.6457,0.7377,0.8226,0.8882,0.932,0.9268,0.8871,0.8205,0.7075,0.5948,0.4829,0.3508,0.1915,0.1187,0.0461,-0.2517,-0.4963,-0.6637,-0.7567,-0.8613,-1.0015,-1.0305,-1.1374,-1.2655,-1.485,-1.7153,-2.0006,-2.2379,-2.5346,-2.6845,-2.7709,-2.6952,-2.5979,-2.4562,-2.264,-2.0822,-1.8582,-1.6363,-1.2018,-0.766,-0.3314,-0.0661,0.067,-0.02,-0.1797,-0.4035,-0.6055,-0.7733,-0.9283,-0.968,-1.0008,-0.997,-0.9448,-0.8493,-0.7343,-0.5679,-0.4177,-0.2451,-0.0796,0.0733,0.1805,0.2676,0.4077,0.5543,0.6264,0.6981,0.6767,0.7127,0.715,0.0221,-0.1821,-0.4649,-0.1813,0.4215,0.5719,0.7806,0.9899,0.9839,0.6478,0.058,-0.3854,-0.7914,-1.1852,-1.4348,-1.4063,-1.278,-1.208,-1.1053,-0.9802,-0.9792,-0.9792,-0.9658,-0.9658,-0.9588,-1.0364,-0.9913,-0.9326,-0.9204,-0.9075,-0.8226,-0.7177,-0.6256,-0.5335,-0.3946,-0.221,-0.0873,0.0,0.0,0.0,0.0,0.161,0.241,0.3011,0.4284,0.5613,0.6268,0.692,0.7767,0.8549,0.8571,0.8565,0.8479,0.7075,0.5542,0.3883,0.3035,0.0991,-0.1925,-0.2324,-0.2994,-0.3936,-0.5924,-0.7107,-0.7242,-0.8091,-0.8807,-0.8896,-0.9116,-1.0019,-1.1947,-1.411,-1.7099,-2.0116,-2.2995,-2.5692,-2.649,-2.7786,-2.6727,-2.6266,-2.5304,-2.3807,-2.1366,-1.8461,-1.39,-0.9172,-0.3987,-0.0847,0.113,0.1341,-0.02,-0.1588,-0.3677,-0.5356,-0.6826,-0.8233,-0.8758,-0.8782,-0.8054,-0.6651,-0.5226,-0.3549,-0.2244,-0.1388,-0.0332,0.1069,0.1606,0.2142,0.3205,0.4265,0.6252,0.6954,0.6664,0.6378,0.6427,-0.4182,-0.6675,-0.7828,-0.6507,-0.3186,0.0528,0.2609,0.3229,0.257,0.0147,-0.3674,-0.6977,-0.9696,-1.2572,-1.3893,-1.4066,-1.2885,-1.2364,-1.1367,-1.0562,-1.052,-0.9996,-0.9658,-0.946,-0.9454,-0.9,-0.8865,-0.8935,-0.842,-0.842,-0.7832,-0.678,-0.5262,-0.4276,-0.3143,-0.1876,-0.0872,0.0,0.0,0.0,0.0,0.1677,0.2678,0.2813,0.4486,0.5554,0.5947,0.647,0.7246,0.7697,0.7582,0.7307,0.6624,0.5101,0.2969,0.1187,0.0,-0.0996,-0.3133,-0.3939,-0.4541,-0.5345,-0.6129,-0.7046,-0.6915,-0.7697,-0.7752,-0.7279,-0.7196,-0.785,-0.8555,-1.0488,-1.3212,-1.6558,-1.972,-2.3196,-2.5042,-2.6835,-2.7308,-2.7353,-2.6771,-2.5808,-2.3948,-2.102,-1.6734,-1.1778,-0.6807,-0.1923,0.078,0.1991,0.1602,0.0795,-0.0788,-0.2541,-0.4092,-0.5209,-0.5442,-0.5011,-0.4592,-0.3796,-0.2432,-0.0921,-0.0727,-0.0066,0.0666,0.1338,0.1272,0.1271,0.1735,0.286,0.4175,0.5443,0.5422,0.5418,0.5716,-0.8572,-1.063,-1.0736,-1.0456,-0.911,-0.4707,-0.2488,-0.2394,-0.3231,-0.5044,-0.7228,-0.899,-1.0785,-1.2478,-1.3212,-1.3203,-1.2226,-1.1904,-1.1166,-1.0516,-1.0206,-0.9542,-0.9005,-0.8807,-0.8608,-0.8091,-0.7962,-0.7962,-0.7567,-0.7567,-0.6572,-0.5048,-0.3531,-0.2132,-0.1402,-0.0936,0.0,0.0,0.0,0.0,0.0,0.1543,0.2678,0.3213,0.4217,0.5425,0.569,0.6141,0.6789,0.6654,0.6318,0.5778,0.4575,0.2515,0.033,-0.152,-0.3047,-0.372,-0.4866,-0.4951,-0.5223,-0.5425,-0.6203,-0.6461,-0.6392,-0.6715,-0.6375,-0.5905,-0.5498,-0.5477,-0.5876,-0.7638,-0.9445,-1.2797,-1.5163,-1.8572,-2.0258,-2.1761,-2.3354,-2.3937,-2.6101,-2.5707,-2.6105,-2.3215,-1.9781,-1.4734,-0.9657,-0.4895,-0.0063,0.1833,0.2872,0.2259,0.152,0.0,-0.1177,-0.1963,-0.1883,-0.122,-0.0907,-0.0723,0.079,0.2244,0.1793,0.1201,0.1537,0.1538,0.0602,0.0401,0.0133,0.0266,0.0997,0.2261,0.3542,0.4281,0.4752,-1.2813,-1.369,-1.378,-1.3658,-1.2903,-0.911,-0.7143,-0.6373,-0.7382,-0.8374,-0.936,-1.0341,-1.1451,-1.2051,-1.2121,-1.1914,-1.1505,-1.1209,-1.0424,-0.9645,-0.9444,-0.8694,-0.8221,-0.7962,-0.7702,-0.7767,-0.7637,-0.7051,-0.6719,-0.6384,-0.5117,-0.299,-0.1466,-0.0133,0.0333,0.04,0.0134,0.0,0.0,0.0,0.0,0.1877,0.2678,0.3347,0.4284,0.5223,0.5683,0.633,0.6658,0.6453,0.5785,0.4835,0.3101,0.0527,-0.1843,-0.4022,-0.5763,-0.6371,-0.6195,-0.5815,-0.5491,-0.5557,-0.6075,-0.6013,-0.5675,-0.5401,-0.4929,-0.4064,-0.3396,-0.3394,-0.3701,-0.4619,-0.5568,-0.7801,-0.9583,-1.158,-1.3031,-1.4629,-1.6315,-1.8429,-2.184,-2.3508,-2.617,-2.4647,-2.2141,-1.7781,-1.3021,-0.9007,-0.3918,0.2157,0.3058,0.3343,0.2727,0.2323,0.1455,0.0726,0.1377,0.1947,0.2022,0.2441,0.4043,0.4584,0.3526,0.2732,0.2406,0.147,-0.0534,-0.1738,-0.2206,-0.1935,-0.1463,0.0266,0.1933,0.307,0.3673,-1.6351,-1.6587,-1.5904,-1.4893,-1.3513,-1.1736,-1.045,-0.9691,-1.053,-1.1218,-1.144,-1.1478,-1.1708,-1.2245,-1.1784,-1.1657,-1.1283,-1.0727,-1.008,-0.936,-0.8468,-0.7847,-0.7307,-0.6846,-0.6658,-0.6338,-0.6075,-0.6005,-0.5609,-0.5206,-0.3328,-0.1,0.0133,0.1464,0.2458,0.2725,0.2335,0.1941,0.1942,0.1743,0.1743,0.241,0.3011,0.368,0.4148,0.5084,0.6133,0.6113,0.6371,0.6449,0.4973,0.364,0.1925,-0.0727,-0.33,-0.6538,-0.7752,-0.8091,-0.6985,-0.6461,-0.6141,-0.5686,-0.5818,-0.5216,-0.4749,-0.4278,-0.3739,-0.2604,-0.1536,-0.14,-0.0931,-0.138,-0.1876,-0.2871,-0.4086,-0.4682,-0.5821,-0.6207,-0.7997,-1.0753,-1.4293,-2.0465,-2.3455,-2.6776,-2.4083,-2.0212,-1.6024,-1.1547,-0.644,0.0062,0.3055,0.3476,0.3811,0.3332,0.36,0.3058,0.4177,0.5098,0.4641,0.4506,0.5373,0.5519,0.4794,0.3398,0.1668,-0.0467,-0.2739,-0.3476,-0.3739,-0.4066,-0.3586,-0.1661,0.0133,0.1063,0.2131,-1.8711,-1.8352,-1.7436,-1.5713,-1.373,-1.2666,-1.1774,-1.1069,-1.1726,-1.1979,-1.1655,-1.1675,-1.1578,-1.1333,-1.1201,-1.1112,-1.0792,-1.0013,-0.8986,-0.747,-0.7353,-0.6129,-0.5522,-0.5193,-0.4734,-0.448,-0.4353,-0.4278,-0.3944,-0.28,-0.0999,0.1457,0.1793,0.3449,0.4907,0.5505,0.5048,0.4326,0.3668,0.3141,0.2943,0.3011,0.3547,0.3949,0.4217,0.5342,0.6453,0.6167,0.6567,0.6576,0.4966,0.3107,0.0727,-0.2574,-0.5726,-0.8533,-0.8871,-0.8748,-0.7962,-0.7437,-0.6985,-0.6465,-0.6009,-0.5206,-0.4342,-0.3675,-0.2471,-0.1269,-0.02,0.0735,0.1469,0.2063,0.2097,0.1994,0.2012,0.2072,0.2127,0.2233,0.0253,-0.2311,-0.7684,-1.4616,-1.9686,-2.408,-2.4637,-1.8511,-1.3546,-0.9636,-0.4642,0.1084,0.3068,0.3282,0.3954,0.4284,0.4417,0.4138,0.4587,0.5038,0.5315,0.5446,0.6453,0.5982,0.4854,0.2526,0.0,-0.2068,-0.4074,-0.4668,-0.4995,-0.5387,-0.5902,-0.4882,-0.3164,-0.1521,-0.0464,-2.0257,-1.941,-1.814,-1.6079,-1.3882,-1.2652,-1.1601,-1.0873,-1.1291,-1.1274,-1.0814,-1.1177,-1.1011,-1.0842,-1.0875,-1.0546,-1.008,-0.9336,-0.7811,-0.5394,-0.5533,-0.4665,-0.3606,-0.2744,-0.3141,-0.2809,-0.2541,-0.2534,-0.1733,-0.0398,0.158,0.4211,0.5078,0.6339,0.7658,0.7926,0.7409,0.6244,0.5252,0.4392,0.3609,0.3613,0.4082,0.4284,0.4818,0.5683,0.6593,0.7177,0.7502,0.6567,0.4891,0.2768,-0.1118,-0.4555,-0.7857,-0.932,-0.9466,-0.9268,-0.8812,-0.8355,-0.8027,-0.7567,-0.7177,-0.572,-0.4463,-0.3407,-0.2139,-0.0267,0.087,0.207,0.2869,0.3924,0.4341,0.5608,0.6511,0.7943,0.9542,1.0123,1.0192,0.6162,-0.1623,-0.8485,-1.4832,-1.9198,-2.4491,-1.7215,-1.3388,-0.9987,-0.5623,-0.032,0.1864,0.2002,0.2458,0.2718,0.286,0.2788,0.3711,0.4303,0.4707,0.5318,0.5519,0.518,0.4713,0.1791,-0.1201,-0.3129,-0.4866,-0.5394,-0.6248,-0.7358,-0.7737,-0.7976,-0.6573,-0.4148,-0.252,-2.1942,-2.0785,-1.729,-1.5429,-1.4514,-1.2184,-1.0966,-1.0556,-0.9658,-0.9859,-1.0438,-1.081,-1.1001,-1.0795,-1.0621,-1.0185,-0.9472,-0.832,-0.7111,-0.5391,-0.4535,-0.3336,-0.2676,-0.2074,-0.2004,-0.1801,-0.1398,-0.0332,0.1254,0.269,0.4246,0.6664,0.7718,0.8758,0.966,0.973,0.8965,0.7562,0.6706,0.5522,0.455,0.4151,0.4217,0.4553,0.5087,0.5411,0.626,0.699,0.6584,0.5581,0.2635,-0.0461,-0.398,-0.5975,-0.7757,-0.9134,-0.946,-0.9402,-0.9396,-0.9139,-0.8742,-0.7957,-0.7167,-0.5712,-0.4461,-0.3338,-0.1804,0.0267,0.2006,0.3203,0.4394,0.5512,0.6923,0.8868,1.0984,1.3708,1.6436,1.7891,1.9144,1.2887,0.4844,-0.2241,-0.8779,-1.4852,-2.0163,-2.0634,-1.8417,-1.5333,-1.1422,-0.6688,-0.21,-0.1255,-0.0394,0.0,0.0263,0.0527,0.0917,0.2038,0.2571,0.3438,0.438,0.3245,0.1918,0.0,-0.2398,-0.4061,-0.5328,-0.6187,-0.7107,-0.8081,-0.8452,-0.8158,-0.756,-0.5582,-0.4175,-2.2027,-2.0744,-1.6899,-1.4915,-1.3987,-1.1768,-1.0182,-0.9219,-0.9066,-0.9173,-0.9447,-0.9959,-1.0168,-1.0159,-0.9897,-0.9367,-0.852,-0.7222,-0.5657,-0.4268,-0.3,-0.1668,-0.1202,-0.0668,0.0466,0.093,0.1585,0.2896,0.459,0.5488,0.6907,0.9109,1.0112,1.0519,1.1051,1.0676,0.973,0.8021,0.7432,0.6191,0.502,0.4688,0.4755,0.509,0.5219,0.5474,0.6129,0.6789,0.6256,0.4512,0.1718,-0.165,-0.438,-0.6113,-0.7567,-0.8807,-0.9402,-0.9466,-0.9658,-0.9658,-0.9332,-0.8474,-0.7697,-0.6437,-0.4188,-0.2865,-0.0733,0.1268,0.3266,0.4596,0.5967,0.7214,0.9064,1.0998,1.3814,1.6735,1.9946,2.2589,2.3099,2.0937,1.2566,0.4048,-0.2857,-1.0478,-1.5336,-1.8363,-1.7137,-1.6692,-1.3617,-1.196,-0.7684,-0.49,-0.4318,-0.3931,-0.4009,-0.3503,-0.2734,-0.1436,0.0065,0.0657,0.0987,0.0132,-0.1061,-0.2387,-0.3454,-0.4397,-0.5595,-0.6314,-0.6702,-0.7344,-0.7777,-0.8078,-0.7141,-0.5592,-0.3186,-2.1118,-1.9749,-1.6446,-1.4329,-1.3001,-1.112,-0.9285,-0.7939,-0.8722,-0.8958,-0.8663,-0.9131,-0.8823,-0.8812,-0.8812,-0.7957,-0.7242,-0.6654,-0.4863,-0.2937,-0.1334,-0.0467,0.0735,0.2072,0.2928,0.4038,0.5006,0.629,0.7782,0.8524,0.9706,1.1598,1.2066,1.215,1.1742,1.0989,0.9907,0.8001,0.6706,0.513,0.4677,0.4622,0.4821,0.5024,0.5289,0.5683,0.6264,0.6256,0.5858,0.385,0.1062,-0.1793,-0.3926,-0.546,-0.6706,-0.7822,-0.8748,-0.9268,-0.9913,-1.0047,-0.9652,-0.8994,-0.8215,-0.6429,-0.3982,-0.1793,0.0333,0.2395,0.4392,0.5847,0.7219,0.8815,1.0774,1.332,1.6342,1.9492,2.2949,2.5813,2.5714,2.543,1.7894,0.9012,0.2588,-0.5105,-1.0089,-1.3195,-1.468,-1.4316,-1.3768,-1.3473,-1.1375,-0.9608,-0.89,-0.8617,-0.8302,-0.7453,-0.6506,-0.499,-0.3628,-0.2807,-0.2299,-0.2568,-0.3033,-0.3828,-0.4832,-0.5183,-0.545,-0.6036,-0.642,-0.6067,-0.5614,-0.5111,-0.3185,-0.1651,-0.0063,-1.9737,-1.777,-1.5314,-1.3411,-1.1847,-0.9869,-0.8628,-0.8162,-0.7695,-0.7932,-0.9049,-0.9256,-0.946,-1.0034,-0.9396,-0.8549,-0.7372,-0.6449,-0.4731,-0.2739,-0.1133,0.0067,0.1602,0.3467,0.4644,0.6136,0.7619,0.8977,1.0158,1.1254,1.2385,1.3571,1.4355,1.3879,1.2618,1.1603,1.0134,0.8045,0.6044,0.4602,0.3808,0.368,0.3682,0.3949,0.4281,0.4885,0.5216,0.4812,0.4077,0.2538,0.0534,-0.1736,-0.3139,-0.427,-0.5325,-0.6572,-0.7497,-0.8409,-0.8994,-0.9111,-0.8581,-0.7574,-0.6335,-0.4563,-0.2254,-0.0332,0.1795,0.3725,0.5456,0.6437,0.7802,0.9527,1.149,1.482,1.7955,2.1258,2.4614,2.5216,2.5183,2.2419,1.7467,1.1703,0.7638,0.0338,-0.6412,-0.9545,-1.2755,-1.2709,-1.4506,-1.4544,-1.443,-1.3708,-1.2747,-1.2597,-1.1941,-1.1224,-1.0234,-0.8675,-0.7062,-0.5807,-0.4919,-0.4662,-0.513,-0.5672,-0.5418,-0.5432,-0.5694,-0.5026,-0.4276,-0.3666,-0.2718,-0.1664,0.0442,0.2671,0.4581]},{"header":{"parameterUnit":"m.s-1","parameterCategory":1,"la1":31.0,"la2":29.5877,"lo1":-88.7671,"lo2":-86.6584,"dy":0.0162,"dx":0.0185,"nx":115,"ny":88,"refTime":"2024-07-25T06:00:00:Z","depth":0,"parameterNumber":3,"parameterNumberName":"V-component_of_WINDS"},"data":[0.0,0.0,0.0,0.0,0.0,0.0,0.0,0.0,0.0,0.0,0.0,0.0,0.0,0.0,0.0,0.0,0.0,0.0,0.0,0.0,0.0,0.0,0.0,0.0,0.0,0.0,0.0,0.0,0.0,0.0,0.0,0.0,0.0,0.0,0.0,0.0,0.0,0.0,0.0,0.0,0.0,0.0,0.0,0.0,0.0,0.0,0.0,0.0,0.0,0.0,0.0,0.0,0.0,0.0,0.0,0.0,0.0,0.0,0.0,0.0,0.0,0.0,0.0,0.0,0.0,0.0,0.0,0.0,0.0,0.0,0.0,0.0,0.0,0.0,0.0,0.0,0.0,0.0,0.0,0.0,0.0,0.0,0.0,0.0,0.0,0.0,0.0,0.0,0.0,0.0,0.0,0.0,0.0,0.0,0.0,0.0,0.0,0.0,0.0,0.0,0.0,0.0,0.0,0.0,0.0,0.0,0.0,0.0,0.0,0.0,0.0,0.0,0.0,0.0,0.0,0.0,0.0,0.0,0.0,0.0,0.0,0.0,0.0,0.0,0.0,0.0,0.0,0.0,0.0,0.0,0.0,0.0,0.0,0.0,0.0,0.0,0.0,0.0,0.0,0.0,0.0,0.0,0.0,0.0,0.0,0.0,0.0,0.0,0.0,0.0,0.0,0.0,0.0,0.0,0.0,0.0,0.0,0.0,0.0,0.0,0.0,0.0,0.0,0.0,0.0,0.0,0.0,0.0,0.0,0.0,0.0,0.0,0.0,0.0,0.0,0.0,0.0,0.0,0.0,0.0,0.0,0.0,0.0,0.0,0.0,0.0,0.0,0.0,0.0,0.0,0.0,0.0,0.0,0.0,0.0,0.0,0.0,0.0,0.0,0.0,0.0,0.0,0.0,0.0,0.0,0.0,0.0,0.0,0.0,0.0,0.0,0.0,0.0,0.0,0.0,0.0,0.0,0.0,0.0,0.0,0.0,0.0,0.0,0.0,0.0,0.0,0.0,0.0,0.0,0.0,0.0,0.0,0.0,0.0,0.0,0.0,0.0,0.0,0.0,0.0,0.0,0.0,0.0,0.0,0.0,0.0,0.0,0.0,0.0,0.0,0.0,0.0,0.0,0.0,0.0,0.0,0.0,0.0,0.0,0.0,0.0,0.0,0.0,0.0,0.0,0.0,0.0,0.0,0.0,0.0,0.0,0.0,0.0,0.0,0.0,0.0,0.0,0.0,0.0,0.0,0.0,0.0,0.0,0.0,0.0,0.0,0.0,0.0,0.0,0.0,0.0,0.0,0.0,0.0,0.0,0.0,0.0,0.0,0.0,0.0,0.0,0.0,0.0,0.0,0.0,0.0,0.0,0.0,0.0,0.0,0.0,0.0,0.0,0.0,0.0,0.0,0.0,0.0,0.0,0.0,0.0,0.0,0.0,0.0,0.0,0.0,0.0,0.0,0.0,0.0,0.0,0.0,0.0,0.0,0.0,0.0,0.0,0.0,0.0,0.0,0.0,0.0,0.0,0.0,0.0,0.0,0.0,0.0,0.0,0.0,0.0,0.0,0.0,0.0,0.0,0.0,0.0,0.0,0.0,0.0,0.0,0.0,0.0,0.0,0.0,0.0,0.0,0.0,0.0,0.0,0.0,0.0,0.0,0.0,0.0,0.0,0.0,0.0,0.0,0.0,0.0,0.0,0.0,0.0,0.0,0.0,0.0,0.0,0.0,0.0,0.0,0.0,0.0,0.0,0.0,0.0,0.0,0.0,0.0,0.0,0.0,0.0,0.0,0.0,0.0,0.0,0.0,0.0,0.0,0.0,0.0,0.0,0.0,0.0,0.0,0.0,0.0,0.0,0.0,0.0,0.0,0.0,0.0,0.0,0.0,0.0,0.0,0.0,0.0,0.0,0.0,0.0,0.0,0.0,0.0,0.0,0.0,0.0,0.0,0.0,0.0,0.0,0.0,0.0,0.0,0.0,0.0,0.0,0.0,0.0,0.0,0.0,0.0,0.0,0.0,0.0,0.0,0.0,0.0,0.0,0.0,0.0,0.0,0.0,0.0,0.0,0.0,0.0,0.0,0.0,0.0,0.0,0.0,0.0,0.0,0.0,0.0,0.0,0.0,0.0,0.0,0.0,0.0,0.0,0.0,0.0,0.0,0.0,0.0,0.0,0.0,0.0,0.0,0.0,0.0,0.0,0.0,0.0,0.0,0.0,0.0,0.0,0.0,0.0,0.0,0.0,0.0,0.0,0.0,0.0,0.0,0.0,0.0,0.0,0.0,0.0,0.0,0.0,0.0,0.0,0.0,0.0,0.0,0.0,0.0,0.0,0.0,0.0,0.0,0.0,0.0,0.0,0.0,0.0,0.0,0.0,0.0,0.0,0.0,0.0,0.0,0.0,0.0,0.0,0.0,0.0,0.0,0.0,0.0,0.0,0.0,0.0,0.0,0.0,0.0,0.0,0.0,0.0,0.0,0.0,0.0,0.0,0.0,0.0,0.0,0.0,0.0,0.0,0.0,0.0,0.0,0.0,0.0,0.0,0.0,0.0,0.0,0.0,0.0,0.0,0.0,0.0,0.0,0.0,0.0,0.0,0.0,0.0,0.0,0.0,0.0,0.0,0.0,0.0,0.0,0.0,0.0,0.0,0.0,0.0,0.0,0.0,0.0,0.0,0.0,0.0,0.0,0.0,0.0,0.0,0.0,0.0,0.0,0.0,0.0,0.0,0.0,0.0,0.0,0.0,0.0,0.0,0.0,0.0,0.0,0.0,0.0,0.0,0.0,0.0,0.0,0.0,0.0,0.0,0.0,0.0,0.0,0.0,0.0,0.0,0.0,0.0,0.0,0.0,0.0,0.0,0.0,0.0,0.0,0.0,0.0,0.0,0.0,0.0,0.0,0.0,0.0,0.0,0.0,0.0,0.0,0.0,0.0,0.0,0.0,0.0,0.0,0.0,0.0,0.0,0.0,0.0,0.0,0.0,0.0,0.0,0.0,0.0,0.0,0.0,0.0,0.0,0.0,0.0,0.0,0.0,0.0,0.0,0.0,0.0,0.0,0.0,0.0,0.0,0.0,0.0,0.0,0.0,0.0,0.0,0.0,0.0,0.0,0.0,0.0,0.0,0.0,0.0,0.0,0.0,0.0,0.0,0.0,0.0,0.0,0.0,0.0,0.0,0.0,0.0,0.0,0.0,0.0,0.0,0.0,0.0,0.0,0.0,0.0,0.0,0.0,0.0,0.0,0.0,0.0,0.0,0.0,0.0,0.0,0.0,0.0,0.0,0.0,0.0,0.0,0.0,0.0,0.0,0.0,0.0,0.0,0.0,0.0,0.0,0.0,0.0,0.0,0.0,0.0,0.0,0.0,0.0,0.0,0.0,0.0,0.0,0.0,0.0,0.0,0.0,0.0,0.0,0.0,0.0,0.0,0.0,0.0,0.0,0.0,0.0,0.0,0.0,0.0,0.0,0.0,0.0,0.0,0.0,0.0,0.0,0.0,0.0,0.0,0.0,0.0,0.0,0.0,0.0,0.0,0.0,0.0,0.0,0.0,0.0,0.0,0.0,0.0,0.0,0.0,0.0,0.0,0.0,0.0,0.0,0.0,0.0,0.0,0.0,0.0,0.0,0.0,0.0,0.0,0.0,0.0,0.0,0.0,0.0,0.0,0.0,0.0,0.0,0.0,0.0,0.0,0.0,0.0,0.0,0.0,0.0,0.0,0.0,0.0,0.0,0.0,0.0,0.0,0.0,0.0,0.0,0.0,0.0,0.0,0.0,0.0,0.0,0.0,0.0,0.0,0.0,0.0,0.0,0.0,0.0,0.0,0.0,0.0,0.0,0.0,0.0,0.0,0.0,0.0,0.0,0.0,0.0,0.0,0.0,0.0,0.0,0.0,0.0,0.0,0.0,0.0,0.0,0.0,0.0,0.0,0.0,0.0,0.0,0.0,0.0,0.0,0.0,0.0,0.0,0.0,0.0,0.0,0.0,0.0,0.0,0.0,0.0,0.0,0.0,0.0,0.0,0.0,0.0,0.0,0.0,0.0,0.0,0.0,0.0,0.0,0.0,0.0,0.0,0.0,0.0,0.0,0.0,0.0,0.0,0.0,0.0,0.0,0.0,0.0,0.0,0.0,0.0,0.0,0.0,0.0,0.0,0.0,0.0,0.0,0.0,0.0,0.0,0.0,0.0,0.0,0.0,0.0,0.0,0.0,0.0,0.0,0.0,0.0,0.0,0.0,0.0,0.0,0.0,0.0,0.0,0.0,0.0,0.9029,0.0,0.0,0.0,0.0,0.0,0.0,0.0,0.0,0.0,0.0,0.0,0.0,0.0,0.0,0.0,0.0,0.0,0.0,0.0,0.0,0.0,0.0,0.0,0.0,0.0,0.0,0.0,0.0,0.0,0.0,0.0,0.0,0.0,0.0,0.0,0.0,0.0,0.0,0.0,0.0,0.0,0.0,0.0,0.0,0.0,0.0,0.0,0.0,0.0,0.0,0.0,0.0,0.0,0.0,0.0,0.0,0.0,0.0,0.0,0.0,0.0,0.0,0.0,0.0,0.0,0.0,0.0,0.0,0.0,0.0,0.0,0.0,0.0,0.0,0.0,0.0,0.0,0.0,0.0,0.0,0.0,0.0,0.0,0.0,0.0,0.0,0.0,0.0,0.0,0.0,0.0,0.0,0.0,0.0,0.0,0.0,0.0,0.0,0.0,0.0,0.0,0.0,0.0,0.0,0.0,0.0,0.0,0.0,0.0,0.0,0.8121,0.8102,0.8248,0.8546,0.8981,0.0,0.0,0.0,0.0,0.0,0.0,0.0,0.0,0.0,0.0,0.0,0.0,0.0,0.0,0.0,0.0,0.0,0.0,0.0,0.0,0.0,0.0,0.0,0.0,0.0,0.0,0.0,0.0,0.0,0.0,0.0,0.0,0.0,0.0,0.0,0.0,0.0,0.0,0.0,0.0,0.0,0.0,0.0,0.0,0.0,0.0,0.0,0.0,0.0,0.0,0.0,0.0,0.0,0.0,0.0,0.0,0.0,0.0,0.0,0.0,0.0,0.0,0.0,0.0,0.0,0.0,0.0,0.0,0.0,0.0,0.0,0.0,0.0,0.0,0.0,0.0,0.0,0.0,0.0,0.0,0.0,0.0,0.0,0.0,0.0,0.0,0.0,0.0,0.0,0.0,0.0,0.0,0.0,0.0,0.0,0.0,0.0,0.0,0.0,0.0,0.0,0.0,0.0,0.0,0.0,0.0,0.0,0.0,0.0,0.0,0.0,0.0,0.854,0.884,0.9417,0.0,0.0,0.0,0.0,0.0,0.0,0.0,0.0,0.0,0.0,0.0,0.0,0.0,0.0,0.0,0.0,0.0,0.0,0.0,0.0,0.0,0.0,0.0,0.0,0.0,0.0,0.0,0.0,0.0,0.0,0.0,0.0,0.0,0.0,0.0,0.0,0.0,0.0,0.0,0.0,0.0,0.0,0.0,0.0,0.0,0.0,0.0,0.0,0.0,0.0,0.0,0.0,0.0,0.0,0.0,0.0,0.0,0.0,0.0,0.0,0.0,0.0,0.0,0.0,0.0,0.0,0.0,0.0,0.0,0.0,0.0,0.0,0.0,0.0,0.0,0.0,0.0,0.0,0.0,0.0,0.0,0.0,0.0,0.0,0.0,0.0,0.0,0.0,0.0,0.0,0.0,0.0,0.0,0.0,0.0,0.0,0.0,0.0,0.0,0.0,0.0,0.0,0.0,0.0,0.0,0.0,0.0,0.0,0.0,0.0,0.8606,0.9701,0.9842,0.0,1.0707,0.0,0.0,0.0,0.0,0.0,0.0,0.0,0.0,0.0,0.0,0.0,0.0,0.0,0.0,0.0,0.0,0.0,0.0,0.0,0.0,0.0,0.0,0.0,0.0,0.0,0.0,0.0,0.0,0.0,0.0,0.0,0.0,0.0,0.0,0.0,0.0,0.0,0.0,0.0,0.0,0.0,0.0,0.0,0.0,0.0,0.0,0.0,0.0,0.0,0.0,0.0,0.0,0.0,0.0,0.0,0.0,0.0,0.0,0.0,0.0,0.0,0.0,0.0,0.0,0.0,0.0,0.0,0.0,0.0,0.0,0.0,0.0,0.0,0.0,0.0,0.0,0.0,0.0,0.0,0.0,0.0,0.0,0.0,0.0,0.0,0.0,0.0,0.0,0.0,0.0,0.0,0.0,0.0,0.0,0.0,0.0,0.0,0.0,0.0,0.0,0.0,0.0,0.0,0.0,0.0,0.0,0.0,0.0,0.0,0.0,0.0,0.9875,1.0216,1.0618,0.0,0.0,0.0,0.0,0.0,0.0,0.0,0.0,0.0,0.0,0.0,0.0,0.0,0.0,0.0,0.0,0.0,0.0,0.0,0.0,0.0,0.0,0.0,0.0,0.0,0.0,0.0,0.0,0.0,0.0,0.0,0.0,0.0,0.0,0.0,0.0,0.0,0.0,0.0,0.0,0.0,0.0,0.0,0.0,0.0,0.0,0.0,0.0,0.0,0.0,0.0,0.0,0.0,0.0,0.0,0.0,0.0,0.0,0.0,0.0,0.0,0.0,0.0,0.0,0.0,0.0,0.0,0.0,0.0,0.0,0.0,0.0,0.0,0.0,0.0,0.0,0.0,0.0,0.0,0.0,0.0,0.0,0.0,0.0,0.0,0.0,0.0,0.0,0.0,0.0,0.0,0.0,0.0,0.0,0.0,0.0,0.0,0.0,0.0,0.0,0.0,0.0,0.0,0.0,0.0,0.0,0.0,0.0,0.0,0.0,0.9578,0.0,1.0493,1.1039,1.1289,1.1229,0.0,0.0,0.0,0.0,0.0,0.0,0.0,0.0,0.0,0.0,0.0,0.0,0.0,0.0,0.0,0.0,0.0,0.0,0.0,0.0,0.0,0.0,0.0,0.0,0.0,0.0,0.0,0.0,0.0,0.0,0.0,0.0,0.0,0.0,0.0,0.0,0.0,0.0,0.0,0.0,0.0,0.0,0.0,0.0,0.0,0.0,0.0,0.0,0.0,0.0,0.0,0.0,0.0,0.0,0.0,0.0,0.0,0.0,0.0,0.0,0.0,0.0,0.0,0.0,0.0,0.0,0.0,0.0,0.0,0.0,0.0,0.0,0.0,0.0,0.0,0.0,0.0,0.0,0.0,0.0,0.0,0.0,0.0,0.0,0.0,0.0,0.0,0.0,0.0,0.0,0.0,0.0,0.0,0.0,0.0,0.0,0.0,0.0,0.0,0.0,0.0,0.0,0.0,0.0,0.0,0.0,0.0,0.0,0.0,1.0284,1.0584,1.1958,1.2693,1.2416,0.0,0.0,0.0,0.0,0.0,0.0,0.0,0.0,0.0,0.0,0.0,0.0,0.0,0.0,0.0,0.0,0.0,0.0,0.0,0.0,0.0,0.0,0.0,0.0,0.0,0.0,0.0,0.0,0.0,0.0,0.0,0.0,0.0,0.0,0.0,0.0,0.0,0.0,0.0,0.0,0.0,0.0,0.0,0.0,0.0,0.0,0.0,0.0,0.0,0.0,0.0,0.0,0.0,0.0,0.0,0.0,0.0,0.0,0.0,0.0,0.0,0.0,0.0,0.0,0.0,0.0,0.0,0.0,0.0,0.0,0.0,0.0,0.0,0.0,0.0,0.0,0.0,0.0,0.0,0.0,0.0,0.0,0.0,0.0,0.0,0.0,0.0,0.0,0.0,0.0,0.0,0.0,0.0,0.0,0.0,0.0,0.0,0.0,0.0,0.0,0.0,0.0,0.0,0.0,0.0,0.0,0.0,0.0,0.0,0.9075,0.9688,1.1265,1.3632,1.2449,1.1994,0.0,0.0,0.0,0.0,0.0,0.0,0.0,0.0,0.0,0.0,0.0,0.0,0.0,0.0,0.0,0.0,0.0,0.0,0.0,0.0,0.0,0.0,0.0,0.0,0.0,0.0,0.0,0.0,0.0,0.0,0.0,0.0,0.0,0.0,0.0,0.0,0.0,0.0,0.0,0.0,0.0,0.0,0.0,0.0,0.0,0.0,0.0,0.0,0.0,0.0,0.0,0.0,0.0,0.0,0.0,0.0,0.0,0.0,0.0,0.0,0.0,0.0,0.0,0.0,0.0,0.0,0.0,0.0,0.0,0.0,0.0,0.0,0.0,0.0,0.0,0.0,0.0,0.0,0.0,0.0,0.0,0.0,0.0,0.0,0.0,0.0,0.0,0.0,0.0,0.0,0.0,0.0,0.0,0.0,0.0,0.0,0.0,0.0,0.0,0.0,0.0,0.0,0.0,0.0,0.0,0.0,0.0,0.0,0.0,0.9323,0.0,1.2213,0.0,1.2606,1.1935,0.0,0.0,0.0,0.0,0.0,0.0,0.0,0.0,0.0,0.0,0.0,0.0,0.0,0.0,0.0,0.0,0.0,0.0,0.0,0.0,0.0,0.0,0.0,0.0,0.0,0.0,0.0,0.0,0.0,0.0,0.0,0.0,0.0,0.0,0.0,0.0,0.0,0.0,0.0,0.0,0.0,0.0,0.0,0.0,0.0,0.0,0.0,0.0,0.0,0.0,0.0,0.0,0.0,0.0,0.0,0.0,0.0,0.0,0.0,0.0,0.0,0.0,0.0,0.0,0.0,0.0,0.0,0.0,0.0,0.0,0.0,0.0,0.0,0.0,0.0,0.0,0.0,0.0,0.0,0.0,0.0,0.0,0.0,0.0,0.0,0.0,0.0,0.0,0.0,0.0,0.0,0.0,0.0,0.0,0.0,0.0,0.0,0.0,0.0,0.0,0.0,0.0,0.0,0.0,0.0,0.0,0.0,0.0,0.9355,1.2124,1.3107,1.3433,1.3086,1.3389,1.2349,0.0,0.0,0.0,0.0,0.0,0.0,0.0,0.0,0.0,0.0,0.0,0.0,0.0,0.0,0.0,0.0,0.0,0.0,0.0,0.0,0.0,0.0,0.0,0.0,0.0,0.0,0.0,0.0,0.0,0.0,0.0,0.0,0.0,0.0,0.0,0.0,0.0,0.0,0.0,0.0,0.0,0.0,0.0,0.0,0.0,0.0,0.0,0.0,0.0,0.0,0.0,0.0,0.0,0.0,0.0,0.0,0.0,0.0,0.0,0.0,0.0,0.0,0.0,0.0,0.0,0.0,0.0,0.0,0.0,0.0,0.0,0.0,0.0,0.0,0.0,0.0,0.0,0.0,0.0,0.0,0.0,0.0,0.0,0.0,0.0,0.0,0.0,0.0,0.0,0.0,0.0,0.0,0.0,0.0,0.0,0.0,0.0,0.0,0.0,0.0,0.0,0.0,0.0,0.0,0.0,0.0,0.0,0.0,0.0,1.1012,1.2495,1.3941,1.5225,1.3284,1.2503,0.0,0.0,0.0,0.0,0.0,0.0,0.0,0.0,0.0,0.0,0.0,0.0,0.0,0.0,0.0,0.0,0.0,0.0,0.0,0.0,0.0,0.0,0.0,0.0,0.0,0.0,0.0,0.0,0.0,0.0,0.0,0.0,0.0,0.0,0.0,0.0,0.0,0.0,0.0,0.0,0.0,0.0,0.0,0.0,0.0,0.0,0.0,0.0,0.0,0.0,0.0,0.0,0.0,0.0,0.0,0.0,0.0,0.0,0.0,0.0,0.0,0.0,0.0,0.0,0.0,0.0,0.0,0.0,0.0,0.0,0.0,0.0,0.0,0.0,0.0,0.0,0.0,0.0,0.0,0.0,0.0,0.0,0.0,0.0,0.0,0.0,0.0,0.0,0.0,0.0,0.0,0.0,0.0,0.0,0.0,0.0,0.0,0.0,0.0,0.0,0.0,0.0,0.0,0.0,0.0,0.0,0.0,0.0,0.0,1.3042,1.4563,1.5867,1.6844,1.4544,1.3461,1.3774,0.0,0.0,0.0,0.0,0.0,0.0,0.0,0.0,0.0,0.0,0.0,0.0,0.0,0.0,0.0,0.0,0.0,0.0,0.0,0.0,0.0,0.0,0.0,0.0,0.0,0.0,0.0,0.0,0.0,0.0,0.0,0.0,0.0,0.0,0.0,0.0,0.0,0.0,0.0,0.0,0.0,0.0,0.0,0.0,0.0,0.0,0.0,0.0,0.0,0.0,0.0,0.0,0.0,0.0,0.0,0.0,0.0,0.0,0.0,0.0,0.0,0.0,0.0,0.0,0.0,0.0,0.0,0.0,0.0,0.0,0.0,0.0,0.0,0.0,0.0,0.0,0.0,0.0,0.0,0.0,0.0,0.0,0.0,0.0,0.0,0.0,0.0,0.0,0.0,0.0,0.0,0.0,0.0,0.0,0.0,0.0,0.0,0.0,0.0,0.0,0.0,0.0,0.0,0.0,0.0,0.0,0.0,0.0,1.7365,1.8783,1.8986,1.7998,1.6881,1.507,0.0,0.0,0.0,0.0,0.0,0.0,0.0,0.0,0.0,0.0,0.0,0.0,0.0,0.0,0.0,0.0,0.0,0.0,0.0,0.0,0.0,0.0,0.0,0.0,0.0,0.0,0.0,0.0,0.0,0.0,0.0,0.0,0.0,0.0,0.0,0.0,0.0,0.0,0.0,0.0,0.0,0.0,0.0,0.0,0.0,0.0,0.0,0.0,0.0,0.0,0.0,0.0,0.0,0.0,0.0,0.0,0.0,0.0,0.0,0.0,0.0,0.0,0.0,0.0,0.0,0.0,0.0,0.0,0.0,0.0,0.0,0.0,0.0,0.0,0.0,0.0,0.0,0.0,0.0,0.0,0.0,0.0,0.0,0.0,0.0,0.0,0.0,0.0,0.0,0.0,0.0,0.0,0.0,0.0,0.0,0.0,0.0,0.0,0.0,0.0,0.0,0.0,0.0,0.0,0.0,0.0,0.0,0.0,0.0,1.8752,2.0916,2.1689,2.0906,1.8021,1.6082,0.0,0.0,0.0,0.0,0.0,0.0,0.0,0.0,0.0,0.0,0.0,0.0,0.0,0.0,0.0,0.0,0.0,0.0,0.0,0.0,0.0,0.0,0.0,0.0,0.0,0.0,0.0,0.0,0.0,0.0,0.0,0.0,0.0,0.0,0.0,0.0,0.0,0.0,0.0,0.0,0.0,0.0,0.0,0.0,0.0,0.0,0.0,0.0,0.0,0.0,0.0,0.0,0.0,0.0,0.0,0.0,0.0,0.0,0.0,0.0,0.0,0.0,0.0,0.0,0.0,0.0,0.0,0.0,0.0,0.0,0.0,0.0,0.0,0.0,0.0,0.0,0.0,0.0,0.0,0.0,0.0,0.0,0.0,0.0,0.0,0.0,0.0,0.0,0.0,0.0,0.0,0.0,0.0,0.0,0.0,0.0,0.0,0.0,0.0,0.0,0.0,0.0,0.0,0.0,0.0,0.0,0.0,0.0,1.8276,2.0317,2.2428,2.3341,2.3004,2.0138,1.7968,0.0,0.0,0.0,0.0,0.0,0.0,0.0,0.0,0.0,0.0,0.0,0.0,0.0,0.0,0.0,0.0,0.0,0.0,0.0,0.0,0.0,0.0,0.0,0.0,0.0,0.0,0.0,0.0,0.0,0.0,0.0,0.0,0.0,0.0,0.0,0.0,0.0,0.0,0.0,0.0,0.0,0.0,0.0,0.0,0.0,0.0,0.0,0.0,0.0,0.0,0.0,0.0,0.0,0.0,0.0,0.0,0.0,0.0,0.0,0.0,0.0,0.0,0.0,0.0,0.0,0.0,0.0,0.0,0.0,0.0,0.0,0.0,0.0,0.0,0.0,0.0,0.0,0.0,0.0,0.0,0.0,0.0,0.0,0.0,0.0,0.0,0.0,0.0,0.0,0.0,0.0,0.0,0.0,0.0,0.0,0.0,0.0,0.0,0.0,0.0,0.0,0.0,0.0,0.0,0.0,0.0,0.0,0.0,1.9473,2.1766,2.3364,2.419,2.4153,2.2465,2.0112,0.0,0.0,0.0,0.0,0.0,0.0,0.0,0.0,0.0,0.0,0.0,0.0,0.0,0.0,0.0,0.0,0.0,0.0,0.0,0.0,0.0,0.0,0.0,0.0,0.0,0.0,0.0,0.0,0.0,0.0,0.0,0.0,0.0,0.0,0.0,0.0,0.0,0.0,0.0,0.0,0.0,0.0,0.0,0.0,0.0,0.0,0.0,0.0,0.0,0.0,0.0,0.0,0.0,0.0,0.0,0.0,0.0,0.0,0.0,0.0,0.0,0.0,0.0,0.0,0.0,0.0,0.0,0.0,0.0,0.0,0.0,0.0,0.0,0.0,0.0,0.0,0.0,0.0,0.0,0.0,0.0,0.0,0.0,0.0,0.0,0.0,0.0,0.0,0.0,0.0,0.0,0.0,0.0,0.0,0.0,0.0,0.0,0.0,0.0,0.0,0.0,0.0,0.0,0.0,0.0,0.0,0.0,0.0,2.0574,2.1784,2.3364,2.419,2.419,2.2593,2.0505,0.0,0.0,0.0,0.0,0.0,0.0,0.0,0.0,0.0,0.0,0.0,0.0,0.0,0.0,0.0,0.0,0.0,0.0,0.0,0.0,0.0,0.0,0.0,0.0,0.0,0.0,0.0,0.0,0.0,0.0,0.0,0.0,0.0,0.0,0.0,0.0,0.0,0.0,0.0,0.0,0.0,0.0,0.0,0.0,0.0,0.0,0.0,0.0,1.0573,0.0,0.0,0.0,0.0,0.0,0.0,0.0,0.0,0.0,0.0,0.0,0.0,0.0,0.0,0.0,0.0,0.0,0.0,0.0,0.0,0.0,0.0,0.0,0.0,0.0,0.0,0.0,0.0,0.0,0.0,0.0,0.0,0.0,0.0,0.0,0.0,0.0,0.0,0.0,0.0,0.0,0.0,0.0,0.0,0.0,0.0,0.0,0.0,0.0,0.0,0.0,0.0,0.0,0.0,0.0,0.0,0.0,0.0,0.0,2.102,2.2117,2.3491,2.4132,2.3939,2.3289,2.1584,0.0,0.0,0.0,0.0,0.0,0.0,0.0,0.0,0.0,0.0,0.0,0.0,0.0,0.0,0.0,0.0,0.0,0.0,0.0,0.0,0.0,0.0,0.0,0.0,0.0,0.0,0.0,0.0,0.0,0.0,0.0,0.0,0.0,0.0,0.0,0.0,0.0,0.0,0.0,0.0,0.0,0.0,0.0,0.0,0.0,0.0,0.0,0.0,0.0,0.0,0.0,0.0,0.0,0.0,0.0,0.0,0.0,0.0,0.0,0.0,0.0,0.0,0.0,0.0,0.0,0.0,0.0,0.0,0.0,0.0,0.0,0.0,0.0,0.0,0.0,0.0,0.0,0.0,0.0,0.0,0.0,0.0,0.0,0.0,0.0,0.0,0.0,0.0,0.0,0.0,0.0,0.0,0.0,0.0,0.0,0.0,0.0,0.0,0.0,0.0,0.0,0.0,0.0,0.0,0.0,0.0,0.0,1.8958,2.117,2.2646,2.3611,2.3996,2.3714,2.4016,2.2648,1.9436,0.0,0.0,0.0,0.0,0.0,0.0,0.0,0.0,0.0,0.0,0.0,0.0,0.0,0.0,0.0,0.0,0.0,0.0,0.0,0.0,0.0,0.0,0.0,0.0,0.0,0.0,0.0,0.0,0.0,0.0,0.0,0.0,0.0,0.0,0.0,0.0,0.0,0.0,0.6465,0.887,0.0,0.0,0.0,0.0,0.0,0.0,0.0,0.0,1.4438,0.0,0.0,0.0,0.0,0.0,0.0,0.0,0.0,0.0,0.0,0.0,0.0,0.0,0.0,0.0,0.0,0.0,0.0,0.0,0.0,0.0,0.0,0.0,0.0,0.0,0.0,0.0,0.0,0.0,0.0,0.0,0.0,0.0,0.0,0.0,0.0,0.0,0.0,0.0,0.0,0.0,0.0,0.0,0.0,0.0,0.0,0.0,0.0,0.0,0.0,0.0,0.0,0.0,0.0,0.0,0.0,1.8632,1.9665,2.1256,2.344,2.3681,2.3756,2.3714,2.4016,2.2648,1.9455,0.0,0.0,0.0,0.0,0.0,0.0,0.0,0.0,0.0,0.0,0.0,0.0,0.0,0.0,0.0,0.0,0.0,0.0,0.0,0.0,0.0,0.0,0.0,0.0,0.0,0.0,0.0,0.0,0.0,0.0,0.0,0.0,0.0,0.0,0.0,0.0,0.0,0.0,0.0,1.0217,1.1609,0.0,0.0,0.0,0.0,0.0,0.0,0.0,0.0,1.5817,0.0,0.0,0.0,0.0,0.0,0.0,0.0,0.0,0.0,0.0,0.0,0.0,0.0,0.0,0.0,0.0,0.0,0.0,0.0,0.0,0.0,0.0,0.0,0.0,0.0,0.0,0.0,0.0,0.0,0.0,0.0,0.0,0.0,0.0,0.0,0.0,0.0,0.0,0.0,0.0,0.0,0.0,0.0,0.0,0.0,0.0,0.0,0.0,0.0,0.0,0.0,0.0,0.0,0.0,0.0,1.8356,2.0116,2.186,2.3642,2.3858,2.3876,2.3714,2.3213,2.1804,0.0,0.0,0.0,0.0,0.0,0.0,0.0,0.0,0.0,0.0,0.0,0.0,0.0,0.0,0.0,0.0,0.0,0.0,0.0,0.0,0.0,0.0,0.0,0.0,0.0,0.0,0.0,0.0,0.0,0.0,0.0,0.0,0.0,0.0,0.0,0.0,0.0,0.0,0.0,0.0,1.2176,1.3927,1.4869,0.0,0.0,0.0,0.0,0.0,0.0,1.7727,1.7423,0.0,0.0,0.0,0.0,0.0,0.0,0.0,0.0,0.0,0.0,0.0,0.0,0.0,0.0,0.0,0.0,0.0,0.0,0.0,0.0,0.0,0.0,0.0,0.0,0.0,0.0,0.0,0.0,0.0,0.0,0.0,0.0,0.0,0.0,0.0,0.0,0.0,0.0,0.0,0.0,0.0,0.0,0.0,0.0,0.0,0.0,0.0,0.0,0.0,0.0,0.0,0.0,0.0,0.0,0.0,1.7707,2.0187,2.2172,2.3623,2.3976,2.3976,2.3696,2.2629,2.118,0.0,0.0,0.0,0.0,0.0,0.0,0.0,0.0,0.0,0.0,0.0,0.0,0.0,0.0,0.0,0.0,0.0,0.0,0.0,0.0,0.0,0.0,0.0,0.0,0.0,0.0,0.0,0.0,0.0,0.0,0.0,0.0,0.0,0.0,0.0,0.0,0.0,0.0,0.0,0.0,0.0,1.6338,1.7608,1.7934,0.0,0.0,0.0,0.0,1.9218,1.9237,0.0,0.0,0.0,0.0,0.0,0.0,0.0,0.0,0.0,0.0,0.0,0.0,0.0,0.0,0.0,0.0,0.0,0.0,0.0,0.0,0.0,0.0,0.0,0.0,0.0,0.0,0.0,0.0,0.0,0.0,0.0,0.0,0.0,0.0,0.0,0.0,0.0,0.0,0.0,0.0,0.0,0.0,0.0,0.0,0.0,0.0,0.0,0.0,0.0,0.0,0.0,0.0,0.0,0.0,0.0,0.0,1.7697,1.9451,2.1419,2.3566,2.3735,2.3753,2.3714,2.3158,2.1696,0.0,0.0,0.0,0.0,0.0,0.0,0.0,0.0,0.0,0.0,0.0,0.0,0.0,0.0,0.0,0.0,0.0,0.0,0.0,0.0,0.0,0.0,0.0,0.0,0.0,0.0,0.0,0.0,0.0,0.0,0.0,0.0,0.0,0.0,0.0,0.0,0.0,0.0,0.0,0.0,0.0,1.8079,1.8731,1.9345,2.0017,0.0,0.0,2.134,2.2743,2.1819,0.0,0.0,0.0,0.0,0.0,0.0,0.0,0.0,0.0,0.0,0.0,0.0,0.0,0.0,0.0,0.0,0.0,0.0,0.0,0.0,0.0,0.0,0.0,0.0,0.0,0.0,0.0,0.0,0.0,0.0,0.0,0.0,0.0,0.0,0.0,0.0,0.0,0.0,0.0,0.0,0.0,0.0,0.0,0.0,0.0,0.0,0.0,0.0,0.0,0.0,0.0,0.0,0.0,0.0,0.0,1.5003,1.8285,2.0011,2.1858,2.3885,2.3996,2.3996,2.3958,2.2429,2.0599,0.0,0.0,0.0,0.0,0.0,0.0,0.0,0.0,0.0,0.0,0.0,0.0,0.0,0.0,0.0,0.0,0.0,0.0,0.0,0.0,0.0,0.0,0.0,0.0,0.0,0.0,0.0,0.0,0.0,0.0,0.0,0.0,0.0,0.0,0.0,0.0,0.0,0.0,0.0,0.0,0.0,0.0,2.1296,2.1778,0.0,0.0,0.0,2.2636,2.289,0.0,0.0,0.0,0.0,0.0,0.0,0.0,0.0,0.0,0.0,0.0,0.0,0.0,0.0,0.0,0.0,0.0,0.0,0.0,0.0,0.0,0.0,0.0,0.0,0.0,0.0,0.0,0.0,0.0,0.0,0.0,0.0,0.0,0.0,0.0,0.0,0.0,0.0,0.0,0.0,0.0,0.0,0.0,0.0,0.0,0.0,0.0,0.0,0.0,0.0,0.0,0.0,0.0,0.0,0.0,0.0,0.0,1.8485,2.0426,2.2316,2.4116,2.419,2.417,2.4037,2.1899,0.0,0.0,0.0,0.0,0.0,0.0,0.0,0.0,0.0,0.0,0.0,0.0,0.0,0.0,0.0,0.0,0.0,0.0,0.0,0.0,0.0,0.0,0.0,0.0,0.0,0.0,0.0,0.73,0.0,0.0,0.0,0.0,0.0,0.0,0.0,0.0,0.0,0.0,0.0,0.0,0.0,0.0,2.0735,2.3278,2.3771,2.3879,0.0,0.0,2.3779,2.3129,2.2977,2.2505,0.0,0.0,0.0,0.0,0.0,0.0,0.0,0.0,0.0,0.0,0.0,0.0,0.0,0.0,0.0,0.0,0.0,0.0,0.0,0.0,0.0,0.0,0.0,0.0,0.0,0.0,0.0,0.0,0.0,0.0,0.0,0.0,0.0,0.0,0.0,0.0,0.0,0.0,0.0,0.0,0.0,0.0,0.0,0.0,0.0,0.0,0.0,0.0,0.0,0.0,0.0,0.0,0.0,0.0,0.0,1.7748,2.0174,2.2298,2.4116,2.419,2.4036,2.3717,2.2164,2.0063,0.0,0.0,0.0,0.0,0.0,0.0,0.0,0.0,0.0,0.0,0.0,0.0,0.0,0.0,0.0,0.0,0.0,0.0,0.0,0.0,0.0,0.0,0.0,0.0,0.0,0.0,0.0,0.0,0.0,0.0,0.0,0.0,0.0,0.0,0.0,0.0,0.0,0.0,0.0,0.0,0.0,2.2251,2.3782,2.4657,2.5145,0.0,0.0,2.5078,2.4783,2.4817,2.4238,2.2313,0.0,0.0,0.0,0.0,0.0,0.0,0.0,0.0,0.0,0.0,0.0,0.0,0.0,0.0,0.0,0.0,0.0,0.0,0.0,0.0,0.0,0.0,0.0,0.0,0.0,0.0,0.0,0.0,0.0,0.0,0.0,0.0,0.0,0.0,0.0,0.0,0.0,0.0,0.0,0.0,0.0,0.0,0.0,0.0,0.0,0.0,0.0,0.0,0.0,0.0,0.0,0.0,0.0,1.5169,1.7738,1.9954,2.2086,2.4097,2.3996,2.3917,2.3998,2.2295,2.0173,0.0,0.0,0.0,0.0,0.0,0.0,0.0,0.0,0.0,0.0,0.0,0.0,0.0,0.0,0.0,0.0,0.0,0.0,0.0,0.0,0.0,0.0,0.0,0.0,0.0,0.0,0.0,0.0,0.6117,0.5789,0.553,0.0,0.0,0.0,0.0,0.0,0.0,0.0,0.0,0.0,0.0,2.3059,2.4581,2.5163,0.0,0.0,2.5305,2.5221,2.5059,2.4193,2.3202,2.2139,2.0488,0.0,0.0,0.0,0.0,0.0,0.0,0.0,0.0,0.0,0.0,0.0,0.0,0.0,0.0,0.0,0.0,0.0,0.0,0.0,0.0,0.0,0.0,0.0,0.0,0.0,0.0,0.0,0.0,0.0,0.0,0.0,0.0,0.0,0.0,0.0,0.0,0.0,0.0,0.0,0.0,0.0,0.0,0.0,0.0,0.0,0.0,0.0,0.0,0.0,0.0,0.0,0.0,1.5243,1.7799,1.9954,2.2066,2.4171,2.3876,2.3774,2.3842,2.2098,2.0053,0.0,0.0,0.0,0.0,0.0,0.0,0.0,0.0,0.0,0.0,0.0,0.0,0.0,0.0,0.0,0.0,0.0,0.0,0.0,0.0,0.0,0.0,0.0,0.0,0.0,0.0,0.0,0.0,0.626,0.5979,0.5641,0.0,0.0,0.0,0.0,0.0,0.0,0.0,0.0,0.0,0.0,2.351,2.5043,2.5343,2.542,2.5412,2.5408,2.5353,2.5266,2.4245,2.3278,2.2555,0.0,0.0,0.0,0.0,0.0,0.0,0.0,0.0,0.0,0.0,0.0,0.0,0.0,0.0,0.0,0.0,0.0,0.0,0.0,0.0,0.0,0.0,0.0,0.0,0.0,0.0,0.0,0.995,0.0,0.0,0.871,0.0,0.0,0.0,0.0,0.0,0.0,0.0,0.0,0.0,0.0,0.0,0.0,0.0,0.0,0.0,0.0,0.0,0.0,0.0,0.0,0.0,0.0,1.5342,1.7879,2.0192,2.2316,2.4115,2.3858,2.3584,2.3241,2.1493,1.9659,1.7822,0.0,0.0,0.0,0.0,0.0,0.0,0.0,0.0,0.0,0.0,0.0,0.0,0.0,0.0,0.0,0.0,0.0,0.0,0.0,0.0,0.0,0.0,0.0,0.0,0.0,0.0,0.6242,0.6446,0.6381,0.0,0.0,0.0,0.0,0.0,0.0,0.0,0.0,0.0,0.0,2.1442,2.3542,2.4996,2.5212,2.5274,2.5467,2.5541,2.5602,2.5568,2.5508,2.5127,0.0,0.0,0.0,0.0,0.0,0.0,0.0,0.0,0.0,0.0,0.0,0.0,0.0,0.0,0.0,0.0,0.0,0.0,0.0,0.0,0.0,0.0,0.0,0.0,0.0,0.0,0.0,1.2703,1.1958,0.0,0.0,0.0,0.0,0.0,0.0,0.0,0.0,0.0,0.0,0.0,1.6003,1.6482,0.0,0.0,0.0,0.0,0.0,0.0,0.0,0.0,0.0,0.0,0.0,0.0,1.5499,1.7756,2.0119,2.226,2.4116,2.3876,2.3735,2.3858,2.2371,2.0162,1.7139,0.0,0.0,0.0,0.0,0.0,0.0,0.0,0.0,0.0,0.0,0.0,0.0,0.0,0.0,0.0,0.0,0.0,0.0,0.0,0.0,0.0,0.0,0.0,0.0,0.0,0.6171,0.0,0.0,0.0,0.0,0.0,0.0,0.0,0.0,0.0,0.0,0.0,1.6297,2.0056,2.2667,2.4425,2.4979,2.5093,2.5157,0.0,0.0,0.0,0.0,0.0,0.0,0.0,0.0,0.0,0.0,0.0,0.0,0.0,0.0,2.1934,1.9282,1.8651,1.8578,1.8662,0.0,0.0,0.0,0.0,0.0,0.0,0.0,0.0,0.0,0.0,0.0,0.0,0.0,0.0,1.4721,0.0,1.3116,0.0,0.0,0.0,0.0,0.0,0.0,0.0,0.0,1.7149,1.8084,1.8458,1.891,1.9017,0.0,1.7803,1.6471,0.0,0.0,0.0,0.0,0.0,0.0,0.0,0.0,1.6497,1.8643,2.0874,2.2703,2.4097,2.3858,2.3816,2.3996,2.2769,2.0578,1.7363,1.5414,1.3598,0.0,0.0,0.0,0.0,0.0,0.0,0.0,0.0,0.0,0.0,0.0,0.0,0.0,0.0,0.0,0.0,0.0,0.0,0.0,0.0,0.0,0.0,0.0,0.6342,0.0,0.0,0.0,0.0,0.0,0.0,0.0,0.0,0.0,0.8359,1.2672,1.6863,2.0805,2.3148,2.4606,2.4752,0.0,0.0,0.0,0.0,0.0,0.0,0.0,2.3684,2.3239,2.2665,2.2211,2.2156,2.3358,2.4215,2.376,0.0,0.0,2.1498,2.0787,2.0713,2.1052,2.1573,2.1874,2.1585,2.2123,2.2494,0.0,0.0,0.0,0.0,0.0,0.0,0.0,0.0,1.657,1.6102,0.0,1.4828,0.0,0.0,0.0,0.0,0.0,1.6595,0.0,0.0,2.0284,2.1454,2.1237,2.1204,2.137,2.1621,2.1285,2.0694,1.9712,1.5902,0.0,0.0,0.0,0.0,0.0,0.0,1.8379,2.0652,2.2396,2.3592,2.4191,2.3899,2.3714,2.3674,2.2664,2.0968,1.8557,1.7463,1.5896,1.365,1.1934,0.0,0.0,0.0,0.0,0.0,0.0,0.0,0.0,0.0,0.0,0.0,0.0,0.0,0.0,0.0,0.0,0.0,0.0,0.0,0.0,0.6744,0.0,0.0,0.0,0.0,0.0,0.0,0.0,0.0,0.0,0.0,0.8604,1.218,1.625,2.0884,0.0,0.0,0.0,0.0,2.5432,2.6217,2.6081,2.6071,2.6513,2.4968,2.3755,2.3929,0.0,0.0,2.3533,2.4606,2.5085,2.4079,2.4711,2.5239,2.4836,2.4053,2.3614,2.3747,2.3811,2.3998,2.4207,2.4603,2.5191,2.1687,0.0,0.0,0.0,0.0,1.963,2.0216,2.0904,1.97,1.8983,1.8592,1.7404,0.0,0.0,0.0,0.0,0.0,0.0,1.8838,1.976,2.0816,2.1671,2.2272,2.2272,2.2451,2.2711,2.2113,2.1731,2.1412,1.9934,1.7555,1.445,0.0,0.0,0.0,0.0,2.0558,2.3693,2.3625,2.3836,2.4604,2.4389,2.4098,2.3714,2.2893,2.201,2.1021,1.92,1.7647,1.6429,1.4287,0.0,0.0,0.0,0.0,0.0,0.0,0.0,0.0,0.0,0.0,0.0,0.0,0.0,0.0,0.0,0.0,0.0,0.0,0.0,0.7056,0.7329,0.8148,0.0,0.0,0.0,0.0,0.0,0.0,0.0,0.0,0.0,0.9006,1.2407,1.6454,0.0,0.0,2.4338,2.52,2.5683,2.6203,2.6922,2.6692,0.0,0.0,2.4488,2.3482,2.2169,2.28,2.4048,2.5848,2.6093,2.595,2.5677,2.5734,2.5811,2.5831,2.5337,2.4944,2.4939,2.4998,2.5059,2.5129,2.5284,2.5424,2.4385,2.1576,2.2016,2.2189,2.2219,2.2304,2.2738,2.3335,2.2295,2.1672,2.1317,2.0443,1.9353,1.8097,1.8254,0.0,0.0,0.0,2.1109,2.1955,2.1979,2.2228,2.2678,2.2848,2.3069,2.3374,2.2797,2.2674,2.2908,2.2501,2.0826,1.7972,0.0,0.0,1.5379,1.8858,2.196,2.4442,2.4258,2.4339,2.4785,2.4666,2.4474,2.4155,2.3713,2.3143,2.2447,2.0788,1.9309,1.8075,1.6078,1.4147,0.0,0.0,0.0,0.0,0.0,0.0,0.0,0.0,0.0,0.0,0.0,0.979,0.8785,0.0,0.0,0.0,0.8373,0.8575,0.8987,0.9619,0.0,0.0,0.0,0.0,0.0,0.0,0.0,0.7473,0.832,0.9945,1.2182,1.4204,1.6973,2.0982,2.3206,2.4762,2.5617,0.0,2.7244,2.7872,2.7612,2.7135,2.6477,2.5279,2.3942,2.2677,2.3608,2.5137,2.6799,2.6875,2.666,2.66,2.6593,2.6603,2.6664,2.6535,2.6446,2.6392,2.6191,2.5999,2.5952,2.5906,2.5862,2.695,2.6061,2.5989,2.5796,2.5559,2.525,2.5101,2.5016,2.4206,2.3918,2.3902,2.345,2.257,2.1436,2.187,0.0,2.2613,2.3577,2.4031,2.4094,2.3569,2.3157,2.2884,2.3129,2.3414,2.3756,2.3459,2.3613,2.4209,2.3921,2.3253,2.2212,2.1306,2.0763,2.0715,2.1875,2.2887,2.3638,2.4555,2.4949,2.4832,2.4828,2.4814,2.4804,2.4728,2.4132,2.2974,2.2072,2.0782,1.8932,1.7361,1.5747,1.4029,0.0,0.0,0.0,0.0,0.0,0.0,0.0,0.0,0.0,0.0,0.0,0.0,0.0,0.0,0.0,1.0177,0.0,1.1992,1.2853,0.0,0.0,0.0,1.4475,1.5019,1.3232,1.1654,1.0864,0.0,0.0,1.6536,1.6831,1.7898,2.1189,2.3626,2.5298,2.5888,2.726,2.8398,2.8948,2.8675,2.8504,2.8253,2.6408,2.4715,2.4448,2.5237,2.6014,2.7006,2.711,2.7039,2.6971,2.7257,2.7464,2.7333,2.7794,2.8242,2.812,2.7462,2.6893,2.6771,2.6738,2.668,3.0252,2.9983,2.9338,2.7766,2.5585,2.5455,2.5304,2.5034,2.424,2.4081,2.432,2.3918,2.3896,2.4161,2.4282,2.45,2.4839,2.5076,2.5208,2.5181,2.4445,2.4213,2.4354,2.3831,2.3842,2.4302,2.4229,2.4353,2.4639,2.4588,2.4414,2.4128,2.3892,2.29,2.1282,2.327,2.4507,2.4867,2.5098,2.5141,2.4962,2.5011,2.4972,2.4804,2.4153,2.3618,2.3215,2.1789,2.072,2.0057,1.8562,1.7155,1.6009,1.3918,0.0,0.0,0.0,0.0,0.0,0.0,0.0,0.0,0.0,1.2551,1.0109,0.0,1.2089,0.0,1.2452,1.2726,1.2753,1.3882,0.0,0.0,1.689,1.6879,1.7591,1.5711,1.3773,1.2229,1.2434,1.3289,1.4798,1.7221,1.9801,2.2362,2.4105,2.569,2.7278,2.827,2.9054,2.9432,2.9015,2.8143,2.6963,2.5101,2.4052,2.4898,2.5158,2.5803,2.7373,2.6982,2.6659,2.7258,2.7502,2.7718,2.8096,2.9002,2.9685,2.9764,2.8827,2.7842,2.7768,2.769,2.7658,3.1403,3.1366,3.0925,2.9728,2.8103,2.7197,2.6606,2.63,2.5689,2.5423,2.5439,2.4894,2.5012,2.5565,2.5611,2.5868,2.6348,2.6322,2.6322,2.6337,2.5679,2.5235,2.5026,2.4732,2.4617,2.4657,2.4622,2.4705,2.4782,2.4841,2.486,2.4948,2.495,2.4358,2.3245,2.4372,2.5099,2.5284,2.533,2.5283,2.5187,2.5206,2.5178,2.5061,2.456,2.405,2.3517,2.2273,2.1301,2.064,1.9129,1.7977,1.7321,1.5435,1.4036,0.0,0.0,0.0,0.0,0.0,0.0,0.0,0.0,0.0,0.0,0.0,1.37,1.37,1.4436,1.5048,1.5385,1.6618,1.7988,1.9388,1.9243,1.9124,1.9381,1.7353,1.5377,1.3924,1.3992,1.4505,1.5528,1.818,2.1024,2.3712,2.5184,2.6557,2.8017,2.8945,2.9588,3.0036,2.9454,2.8232,2.631,2.4829,2.4057,2.4609,2.4753,2.5295,2.6908,2.7056,2.7121,2.7792,2.8256,2.8616,2.9003,2.9699,3.0355,3.0361,2.9845,2.918,2.8766,2.8607,2.8495,3.1696,3.1678,3.1586,3.1549,3.1414,2.9566,2.8497,2.8039,2.7504,2.7115,2.674,2.6145,2.6121,2.6464,2.6493,2.6853,2.7514,2.7465,2.7465,2.7501,2.698,2.634,2.559,2.5764,2.56,2.5172,2.5057,2.5031,2.5048,2.4985,2.5039,2.5144,2.5212,2.5305,2.5401,2.5178,2.5156,2.5312,2.5398,2.5421,2.542,2.5408,2.5401,2.5379,2.5118,2.4561,2.3694,2.2855,2.195,2.0863,1.9532,1.8732,1.8461,1.6989,1.5977,0.0,1.492,0.0,0.0,0.0,0.0,0.0,0.0,0.0,0.0,1.4767,1.5244,1.5161,1.6338,1.7468,1.8362,1.9619,2.0715,2.143,2.1306,2.1007,2.0499,1.8553,1.6671,1.5321,1.5107,1.5611,1.6998,1.9246,2.1916,2.4689,2.631,2.7519,2.8534,2.9298,2.9908,3.0402,2.9602,2.7945,2.6136,2.4947,2.42,2.3916,2.3894,2.4528,2.5743,2.6701,2.7525,2.8201,2.8833,2.9447,2.9663,3.0085,3.0406,3.0498,3.0462,3.0252,2.9732,2.9471,2.927,3.3348,3.3275,3.2651,3.2375,3.2284,3.1254,3.0097,2.8811,2.7731,2.7272,2.7192,2.739,2.7667,2.7977,2.7977,2.8247,2.8667,2.8667,2.8649,2.8649,2.7912,2.7567,2.7529,2.6954,2.6846,2.7094,2.6444,2.6183,2.6338,2.564,2.5313,2.5352,2.534,2.5383,2.5473,0.0,0.0,0.0,2.5516,2.5539,2.5473,2.5488,2.5459,2.5379,2.4028,0.0,2.2808,2.2015,2.1407,2.1054,2.0764,0.0,0.0,0.0,0.0,0.0,0.0,0.0,0.0,0.0,0.0,0.0,1.6742,1.6318,1.4833,1.6667,1.7664,1.7018,1.8258,1.8991,1.8703,1.9981,2.0926,2.1103,2.1691,2.1847,2.1231,1.9843,1.7855,1.4947,1.5923,1.6846,1.7032,1.9892,2.2898,2.5058,2.6714,2.8095,2.9098,2.9483,2.9704,2.9624,2.8233,2.6661,2.5393,2.4153,2.2995,2.2308,2.2428,2.2996,2.3763,2.4944,2.6337,2.7654,2.8253,2.8814,2.9533,2.9932,3.0183,3.0452,3.0472,3.044,3.0445,3.0349,3.0244,3.3807,0.0,3.3366,3.3201,0.0,3.2119,3.1135,3.0153,2.8953,2.8129,2.7636,2.7794,2.801,2.8156,2.8156,2.836,2.8707,2.8707,2.8815,2.8975,2.8594,2.8334,2.8239,2.7909,2.7755,2.7835,2.7427,2.7055,2.6732,2.6287,2.5855,2.5391,2.5427,2.5469,2.5505,2.5581,2.5564,2.5513,2.5564,2.5573,2.5551,2.5507,2.5493,2.5428,0.0,0.0,0.0,0.0,0.0,0.0,0.0,0.0,0.0,0.0,0.0,1.9849,1.9151,1.8725,1.8748,1.8715,1.8579,1.8389,1.8298,1.7823,1.6803,1.7939,1.8553,1.8179,1.9106,1.954,1.9216,2.0262,2.1215,2.1761,2.2432,2.2628,2.1968,2.0436,1.8249,1.5752,1.6079,1.6956,1.7529,2.0557,2.3581,2.5839,2.7437,2.8591,2.9212,2.936,2.9235,2.8735,2.7091,2.5582,2.4673,2.3007,2.1759,2.1261,2.1356,2.1971,2.3035,2.4594,2.6252,2.7607,2.844,2.9126,2.9416,2.9769,3.0062,3.0201,3.0222,3.0309,3.0573,3.0572,3.0394,3.3807,3.3807,3.3734,3.3707,3.3625,3.2557,3.1803,3.1324,0.0,0.0,0.0,2.8304,2.8244,2.8205,2.812,2.8172,2.8316,2.8376,2.8565,2.8905,2.9021,2.892,2.864,2.8798,2.8744,2.8443,2.8364,2.7869,2.7022,2.6855,2.6325,2.5496,2.5459,2.5473,2.5506,2.5625,2.5637,2.5547,2.557,2.5598,2.5573,2.5516,2.5513,2.5513,2.5311,2.4911,2.4238,2.4263,2.3589,2.2078,2.1427,2.1369,2.1923,2.1278,2.1415,2.2627,2.2744,2.2585,2.2304,2.1817,2.1087,2.0069,1.9374,1.9004,1.9004,1.8936,1.8901,1.9022,1.9442,1.966,1.9513,2.0457,2.1423,2.2345,2.2988,2.3159,2.2663,2.0734,1.828,1.6017,1.6036,1.6915,1.8186,2.1139,2.4108,2.6567,2.8022,2.8964,2.9291,2.9203,2.8797,2.8017,2.6681,2.5265,2.4151,2.254,2.1014,2.0851,2.0811,2.1376,2.3035,2.4912,2.6502,2.7701,2.8803,2.9286,2.9412,2.9662,2.9899,2.9939,2.9965,3.0094,3.044,3.0505,3.0309,3.3807,3.378,3.3419,3.3273,3.3225,3.267,3.2001,3.1214,3.0044,2.9639,2.988,2.9819,2.9639,2.9332,2.8998,2.8528,2.801,2.8264,2.842,2.854,2.9079,2.94,2.9525,2.9817,3.0027,3.0088,2.9468,2.8672,2.7835,2.7082,2.6273,2.5511,2.5408,2.5468,2.5566,2.5545,2.5566,2.5662,2.5631,2.5567,2.5507,2.5517,2.5513,2.5474,2.4822,2.4414,2.4302,2.4302,2.4185,2.3932,2.3815,2.3796,2.3874,2.3069,2.2715,2.2931,2.2912,2.3017,2.3339,2.2997,2.2303,2.1328,2.0511,2.0073,2.0073,1.9773,1.9555,1.9513,1.9609,1.9479,1.9169,2.0349,2.1338,2.1581,2.2468,2.2984,2.2809,2.0808,1.8111,1.4728,1.6177,1.7698,1.8351,2.1411,2.4643,2.6688,2.8196,2.8986,2.933,2.92,2.8705,2.797,2.7017,2.5785,2.4453,2.3124,2.1889,2.0758,2.1158,2.1903,2.3091,2.4792,2.6404,2.7672,2.8396,2.8839,2.9249,2.9437,2.9588,2.9712,2.9861,3.0068,3.0324,3.0365,3.0296,3.368,3.3465,3.3273,3.3045,3.2777,3.2298,3.1794,3.1215,3.0671,3.03,3.0092,2.9782,2.9408,2.8975,2.815,2.774,2.7693,2.7719,2.8031,2.8646,2.9186,2.9653,2.998,3.022,3.0405,3.0521,3.0185,2.9523,2.8636,2.7767,2.692,2.609,2.5627,2.5389,2.5386,2.55,2.5565,2.5637,2.5573,2.5551,2.5554,2.5507,2.5513,2.5493,2.5153,2.4992,2.5012,2.5032,2.4846,2.4378,2.4314,2.4314,2.4341,2.3941,2.3899,2.4378,2.437,2.4374,2.4417,2.3477,2.262,2.1871,2.0879,2.0299,2.0299,1.9929,1.9427,1.8887,1.9303,1.9369,1.8626,2.0183,2.144,2.1864,2.2602,2.2925,2.2473,2.0757,1.8314,1.5871,1.6964,1.8425,1.8932,2.233,2.5421,2.739,2.8631,2.936,2.957,2.9392,2.897,2.8159,2.7165,2.6084,2.4891,2.3781,2.2849,2.2221,2.2431,2.301,2.3983,2.5468,2.6732,2.7712,2.8438,2.8915,2.9203,2.9314,2.9436,2.9514,2.9696,2.9928,3.0136,3.0033,2.9836,3.3437,3.3045,3.2934,3.2648,3.2179,3.1842,3.147,3.119,3.1173,3.0874,3.0331,2.9834,2.9361,2.878,2.769,2.7311,2.7468,2.7393,2.7879,2.8817,2.938,2.9851,3.0207,3.0361,3.0484,3.0584,3.057,3.0106,2.9186,2.8492,2.761,2.657,2.5762,2.5318,2.519,2.5433,2.556,2.5599,2.5551,2.5516,2.5567,2.5543,2.5511,2.5516,2.5576,2.5631,2.5631,2.5662,2.5391,2.4745,2.4629,2.4603,2.4641,2.4608,2.4869,2.5487,2.5561,2.5414,2.5041,2.3836,2.2835,2.2295,2.1162,2.0416,2.028,1.9945,1.9332,1.8535,1.9169,1.9391,1.8974,2.0249,2.1664,2.2378,2.279,2.2688,2.1991,2.0501,1.8718,1.7115,1.8072,1.952,2.0848,2.3606,2.6437,2.827,2.9267,2.966,2.966,2.9494,2.9003,2.8166,2.7262,2.6446,2.5521,2.4705,2.4107,2.3956,2.3952,2.442,2.5276,2.6387,2.7343,2.7984,2.8694,2.9052,2.8957,2.9007,2.9123,2.9169,2.9362,2.9655,2.9737,2.9293,2.9093,3.2983,3.2517,3.2127,3.1714,3.1368,3.1291,3.1213,3.119,3.119,3.1196,3.104,3.1048,3.0484,2.9685,2.9003,2.8258,2.7605,2.7929,2.8385,2.8948,2.9751,3.0186,3.0303,3.0492,3.0546,3.0537,3.0523,3.0074,2.9233,2.9008,2.8084,2.6434,2.5646,2.5265,2.5138,2.5294,2.5466,2.5611,2.554,2.5513,2.5522,2.5561,2.5598,2.5598,2.564,2.5683,2.5684,2.5703,2.5643,2.551,2.5464,2.5447,2.5399,2.5386,2.5425,2.552,2.5459,2.5291,2.498,2.4099,2.3324,2.2794,2.1637,2.0748,2.0348,1.9945,1.9479,1.9043,1.9369,1.9657,1.9782,2.0907,2.1888,2.2424,2.2628,2.2246,2.0987,2.0141,1.9044,1.7483,1.9407,2.1215,2.2598,2.5143,2.7626,2.938,2.9621,2.9677,2.9548,2.9126,2.8633,2.7861,2.7384,2.693,2.6075,2.5888,2.5395,2.5128,2.5352,2.5707,2.6286,2.7002,2.7794,2.8112,2.8633,2.8845,2.859,2.8496,2.8522,2.8667,2.8914,2.9217,2.8939,2.8344,2.8098,3.2777,3.2092,3.1897,3.1565,3.123,3.119,3.119,3.119,3.119,3.119,3.119,3.119,3.0796,3.0026,2.8613,2.8089,2.8374,2.8017,2.8386,2.9323,3.0015,3.0361,3.0505,3.0678,3.0694,3.0574,3.0568,3.0347,2.9893,2.9377,2.8076,2.6317,2.5958,2.557,2.4998,2.512,2.5329,2.5547,2.5512,2.5505,2.5506,2.5559,2.5601,2.5605,2.5661,2.5703,2.5703,2.5661,2.5633,2.5601,2.5516,2.5479,2.5508,2.5446,2.5446,2.5493,2.5486,2.5284,2.4897,2.4366,2.3787,2.3117,2.1984,2.1117,2.0715,2.0104,1.9603,1.9442,1.9566,1.976,2.0001,2.1001,2.1828,2.2059,2.2112,2.1588,2.023,2.0178,1.9787,1.9196,2.1217,2.3212,2.4444,2.6783,2.8778,2.9798,2.9829,2.9695,2.9585,2.8963,2.8308,2.7804,2.7338,2.6774,2.6179,2.6013,2.5888,2.5819,2.5952,2.6371,2.6899,2.7601,2.8157,2.8156,2.8412,2.8507,2.8174,2.8129,2.8139,2.8281,2.8243,2.8281,2.7409,2.7193,2.7215,3.2466,3.1696,3.164,3.1545,3.1351,3.123,3.1329,3.1487,3.1291,3.1269,3.1351,3.1269,3.1021,3.0473,2.8751,2.8384,2.9022,2.8376,2.8671,2.9778,3.0264,3.0543,3.0683,3.0757,3.0755,3.0638,3.0587,3.0537,3.0337,2.9282,2.7955,2.6607,2.6168,2.5638,2.4965,2.5071,2.5271,2.5451,2.5498,2.5513,2.5511,2.5559,2.5584,2.5602,2.5644,2.5683,2.5703,2.5634,2.5579,2.5584,2.5451,2.5408,2.546,2.5398,2.5406,2.5463,2.5464,2.5304,2.4911,2.4495,2.3982,2.3289,2.2095,2.121,2.0716,1.9984,1.9515,1.9457,1.9657,1.9891,2.046,2.1361,2.1999,2.2164,2.2104,2.154,2.0673,2.0934,2.1304,2.131,2.346,2.5497,2.6726,2.8502,2.987,3.0062,2.9889,2.9696,2.9569,2.8913,2.8226,2.8029,2.7467,2.6874,2.63,2.621,2.6175,2.6264,2.6489,2.6884,2.733,2.7974,2.8342,2.8183,2.8264,2.8129,2.7851,2.7794,2.7899,2.8015,2.7912,2.7456,2.6579,2.6346,2.6067,3.2021,3.1291,3.123,3.1449,3.1716,3.1351,3.1657,3.2231,3.1507,3.1428,3.164,3.1389,3.1411,3.1576,3.0093,2.9519,2.9627,2.9277,2.9486,3.0315,3.0511,3.0683,3.0859,3.0693,3.0648,3.0677,3.0587,3.05,3.0329,2.8863,2.7823,2.7465,2.6197,2.5308,2.5038,2.5226,2.5379,2.542,2.5465,2.5503,2.5508,2.5498,2.5535,2.5586,2.5605,2.5636,2.5683,2.5654,2.5567,2.5517,2.5428,2.5368,2.5312,2.5303,2.5339,2.5401,2.5403,2.5312,2.5021,2.4384,2.3803,2.3336,2.1995,2.0814,2.0322,1.9498,1.9006,1.893,1.9469,2.0302,2.1207,2.1977,2.2745,2.3198,2.2921,2.2548,2.2288,2.279,2.3467,2.4127,2.5903,2.7766,2.9644,3.025,3.0356,3.0325,3.0013,2.9695,2.9588,2.8946,2.8453,2.8316,2.7984,2.7589,2.6856,2.6757,2.6724,2.6724,2.6985,2.7378,2.7648,2.7936,2.8102,2.8183,2.8075,2.788,2.756,2.754,2.775,2.7735,2.7401,2.683,2.6527,2.5193,2.5058,3.2144,3.1603,3.1565,3.1545,3.1411,3.1252,3.1389,3.162,3.1329,3.1291,3.1411,3.1528,3.166,3.1774,3.1552,3.1231,3.0832,2.9912,2.9846,3.0491,3.0624,3.0682,3.0716,3.0755,3.076,3.069,3.0642,3.0568,3.0414,2.9762,2.884,2.772,2.7077,2.6223,2.5225,2.5094,2.5197,2.532,2.5363,2.536,2.5376,2.542,2.5471,2.5539,2.557,2.5634,2.5703,2.5634,2.5564,2.5513,2.5421,2.5379,2.5303,2.5313,2.5307,2.5329,2.5264,2.5125,2.488,2.4352,2.3824,2.3271,2.2095,2.0974,2.0239,1.9411,1.8622,1.8256,1.9141,1.9978,2.0245,2.1567,2.2795,2.2966,2.3157,2.3212,2.3361,2.42,2.538,2.6365,2.8054,2.9629,3.0159,3.049,3.0479,3.0452,3.0046,2.9746,2.9551,2.8964,2.842,2.8368,2.8102,2.7725,2.721,2.7365,2.7457,2.7303,2.7396,2.7619,2.7897,2.8075,2.8264,2.812,2.7954,2.7678,2.7409,2.7761,2.7863,2.7581,2.723,2.7071,2.6904,2.6055,2.5841,3.2298,3.2057,3.2022,3.1878,3.1637,3.1449,3.1487,3.1562,3.1329,3.1252,3.1449,3.1696,3.1933,3.2166,3.2495,3.258,3.2213,3.0917,3.0384,3.0575,3.0615,3.0643,3.0652,3.0755,3.0788,3.0747,3.0718,3.0643,3.0458,3.0163,2.9333,2.8166,2.7599,2.6725,2.5654,2.5252,2.5163,2.5274,2.5331,2.5321,2.5293,2.5403,2.5459,2.5493,2.5561,2.5634,2.5683,2.5634,2.5573,2.552,2.5457,2.5408,2.5379,2.5371,2.5356,2.5343,2.5195,2.4962,2.4656,2.4207,2.3668,2.3041,2.199,2.0942,2.0005,1.878,1.7731,1.7444,1.8122,1.8895,1.9543,2.1239,2.2702,2.2832,2.3475,2.4073,2.4386,2.5764,2.7185,2.8322,2.9486,3.0334,3.0579,3.0545,3.0529,3.0517,3.0048,2.9712,2.9587,2.9114,2.8608,2.859,2.8438,2.8237,2.8002,2.8129,2.7765,2.756,2.7619,2.7851,2.802,2.821,2.8237,2.8083,2.7829,2.7517,2.7566,2.7942,2.7885,2.7618,2.7401,2.7239,2.7233,2.727,2.6995,3.2517,3.2517,3.2484,3.2417,3.2248,3.1878,3.2004,3.2127,3.1524,3.1372,3.1696,3.1825,3.2244,3.2785,3.303,3.3312,3.343,3.221,3.125,3.0769,3.0579,3.0581,3.0673,3.0652,3.0726,3.0858,3.0747,3.0643,3.0485,2.9785,2.9225,2.8775,2.7528,2.6765,2.6542,2.5713,2.5321,2.5293,2.5346,2.5354,2.5312,2.5434,2.5479,2.5493,2.5561,2.5634,2.5683,2.5636,2.5603,2.5576,2.5527,2.5517,2.5474,2.5454,2.5483,2.543,2.5216,2.4884,2.4452,2.3879,2.3298,2.2745,2.1694,2.0619,1.9476,1.7724,1.6523,1.648,1.7029,1.7728,1.8996,2.115,2.2698,2.2891,2.403,2.5219,2.6187,2.749,2.8902,2.9993,3.0495,3.0613,3.0662,3.0581,3.0525,3.0477,3.0075,2.9696,2.9661,2.9233,2.9021,2.8952,2.8839,2.8651,2.8791,2.8905,2.8237,2.7736,2.7851,2.8037,2.8156,2.8316,2.8299,2.8128,2.7842,2.7587,2.789,2.8204,2.827,2.8038,2.777,2.7713,2.7916,2.8049,2.7873,3.3225,3.2952,3.2616,3.2298,3.2004,3.1582,3.1504,3.16,3.1308,3.1393,3.1825,3.2127,3.267,3.3386,3.3934,3.4117,3.3868,3.3032,3.2279,3.1479,3.0808,3.0513,3.0568,3.0628,3.076,3.0857,3.0723,3.0617,3.0462,2.9995,2.9487,2.8823,2.8184,2.7239,2.6265,2.5996,2.5695,2.5168,2.5264,2.5303,2.5303,2.5383,2.5434,2.5493,2.5561,2.5633,2.5703,2.5683,2.5637,2.5605,2.5533,2.5479,2.5382,2.5362,2.5352,2.5311,2.5066,2.488,2.4611,2.3838,2.3247,2.2838,2.1766,2.0555,1.9456,1.7846,1.6514,1.5994,1.661,1.746,1.8093,2.0657,2.2611,2.3201,2.477,2.6204,2.7363,2.8842,2.9946,3.0414,3.0598,3.0638,3.0657,3.0585,3.0524,3.0535,3.0068,2.9712,2.9643,2.9316,2.8998,2.8975,2.8994,2.8983,2.8997,2.896,2.8608,2.821,2.8228,2.8281,2.8386,2.8412,2.8396,2.8228,2.7946,2.7871,2.8201,2.8361,2.8407,2.8671,2.8624,2.8722,2.8895,2.8867,2.8743,3.3787,3.3505,3.2978,3.2517,3.2022,3.162,3.1312,3.1269,3.1351,3.16,3.1985,3.2627,3.3226,3.3846,3.4604,3.4783,3.447,3.3939,3.322,3.2257,3.1025,3.0527,3.0513,3.0628,3.0743,3.0792,3.07,3.0633,3.0594,3.0235,2.9798,2.926,2.8579,2.7652,2.6494,2.6128,2.5677,2.5125,2.5216,2.5321,2.5321,2.5401,2.5468,2.5503,2.5576,2.5659,2.5703,2.5703,2.5664,2.5605,2.5544,2.5457,2.5377,2.5375,2.5327,2.5189,2.4965,2.4739,2.446,2.3689,2.3141,2.2813,2.1766,2.0668,1.9577,1.8054,1.6405,1.5928,1.6379,1.7038,1.7737,2.0407,2.279,2.4048,2.5647,2.7207,2.8612,2.9866,3.052,3.0604,3.0606,3.0643,3.0657,3.0605,3.0544,3.051,3.0136,2.9746,2.9641,2.9285,2.9116,2.8993,2.8994,2.8978,2.8992,2.8961,2.8881,2.8725,2.8651,2.8651,2.87,2.87,2.8669,2.85,2.8273,2.8091,2.8316,2.8435,2.8525,2.8924,2.9156,2.9186,2.9179,2.9702,2.964,3.4218,3.4104,3.3478,3.2916,3.2449,3.1986,3.1565,3.1351,3.1603,3.1949,3.2386,3.314,3.3753,3.4183,3.4878,3.5261,3.5406,3.4722,3.3906,3.2862,3.1548,3.0676,3.054,3.0603,3.0677,3.0707,3.068,3.0652,3.0555,3.0246,3.0107,2.9768,2.8633,2.7737,2.7095,2.6261,2.5635,2.526,2.5303,2.5365,2.5303,2.5446,2.5551,2.5513,2.5603,2.5682,2.5703,2.5684,2.5638,2.5581,2.5524,2.5469,2.5473,2.5473,2.5318,2.5082,2.4885,2.453,2.4045,2.3538,2.3028,2.26,2.1665,2.0765,1.9867,1.7998,1.66,1.6344,1.6598,1.7067,1.8376,2.095,2.3401,2.5294,2.6933,2.8463,2.998,3.0527,3.0629,3.0628,3.0611,3.0633,3.069,3.0585,3.0547,3.051,3.0243,2.995,2.9744,2.942,2.9113,2.9005,2.8993,2.8997,2.8989,2.8973,2.8934,2.8887,2.8839,2.8863,2.8887,2.8887,2.8957,2.8797,2.8658,2.8489,2.8464,2.8628,2.8634,2.87,2.8944,2.9142,2.9491,2.9928,3.0133,3.4218,3.4152,3.3695,3.3208,3.2724,3.2091,3.1752,3.166,3.1752,3.238,3.314,3.3515,3.4137,3.4863,3.513,3.5465,3.5533,3.4983,3.412,3.3211,3.215,3.1183,3.0629,3.0517,3.0587,3.0623,3.0587,3.0552,3.0485,3.0088,2.9858,2.9746,2.882,2.8054,2.7571,2.6805,2.618,2.575,2.5431,2.5331,2.5313,2.5346,2.5415,2.5513,2.5543,2.5605,2.5664,2.5603,2.5551,2.5531,2.5465,2.5329,2.5168,2.5139,2.5067,2.4867,2.4681,2.4414,2.4007,2.3472,2.2912,2.2272,2.1472,2.0634,1.9803,1.8442,1.7542,1.7496,1.7893,1.8533,1.9614,2.2235,2.516,2.7809,2.8703,2.9452,3.0258,3.0599,3.0677,3.0603,3.0611,3.0652,3.066,3.0624,3.0544,3.051,3.0297,2.9999,2.9839,2.9635,2.9345,2.9083,2.9007,2.9,2.8987,2.8997,2.898,2.8975,2.8975,2.8975,2.8998,2.8998,2.9093,2.916,2.9001,2.8851,2.8929,2.9056,2.8888,2.8691,2.9003,2.9364,2.9561,2.9893,3.0129,3.4505,3.4565,3.4035,3.358,3.3141,3.237,3.2004,3.1987,3.2209,3.2919,3.3864,3.4224,3.4619,3.5173,3.5344,3.556,3.5681,3.5334,3.4478,3.3184,3.1977,3.1106,3.0607,3.0479,3.0513,3.0559,3.0513,3.0488,3.0434,3.0032,2.9861,2.9708,2.9063,2.8436,2.7848,2.7544,2.6657,2.5818,2.5677,2.5725,2.5332,2.534,2.5368,2.5471,2.5517,2.5583,2.5641,2.5554,2.5498,2.5434,2.5321,2.5157,2.5015,2.4937,2.4836,2.4666,2.4458,2.4174,2.379,2.3182,2.2565,2.2023,2.1272,2.0518,1.9924,1.9126,1.8623,1.8521,1.9205,1.9954,2.1112,2.3925,2.6835,2.8866,2.9798,3.0238,3.0682,3.0779,3.0767,3.0729,3.0723,3.0749,3.0772,3.0659,3.0622,3.0561,3.0403,3.0189,3.0009,2.9801,2.9631,2.941,2.9274,2.9315,2.9344,2.9343,2.928,2.9258,2.9272,2.923,2.9206,2.9206,2.9332,2.9435,2.9339,2.9283,2.9285,2.9247,2.9116,2.91,2.9344,2.958,2.9817,2.9941,3.0163,3.4913,3.5032,3.4429,3.3941,3.3486,3.2741,3.2343,3.2332,3.2634,3.3496,3.4438,3.4949,3.5105,3.526,3.548,3.5608,3.5647,3.573,3.4725,3.3258,3.1754,3.0691,3.0555,3.0537,3.0548,3.0529,3.0524,3.0521,3.0438,3.016,2.9992,2.9755,2.9301,2.8774,2.8288,2.8166,2.7148,2.6159,2.6492,2.6511,2.5948,2.5772,2.5677,2.5705,2.5578,2.5582,2.559,2.5535,2.5477,2.5398,2.5137,2.5034,2.4974,2.4855,2.4636,2.4407,2.4118,2.3848,2.3446,2.2643,2.2023,2.1661,2.0814,2.0333,2.0234,1.9893,1.9756,1.9983,2.0469,2.1565,2.3083,2.5971,2.8,2.9431,3.0189,3.0642,3.0834,3.0879,3.0879,3.0858,3.0858,3.0858,3.0817,3.0765,3.0665,3.0592,3.0449,3.0321,3.0203,3.0081,2.9942,2.982,2.976,2.9735,2.9711,2.9687,2.9653,2.9619,2.9641,2.9606,2.9533,2.9551,2.9626,2.9643,2.957,2.9491,2.9425,2.9368,2.9336,2.9417,2.9617,2.9902,3.0169,3.0211,3.0352,3.4553,3.4276,3.4482,3.3981,3.3138,3.2842,3.2839,3.2955,3.2901,3.3537,3.456,3.502,3.5314,3.5504,3.5642,3.574,3.5756,3.572,3.4976,3.332,3.1516,3.0728,3.0576,3.0574,3.0568,3.0549,3.0562,3.0534,3.0433,3.0197,3.001,2.9687,2.9253,2.8958,2.9005,2.8482,2.816,2.7876,2.7834,2.7561,2.7161,2.6603,2.6348,2.6319,2.5866,2.5566,2.5538,2.5517,2.5447,2.5301,2.5102,2.4956,2.4836,2.4651,2.4355,2.4002,2.3783,2.3361,2.26,2.2218,2.1678,2.0895,2.0636,2.0403,2.0702,2.0735,2.1167,2.194,2.2752,2.3836,2.5639,2.7497,2.8806,2.9719,3.0325,3.0635,3.0723,3.0745,3.0738,3.0689,3.0676,3.0672,3.0672,3.0611,3.0575,3.0568,3.051,3.0423,3.0362,3.0312,3.0232,3.0132,3.0086,3.0053,3.0044,3.003,2.9985,2.995,2.9966,2.998,2.9905,2.9813,2.9877,2.9864,2.9817,2.9725,2.9721,2.9717,2.9756,2.9822,2.9886,3.0137,3.0345,3.0414,3.0319,3.4412,3.3833,3.3949,3.3447,3.2547,3.2027,3.2325,3.3016,3.2805,3.3459,3.4644,3.5212,3.5515,3.5747,3.5778,3.5814,3.5577,3.4921,3.417,3.3002,3.1511,3.0623,3.0462,3.0476,3.0469,3.0489,3.0374,3.0308,3.0175,2.9881,2.9556,2.9425,2.909,2.923,2.9597,2.9219,2.8954,2.869,2.8716,2.8458,2.7922,2.7527,2.7021,2.6707,2.6052,2.5566,2.5511,2.5513,2.5381,2.5187,2.5024,2.4877,2.4708,2.4371,2.4001,2.3756,2.3346,2.2937,2.2289,2.1753,2.1319,2.0699,2.0638,2.0892,2.145,2.1966,2.2822,2.3713,2.4611,2.5846,2.7211,2.8007,2.8868,2.9478,2.998,3.0253,3.0425,3.0587,3.0677,3.0608,3.0611,3.0611,3.0587,3.0537,3.0547,3.0587,3.0587,3.0485,3.0524,3.0477,3.0479,3.0414,3.0369,3.0354,3.0361,3.0345,3.0297,3.0269,3.0276,3.0282,3.0225,3.0139,3.0098,3.0075,3.0052,3.0136,3.0124,3.0146,3.013,3.0188,3.0273,3.041,3.0468,3.0487,3.0303,3.4413,3.3556,3.3391,3.2763,3.1776,3.1032,3.154,3.2655,3.2559,3.3352,3.4735,3.5327,3.5525,3.5716,3.5728,3.5699,3.529,3.4113,3.3301,3.3009,3.1357,3.0549,3.0319,3.0261,3.021,3.0261,3.0111,3.0009,2.9771,2.94,2.9168,2.9,2.91,2.9274,2.9717,3.0083,2.9839,2.9301,2.945,2.9311,2.8628,2.8349,2.782,2.6867,2.6323,2.5742,2.559,2.5479,2.535,2.5027,2.4883,2.4771,2.4519,2.4137,2.3588,2.3544,2.3003,2.2548,2.204,2.1592,2.1258,2.1133,2.1262,2.1695,2.2471,2.3544,2.4483,2.5276,2.6079,2.6597,2.7095,2.7017,2.7561,2.8184,2.878,2.9368,2.9867,3.0253,3.0528,3.0568,3.0537,3.054,3.0537,3.0513,3.0554,3.058,3.0574,3.0586,3.0606,3.0601,3.0581,3.0574,3.0506,3.0482,3.0501,3.0502,3.0477,3.0464,3.0484,3.0466,3.0451,3.0365,3.0287,3.034,3.0356,3.0394,3.0403,3.0387,3.0419,3.0524,3.0496,3.0482,3.0495,3.0547,3.0283,3.4523,3.3524,3.3783,3.2455,3.0472,3.0878,3.1127,3.1579,3.201,3.3255,3.463,3.5058,3.523,3.5266,3.524,3.5352,3.5213,3.401,3.3174,3.2849,3.134,3.0327,3.0163,2.9998,2.9895,2.9855,2.9824,2.9737,2.9511,2.927,2.8925,2.8602,2.8858,2.9238,2.9538,2.99,3.0261,3.0076,3.0205,3.0105,2.988,2.9283,2.8476,2.7305,2.6861,2.6386,2.5745,2.5542,2.5343,2.5038,2.4883,2.4564,2.4191,2.3826,2.3441,2.3021,2.2797,2.2405,2.1874,2.1857,2.1769,2.1781,2.2039,2.2965,2.3999,2.4771,2.5762,2.6656,2.6823,2.6669,2.562,2.5335,2.5219,2.5786,2.647,2.7343,2.828,2.9242,3.0123,3.0277,3.0352,3.0462,3.0482,3.049,3.0545,3.0562,3.0559,3.0603,3.0651,3.0618,3.0573,3.0594,3.0596,3.0585,3.0583,3.0585,3.0562,3.0552,3.0563,3.0529,3.0508,3.0496,3.0472,3.0451,3.0472,3.049,3.0508,3.0552,3.0541,3.0528,3.0506,3.0491,3.0506,3.0504,3.0267,3.4172,3.2851,3.1593,2.9433,2.729,2.7811,2.8235,2.8671,3.0716,3.2666,3.3959,3.4691,3.5044,3.5154,3.5198,3.5366,3.5099,3.3826,3.3113,3.2638,3.1274,3.0175,2.9999,2.9794,2.9567,2.9476,2.9528,2.9572,2.9308,2.8957,2.8762,2.8672,2.8855,2.9139,2.9531,3.0036,3.0357,3.0566,3.0638,3.0657,3.0603,2.99,2.8988,2.847,2.7773,2.7329,2.6937,2.6275,2.5944,2.5526,2.5073,2.4422,2.3888,2.3595,2.3392,2.2865,2.2616,2.2358,2.196,2.2057,2.2296,2.3022,2.3404,2.436,2.5599,2.6442,2.6945,2.7152,2.7108,2.6075,2.4339,2.3647,2.3473,2.344,2.39,2.4917,2.6376,2.7673,2.8747,2.9675,3.0207,3.0337,3.0417,3.0452,3.0507,3.0535,3.0555,3.0615,3.0683,3.062,3.0545,3.0443,3.0446,3.047,3.0477,3.0467,3.0531,3.055,3.0566,3.0545,3.055,3.0534,3.0498,3.0472,3.0513,3.0533,3.0552,3.0547,3.0525,3.0525,3.0502,3.0486,3.0486,3.0401,3.0165,3.3626,3.203,2.9847,2.7224,2.4918,2.5542,2.6073,2.669,2.9582,3.1969,3.35,3.426,3.476,3.5005,3.5185,3.53,3.5214,3.3594,3.2929,3.2309,3.1071,3.0075,2.988,2.9696,2.957,2.9439,2.9458,2.9398,2.9161,2.892,2.8768,2.8772,2.8911,2.9233,2.9685,3.0166,3.0437,3.0624,3.0671,3.0699,3.0574,3.0193,2.9746,2.9569,2.8832,2.8349,2.7834,2.7234,2.6705,2.6124,2.5421,2.4505,2.3768,2.3571,2.3417,2.3047,2.2693,2.2429,2.2341,2.2825,2.3477,2.4248,2.512,2.6077,2.6942,2.7692,2.7954,2.7154,2.6177,2.4958,2.2932,2.2002,2.1348,2.0857,2.0981,2.1923,2.3659,2.535,2.721,2.835,2.9565,3.0253,3.0358,3.047,3.0535,3.0559,3.0582,3.0586,3.0632,3.0534,3.0423,3.0266,3.0227,3.0269,3.0279,3.0279,3.0335,3.0432,3.0453,3.0476,3.0527,3.0567,3.0526,3.0482,3.0501,3.0505,3.0526,3.0552,3.0525,3.0505,3.0489,3.0486,3.0489,3.0284,3.0017,3.2852,3.159,3.1168,2.9098,2.6392,2.7287,2.775,2.7623,2.9551,3.1481,3.2951,3.3764,3.4149,3.4386,3.4881,3.4853,3.4294,3.3412,3.2548,3.1893,3.0764,3.0081,2.9946,2.9763,2.9734,2.9623,2.9688,2.9382,2.9177,2.9138,2.9008,2.897,2.9355,2.9682,2.9887,3.0353,3.0663,3.0801,3.0751,3.0747,3.082,3.0723,3.0271,2.9752,2.938,2.9002,2.8334,2.7808,2.7389,2.6937,2.5838,2.5086,2.459,2.3725,2.378,2.3766,2.3587,2.3007,2.3125,2.3975,2.4976,2.5726,2.6628,2.7677,2.8262,2.8408,2.815,2.6795,2.5394,2.3551,2.1465,1.9485,1.8225,1.7728,1.7912,1.8804,2.0261,2.2719,2.4669,2.7555,2.8967,2.9844,3.0329,3.0457,3.058,3.0606,3.0605,3.0609,3.0564,3.0453,3.0308,3.0147,2.9893,2.9914,3.0062,3.0049,3.0086,3.0224,3.0277,3.0322,3.0375,3.0413,3.0497,3.0462,3.0484,3.0481,3.0508,3.0507,3.0523,3.0486,3.0461,3.0468,3.0479,3.0203,2.9825,3.2478,3.2529,3.0844,2.8313,2.5721,2.664,2.6366,2.605,2.8742,3.0794,3.193,3.3275,3.4036,3.4361,3.4376,3.4121,3.373,3.2704,3.2037,3.1605,3.0716,3.0139,3.0005,2.9909,2.987,2.9776,2.9829,2.9749,2.9467,2.9471,2.9519,2.9605,2.9849,3.0125,3.0209,3.0598,3.0781,3.0859,3.0838,3.0857,3.0898,3.0879,3.0661,3.0206,3.0119,2.9732,2.9226,2.8572,2.8118,2.7635,2.6655,2.5991,2.5677,2.5285,2.5221,2.4971,2.5284,2.5103,2.4879,2.5567,2.6319,2.7203,2.7993,2.8574,2.8993,2.8821,2.7985,2.6232,2.5127,2.3296,2.1043,1.9135,1.7499,1.6409,1.5589,1.6483,1.78,1.974,2.2159,2.5339,2.8218,2.8989,2.9756,3.017,3.0351,3.0566,3.0599,3.064,3.0536,3.0377,3.0209,3.0029,2.972,2.9472,2.9674,2.9801,2.9782,2.987,2.9934,2.999,3.0115,3.0171,3.0323,3.0428,3.0453,3.0453,3.0474,3.0486,3.0495,3.0442,3.0398,3.0392,3.0331,2.9901,2.9407,3.2433,3.3526,3.0994,2.8329,2.5998,2.6726,2.6191,2.508,2.8245,3.0195,3.1005,3.2391,3.3641,3.4219,3.3536,3.2958,3.3101,3.1763,3.1315,3.1023,3.066,3.0156,2.9994,2.9933,2.9838,2.973,2.9843,2.9823,2.9802,2.9785,2.9871,3.0191,3.0173,3.0391,3.0586,3.0721,3.084,3.0898,3.0898,3.0898,3.0898,3.0859,3.0769,3.0657,3.0592,3.0458,3.0079,2.947,2.8822,2.839,2.7428,2.6731,2.6577,2.6241,2.6308,2.6286,2.6698,2.7028,2.6952,2.7304,2.7759,2.8401,2.9012,2.922,2.9279,2.8989,2.8222,2.6482,2.5478,2.3717,2.1573,1.9798,1.7699,1.5669,1.3938,1.4849,1.5904,1.7678,1.9978,2.3106,2.5875,2.7951,2.8734,2.9544,3.0041,3.0414,3.0576,3.0648,3.0536,3.0358,3.0113,2.9923,2.9522,2.9176,2.9133,2.9323,2.9381,2.9495,2.9559,2.9633,2.9727,3.0009,3.0256,3.0338,3.041,3.0451,3.0479,3.0477,3.0442,3.0333,3.0242,3.0246,3.0104,2.9685,2.9323,3.2889,3.4191,3.2498,3.0695,2.8952,2.9515,2.9026,2.7811,2.8989,2.9969,3.0784,3.1381,3.289,3.3503,3.2539,3.169,3.1724,3.0932,3.0568,3.0277,2.9966,2.9898,2.9868,2.9835,2.9757,2.977,2.9807,2.984,2.9843,2.9725,2.9923,3.0172,3.023,3.0443,3.0599,3.0701,3.0814,3.0879,3.0918,3.0918,3.0879,3.0811,3.0703,3.0623,3.0525,3.0355,3.0037,2.969,2.9417,2.9114,2.8135,2.7636,2.7563,2.7138,2.7145,2.7714,2.7979,2.8409,2.8727,2.8709,2.8811,2.9097,2.9394,2.9656,2.9576,2.8887,2.8111,2.7449,2.6417,2.4911,2.2837,2.0725,1.8497,1.5873,1.3826,1.2723,1.3821,1.5406,1.7847,2.094,2.348,2.5682,2.7215,2.792,2.9433,2.9918,3.0523,3.0621,3.0567,3.0392,3.0081,2.9769,2.9326,2.8957,2.8609,2.8706,2.896,2.9055,2.9109,2.9211,2.9289,2.965,3.0221,3.0314,3.0401,3.0453,3.0501,3.051,3.0424,3.0208,3.0107,3.0121,2.9997,2.9669,2.9528,3.3374,3.4414,3.405,3.2962,3.1452,3.1307,3.0654,2.998,3.0486,3.1391,3.2328,3.2402,3.266,3.2708,3.1587,3.0636,3.0528,2.981,2.9731,2.9808,2.9781,2.9749,2.9774,2.9735,2.971,2.9726,2.9718,2.9669,2.9576,2.9581,2.9696,2.9874,3.0136,3.0345,3.0522,3.0669,3.0771,3.0879,3.0918,3.0918,3.0879,3.0788,3.0673,3.0606,3.0537,3.0334,3.0023,2.9813,2.9607,2.9321,2.8815,2.8682,2.8672,2.8248,2.8465,2.8988,2.9137,2.9512,2.9794,2.9776,2.9687,2.9855,2.9984,2.9942,2.9729,2.9219,2.873,2.8076,2.7385,2.6115,2.4639,2.2395,1.9843,1.6708,1.422,1.2289,1.1978,1.3632,1.6095,1.9359,2.1569,2.3678,2.501,2.6156,2.7893,2.9426,3.0067,3.0574,3.0552,3.0489,3.023,2.9909,2.9469,2.9062,2.8746,2.8675,2.8646,2.8693,2.8755,2.8992,2.9252,2.9749,3.0221,3.0303,3.0403,3.0494,3.0559,3.0547,3.0443,3.0247,3.0089,2.9994,2.982,2.9597,2.9568,3.3688,3.4598,3.4882,3.436,3.3287,3.2815,3.2115,3.1454,3.1738,3.2493,3.349,3.2934,3.28,3.237,3.111,3.0391,3.0173,2.9635,2.9453,2.9456,2.9513,2.9551,2.9551,2.9514,2.942,2.9514,2.9494,2.9416,2.9436,2.9394,2.9606,2.9836,3.0032,3.026,3.0502,3.0638,3.0769,3.0879,3.0918,3.0918,3.0898,3.076,3.0661,3.0587,3.0524,3.0309,3.0056,2.9864,2.9662,2.9513,2.9336,2.9394,2.9475,2.9586,2.9756,2.9902,3.0064,3.0207,3.0232,3.0211,3.0211,3.0286,3.0062,2.9937,2.9796,2.9551,2.9086,2.8901,2.8329,2.7609,2.6247,2.4159,2.1642,1.8695,1.5079,1.2948,1.1548,1.2212,1.4924,1.7764,1.9594,2.1189,2.3153,2.4489,2.6525,2.8338,2.9659,3.0286,3.0715,3.0624,3.0474,3.0141,2.9761,2.937,2.9,2.8931,2.8861,2.875,2.8864,2.9139,2.945,2.9915,3.0201,3.0292,3.04,3.0558,3.0611,3.0586,3.0451,3.0278,3.0117,2.9939,2.9607,2.9402,2.9497,3.3827,3.4737,3.4729,3.4601,3.4332,3.4173,3.3477,3.2633,3.2692,3.2943,3.3218,3.2566,3.2648,3.2787,3.1302,3.0681,3.0476,2.9898,2.9564,2.9508,2.9265,2.9265,2.9289,2.9289,2.9291,2.9067,2.9203,2.9355,2.9414,2.9454,2.9662,2.9893,3.0079,3.0256,3.0488,3.0643,3.0769,3.0898,3.0918,3.0918,3.0879,3.0719,3.0628,3.0575,3.0482,3.0285,3.0136,2.9973,2.9765,2.957,2.9645,2.9626,2.957,2.9756,2.9901,3.0004,3.014,3.0277,3.0388,3.038,3.04,3.041,3.0126,2.9889,2.9877,2.9678,2.9494,2.9325,2.9134,2.8691,2.7476,2.5987,2.3427,2.065,1.7093,1.4241,1.292,1.1156,1.3839,1.5012,1.6511,1.835,2.0724,2.2899,2.5077,2.7021,2.8827,2.9851,3.0448,3.0713,3.0566,3.031,2.9951,2.9617,2.9273,2.9193,2.9101,2.8951,2.9041,2.9394,2.964,2.9986,3.019,3.0281,3.0428,3.0606,3.0641,3.0628,3.0496,3.0346,3.006,2.9825,2.9451,2.9374,2.9603,3.4061,3.4338,3.4594,3.4688,3.4678,3.4566,3.4099,3.3536,3.3593,3.3671,3.3549,3.3181,3.2735,3.2329,3.1762,3.1044,3.0728,3.0035,2.9612,2.9826,2.9301,2.9237,2.9289,2.9332,2.9314,2.9436,2.9456,2.9456,2.9607,2.9607,2.9748,2.9965,3.0229,3.0424,3.0542,3.0665,3.0749,3.0879,3.0918,3.0918,3.0879,3.0716,3.0606,3.0613,3.0472,3.0336,3.0241,3.0114,2.9896,2.9763,2.9853,2.9861,2.988,3.0078,3.0147,3.0211,3.0312,3.0413,3.0445,3.043,3.0385,3.0314,3.0125,2.9924,2.9954,2.9763,2.9708,2.9747,2.9687,2.9298,2.8652,2.7502,2.538,2.3,1.9806,1.6853,1.4825,1.2513,1.2373,1.2178,1.3057,1.4232,1.6153,1.8033,2.03,2.3241,2.4968,2.8392,2.9775,3.0384,3.0563,3.0361,3.0087,2.9794,2.9582,2.9544,2.9363,2.9162,2.9409,2.9838,3.0058,3.0142,3.0284,3.043,3.054,3.0635,3.0657,3.0638,3.0556,3.0393,3.0181,3.0098,2.9982,2.9963,3.0107,3.3753,3.3715,3.4051,3.4199,3.4299,3.4583,3.45,3.4233,3.434,3.426,3.4006,3.3846,3.3441,3.2721,3.2094,3.1484,3.1038,3.022,2.9667,2.9904,2.9433,2.9368,2.9455,2.9494,2.9533,2.9678,2.9713,2.9713,2.9796,2.9796,2.9952,3.0166,3.0401,3.0492,3.0573,3.065,3.0762,3.0879,3.0918,3.0918,3.084,3.0723,3.0606,3.0574,3.0491,3.0379,3.033,3.0182,3.0003,3.0013,3.0046,3.0075,3.0163,3.0267,3.0291,3.0274,3.0257,3.03,3.0295,3.04,3.0394,3.0379,3.015,3.0075,3.007,2.998,2.9994,3.003,3.0028,2.9913,2.9538,2.8506,2.7237,2.4847,2.2801,1.9829,1.7302,1.5096,0.9913,0.9732,0.7177,0.8789,1.1081,1.2868,1.4771,1.7874,2.0948,2.4894,2.8867,2.9963,3.0529,3.0404,3.0274,3.0078,2.9957,2.9955,2.9725,2.9408,2.9693,3.0108,3.0165,3.019,3.0396,3.0562,3.0606,3.0625,3.0658,3.0642,3.0566,3.0526,3.0452,3.0424,3.0498,3.0462,3.0432,3.2948,3.2847,3.3064,3.3178,3.3395,3.4299,3.4722,3.4812,3.4732,3.4546,3.4333,3.4091,3.3734,3.3566,3.2855,3.2078,3.1396,3.0589,3.006,2.9683,2.9502,2.9589,2.9643,2.9713,2.9782,2.9765,2.9799,2.9943,2.9999,3.0032,3.0175,3.0361,3.0512,3.0527,3.0545,3.0583,3.0703,3.0801,3.084,3.082,3.0781,3.0685,3.0606,3.0559,3.0482,3.0394,3.0292,3.0103,3.0032,3.0037,3.0113,3.0102,3.0134,3.021,3.0139,3.0044,2.9998,2.9975,3.0112,3.0267,3.0367,3.0355,3.0196,3.0228,3.0253,3.0244,3.0265,3.0354,3.0397,3.0377,3.0145,2.9583,2.8982,2.7204,2.563,2.31,2.0553,1.6105,0.9707,0.5722,0.124,0.1489,0.5087,0.7359,1.1526,1.5389,1.8945,2.2292,2.6213,2.9903,3.0374,3.0521,3.0405,3.036,3.0297,3.0226,3.0027,2.9702,2.9853,3.0175,3.0199,3.0221,3.0362,3.0464,3.0569,3.0609,3.062,3.0615,3.0585,3.0544,3.0453,3.0507,3.0505,3.049,3.0463,3.1409,3.1528,3.1899,3.2492,3.3237,3.3843,3.418,3.4363,3.4176,3.4018,3.3944,3.3333,3.3294,3.3642,3.2375,3.2027,3.1642,3.1154,3.0568,3.0143,2.9776,2.9805,2.9861,2.995,3.0032,3.0142,3.0196,3.019,3.0266,3.0298,3.0385,3.055,3.0527,3.0473,3.0389,3.0386,3.0516,3.0642,3.0661,3.0693,3.0693,3.0628,3.0575,3.0521,3.0481,3.0378,3.0144,3.0048,2.9975,3.0018,3.012,3.0191,3.0388,3.0284,3.0132,2.9799,2.9708,2.9678,2.9958,3.0075,3.0182,3.0311,3.0286,3.0356,3.0413,3.0443,3.0455,3.0534,3.0586,3.0534,3.0474,3.0105,2.9609,2.8508,2.6938,2.4955,2.1916,1.6383,0.9658,0.1012,-0.3464,-0.1835,0.1383,0.5144,0.9365,1.3378,1.7184,2.0619,2.4459,2.8496,3.0335,3.0506,3.0485,3.0423,3.0413,3.0374,3.0201,3.0059,3.0153,3.0153,3.009,3.0143,3.0267,3.0416,3.056,3.0582,3.0541,3.0506,3.0455,3.0373,3.0296,3.0423,3.0507,3.045,3.0472,3.0384,3.0694,3.1134,3.2038,3.3148,3.3652,3.3954,3.4067,3.3578,3.3364,3.3375,3.2518,3.247,3.2681,3.163,3.1164,3.1565,3.059,3.0093,3.0243,3.0051,3.0125,3.0163,3.0221,3.0316,3.0434,3.0492,3.0443,3.0468,3.0477,3.053,3.0336,3.0396,3.0273,3.013,3.0067,3.0166,3.0298,3.0424,3.0522,3.0562,3.0575,3.0537,3.0507,3.0491,3.0294,3.0037,2.9978,2.9932,2.9971,3.0081,3.0192,3.0304,3.0183,2.9806,2.9514,2.9475,2.9532,2.9713,2.9829,2.9958,3.0095,3.0209,3.0298,3.0414,3.0482,3.0545,3.0599,3.0624,3.0616,3.059,3.0457,2.9985,2.9444,2.7896,2.6325,2.1595,1.6411,0.773,-0.2045,-0.4347,-0.3007,-0.0215,0.3653,0.6832,1.0155,1.511,2.0548,2.4744,2.9218,3.0471,3.0586,3.0546,3.0482,3.0463,3.0403,3.024,3.0109,3.014,3.0117,3.0037,3.0075,3.0218,3.0403,3.0586,3.0535,3.0432,3.0326,3.0254,3.0167,3.0011,2.9976,3.0108,3.0294,3.0367,2.9613,3.0175,3.0796,3.19,3.3105,3.3616,3.3931,3.3966,3.3025,3.2742,3.2794,3.1783,3.1531,3.1713,3.0709,3.0411,3.0568,3.0068,2.9935,3.0206,3.022,3.0307,3.0471,3.06,3.0522,3.0574,3.0578,3.05,3.0517,3.0407,3.0154,2.9959,2.9943,2.9822,2.9612,2.9581,2.9715,3.0021,3.0171,3.0289,3.049,3.0529,3.049,3.0482,3.0422,3.0292,3.0047,2.9893,2.9813,2.9932,3.0034,3.0127,3.0135,3.0028,2.958,2.9336,2.9351,2.9394,2.9513,2.9626,2.9696,2.9796,2.9893,3.0126,3.0318,3.0494,3.0589,3.0624,3.0652,3.0555,3.049,3.0313,2.9941,2.9193,2.7923,2.6185,2.2896,1.5967,0.6245,-0.1522,-0.3052,-0.1363,0.3119,0.7321,1.0333,1.0446,1.3099,1.9813,2.46,2.9315,3.047,3.054,3.0389,3.0308,3.0393,3.0341,3.0222,3.0144,3.0142,3.016,3.0143,3.0144,3.0181,3.0377,3.0562,3.0406,3.0295,3.0206,3.0041,2.9788,2.9652,2.9507,2.9651,2.9988,3.0325,2.8338,2.9005,3.1192,3.2348,3.2791,3.3705,3.3751,3.3227,3.2604,3.2502,3.2608,3.1394,3.0851,3.1131,2.9991,2.9791,3.0271,3.0,2.9908,3.0186,3.0346,3.0462,3.0586,3.0613,3.0579,3.0533,3.0495,3.0408,3.0228,2.9997,2.9737,2.9451,2.9314,2.9101,2.9082,2.9079,2.9324,2.9777,2.9942,3.0163,3.0443,3.05,3.0491,3.0462,3.0398,3.0302,3.0098,2.9977,3.0009,3.0112,3.0119,3.0172,3.0227,3.0036,2.9727,2.9415,2.9332,2.9372,2.9353,2.9434,2.9514,2.9695,2.9855,3.0087,3.0298,3.0482,3.0591,3.0643,3.0598,3.0477,3.0308,3.0105,2.9692,2.8782,2.7707,2.5781,2.3803,1.4683,0.4996,0.2272,-0.0011,0.3056,0.7733,1.0692,1.3346,1.5129,1.6294,2.0164,2.4219,2.8403,3.0024,3.0247,3.0095,3.0059,3.0136,3.0171,3.0025,3.0087,3.0144,3.0176,3.0211,3.0236,3.0271,3.0391,3.0472,3.0335,3.0217,3.0073,2.9889,2.9641,2.9476,2.9417,2.9496,2.9754,3.0181,2.8321,2.9082,3.145,3.2353,3.236,3.3232,3.3302,3.269,3.188,3.1728,3.1892,3.0649,3.0169,3.0583,2.9579,2.9485,3.0208,3.0083,3.0157,3.0366,3.0458,3.056,3.0601,3.0598,3.0504,3.0435,3.0251,3.0076,2.9825,2.9613,2.9334,2.8891,2.8555,2.8512,2.8603,2.8745,2.9079,2.9677,2.981,3.0092,3.0409,3.0462,3.0451,3.0417,3.0375,3.0271,3.0125,3.0003,3.0079,3.0192,3.0264,3.0228,3.0211,3.0048,2.9796,2.9494,2.9372,2.9351,2.9289,2.9289,2.9373,2.9551,2.9763,2.9961,3.0278,3.0451,3.0558,3.0579,3.0431,3.0298,2.9998,2.9763,2.8967,2.81,2.6256,2.4237,2.1111,1.5165,1.0588,0.9819,1.0086,1.4118,1.7542,1.8149,2.026,2.0128,2.1257,2.1559,2.521,2.7022,2.8676,2.9676,2.9332,2.9367,2.9455,2.9598,2.9757,2.9887,3.0,3.011,3.014,3.0273,3.0392,3.0336,3.0312,3.0327,3.0189,3.0027,2.9923,2.9731,2.954,2.9378,2.9459,2.9454,2.9693,2.8933,2.9697,3.1425,3.1996,3.1779,3.2526,3.2651,3.2139,3.1186,3.0733,3.0716,2.9866,2.9551,2.9513,2.9513,2.9695,2.9877,3.0013,3.0276,3.0503,3.0557,3.0602,3.0616,3.0594,3.0406,3.0161,2.9916,2.9593,2.9297,2.9008,2.8593,2.8175,2.8084,2.8111,2.8348,2.8627,2.8978,2.9602,2.9942,3.0252,3.0384,3.0472,3.0441,3.0428,3.0383,3.0292,3.0117,3.0079,3.0139,3.0264,3.0411,3.0396,3.0333,3.0194,2.9942,2.971,2.9532,2.9394,2.9203,2.9178,2.927,2.9418,2.9624,2.9923,3.0247,3.0396,3.0506,3.0433,3.0289,3.0081,2.9782,2.9288,2.8438,2.7011,2.4925,2.2522,1.8834,1.5741,1.5604,1.5507,1.8857,2.2732,2.4119,2.4812,2.4972,2.4948,2.5173,2.5695,2.6169,2.6301,2.7126,2.7904,2.8015,2.8185,2.8483,2.8817,2.9046,2.9424,2.9544,2.9829,3.0049,3.0105,3.0121,3.0089,3.0083,3.0163,3.0136,3.0004,2.9884,2.9819,2.9569,2.9363,2.9084,2.9074,2.9082,2.9399,2.9722,3.0382,3.0843,3.1269,3.203,3.1921,3.1277,3.1153,3.0671,2.983,2.9582,2.9332,2.9141,2.9353,2.957,2.9845,3.0018,3.0297,3.0541,3.0545,3.0605,3.0563,3.0428,3.0172,2.9825,2.946,2.9137,2.8684,2.8209,2.7817,2.7519,2.7141,2.7387,2.8012,2.8363,2.8817,2.9509,3.0043,3.0337,3.0466,3.0521,3.054,3.0507,3.0462,3.0411,3.0356,3.0383,3.0451,3.0539,3.0581,3.0576,3.0503,3.0385,3.0198,2.9952,2.9794,2.957,2.9418,2.9341,2.9439,2.9553,2.9803,3.0085,3.0326,3.0428,3.0435,3.0338,3.0175,2.9961,2.9635,2.9105,2.8261,2.6061,2.3936,2.089,1.7557,1.6928,1.6907,1.8154,2.0451,2.3344,2.5379,2.5818,2.5958,2.5873,2.5722,2.6202,2.6304,2.6104,2.59,2.6333,2.6876,2.6861,2.7137,2.7779,2.8117,2.8596,2.9137,2.9532,2.9792,2.9853,2.9855,2.9876,2.9963,3.004,2.9992,3.0032,2.995,2.9854,2.9582,2.9308,2.8922,2.839,2.8125]}]]